[[{"header":{"parameterUnit":"m.s-1","parameterCategory":1,"la1":30.6,"la2":28.766,"lo1":-90.7593,"lo2":-88.6598,"dy":0.0162,"dx":0.0183,"nx":116,"ny":114,"refTime":"2023-03-16T00:00:00:Z","depth":0,"parameterNumber":2,"parameterNumberName":"U-component_of_WINDS"},"data":[0.0,0.0,0.0,0.0,0.0,0.0,0.0,0.0,0.0,0.0,0.0,0.0,0.0,0.0,0.0,0.0,0.0,0.0,0.0,0.0,0.0,0.0,0.0,0.0,0.0,0.0,0.0,0.0,0.0,0.0,0.0,0.0,0.0,0.0,0.0,0.0,0.0,0.0,0.0,0.0,0.0,0.0,0.0,0.0,0.0,0.0,0.0,0.0,0.0,0.0,0.0,0.0,0.0,0.0,0.0,0.0,0.0,0.0,0.0,0.0,0.0,0.0,0.0,0.0,0.0,0.0,0.0,0.0,0.0,0.0,0.0,0.0,0.0,0.0,0.0,0.0,0.0,0.0,0.0,0.0,0.0,0.0,0.0,0.0,0.0,0.0,0.0,0.0,0.0,0.0,0.0,0.0,0.0,0.0,0.0,0.0,0.0,0.0,0.0,0.0,0.0,0.0,0.0,0.0,0.0,0.0,0.0,0.0,0.0,0.0,0.0,0.0,0.0,0.0,0.0,0.0,0.0,0.0,0.0,0.0,0.0,0.0,0.0,0.0,0.0,0.0,0.0,0.0,0.0,0.0,0.0,0.0,0.0,0.0,0.0,0.0,0.0,0.0,0.0,0.0,0.0,0.0,0.0,0.0,0.0,0.0,0.0,0.0,0.0,0.0,0.0,0.0,0.0,0.0,0.0,0.0,0.0,0.0,0.0,0.0,0.0,0.0,0.0,0.0,0.0,0.0,0.0,0.0,0.0,0.0,0.0,0.0,0.0,0.0,0.0,0.0,0.0,0.0,0.0,0.0,0.0,0.0,0.0,0.0,0.0,0.0,0.0,0.0,0.0,0.0,0.0,0.0,0.0,0.0,0.0,0.0,0.0,0.0,0.0,0.0,0.0,0.0,0.0,0.0,0.0,0.0,0.0,0.0,0.0,0.0,0.0,0.0,0.0,0.0,0.0,0.0,0.0,0.0,0.0,0.0,0.0,0.0,0.0,0.0,0.0,0.0,0.0,0.0,0.0,0.0,0.0,0.0,0.0,0.0,0.0,0.0,0.0,0.0,0.0,0.0,0.0,0.0,0.0,0.0,0.0,0.0,0.0,0.0,0.0,0.0,0.0,0.0,0.0,0.0,0.0,0.0,0.0,0.0,0.0,0.0,0.0,0.0,0.0,0.0,0.0,0.0,0.0,0.0,0.0,0.0,0.0,0.0,0.0,0.0,0.0,0.0,0.0,0.0,0.0,0.0,0.0,0.0,0.0,0.0,0.0,0.0,0.0,0.0,0.0,0.0,0.0,0.0,0.0,0.0,0.0,0.0,0.0,0.0,0.0,0.0,0.0,0.0,0.0,0.0,0.0,0.0,0.0,0.0,0.0,0.0,0.0,0.0,0.0,0.0,0.0,0.0,0.0,0.0,0.0,0.0,0.0,0.0,0.0,0.0,0.0,0.0,0.0,0.0,0.0,0.0,0.0,0.0,0.0,0.0,0.0,0.0,0.0,0.0,0.0,0.0,0.0,0.0,0.0,0.0,0.0,0.0,0.0,0.0,0.0,0.0,0.0,0.0,0.0,0.0,0.0,0.0,0.0,0.0,0.0,0.0,0.0,0.0,0.0,0.0,0.0,0.0,0.0,0.0,0.0,0.0,0.0,0.0,0.0,0.0,0.0,0.0,0.0,0.0,0.0,0.0,0.0,0.0,0.0,0.0,0.0,0.0,0.0,0.0,0.0,0.0,0.0,0.0,0.0,0.0,0.0,0.0,0.0,0.0,0.0,0.0,0.0,0.0,0.0,0.0,0.0,0.0,0.0,0.0,0.0,0.0,0.0,0.0,0.0,0.0,0.0,0.0,0.0,0.0,0.0,0.0,0.0,0.0,0.0,0.0,0.0,0.0,0.0,0.0,0.0,0.0,0.0,0.0,0.0,0.0,0.0,0.0,0.0,0.0,0.0,0.0,0.0,0.0,0.0,0.0,0.0,0.0,0.0,0.0,0.0,0.0,0.0,0.0,0.0,0.0,0.0,0.0,0.0,0.0,0.0,0.0,0.0,0.0,0.0,0.0,0.0,0.0,0.0,0.0,0.0,0.0,0.0,0.0,0.0,0.0,0.0,0.0,0.0,0.0,0.0,0.0,0.0,0.0,0.0,0.0,0.0,0.0,0.0,0.0,0.0,0.0,0.0,0.0,0.0,0.0,0.0,0.0,0.0,0.0,0.0,0.0,0.0,0.0,0.0,0.0,0.0,0.0,0.0,0.0,0.0,0.0,0.0,0.0,0.0,0.0,0.0,0.0,0.0,0.0,0.0,0.0,0.0,0.0,0.0,0.0,0.0,0.0,0.0,0.0,0.0,0.0,0.0,0.0,0.0,0.0,0.0,0.0,0.0,0.0,0.0,0.0,0.0,0.0,0.0,0.0,0.0,0.0,0.0,0.0,0.0,0.0,0.0,0.0,0.0,0.0,0.0,0.0,0.0,0.0,0.0,0.0,0.0,0.0,0.0,0.0,0.0,0.0,0.0,0.0,0.0,0.0,0.0,0.0,0.0,0.0,0.0,0.0,0.0,0.0,0.0,0.0,0.0,0.0,0.0,0.0,0.0,0.0,0.0,0.0,0.0,0.0,0.0,0.0,0.0,0.0,0.0,0.0,0.0,0.0,0.0,0.0,0.0,0.0,0.0,0.0,0.0,0.0,0.0,0.0,0.0,0.0,0.0,0.0,0.0,0.0,0.0,0.0,0.0,0.0,0.0,0.0,0.0,0.0,0.0,0.0,0.0,0.0,0.0,0.0,0.0,0.0,0.0,0.0,0.0,0.0,0.0,0.0,0.0,0.0,0.0,0.0,0.0,0.0,0.0,0.0,0.0,0.0,0.0,0.0,0.0,0.0,0.0,0.0,0.0,0.0,0.0,0.0,0.0,0.0,0.0,0.0,0.0,0.0,0.0,0.0,0.0,0.0,0.0,0.0,0.0,0.0,0.0,0.0,0.0,0.0,0.0,0.0,0.0,0.0,0.0,0.0,0.0,0.0,0.0,0.0,0.0,0.0,0.0,0.0,0.0,0.0,0.0,0.0,0.0,0.0,0.0,0.0,0.0,0.0,0.0,0.0,0.0,0.0,0.0,0.0,0.0,0.0,0.0,0.0,0.0,0.0,0.0,0.0,0.0,0.0,0.0,0.0,0.0,0.0,0.0,0.0,0.0,0.0,0.0,0.0,0.0,0.0,0.0,0.0,0.0,0.0,0.0,0.0,0.0,0.0,0.0,0.0,0.0,0.0,0.0,0.0,0.0,0.0,0.0,0.0,0.0,0.0,0.0,0.0,0.0,0.0,0.0,0.0,0.0,0.0,0.0,0.0,0.0,0.0,0.0,0.0,0.0,0.0,0.0,0.0,0.0,0.0,0.0,0.0,0.0,0.0,0.0,0.0,0.0,0.0,0.0,0.0,0.0,0.0,0.0,0.0,0.0,0.0,0.0,0.0,0.0,0.0,0.0,0.0,0.0,0.0,0.0,0.0,0.0,0.0,0.0,0.0,0.0,0.0,0.0,0.0,0.0,0.0,0.0,0.0,0.0,0.0,0.0,0.0,0.0,0.0,0.0,0.0,0.0,0.0,0.0,0.0,0.0,0.0,0.0,0.0,0.0,0.0,0.0,0.0,0.0,0.0,0.0,0.0,0.0,0.0,0.0,0.0,0.0,0.0,0.0,0.0,0.0,0.0,0.0,0.0,0.0,0.0,0.0,0.0,0.0,0.0,0.0,0.0,0.0,0.0,0.0,0.0,0.0,0.0,0.0,0.0,0.0,0.0,0.0,0.0,0.0,0.0,0.0,0.0,0.0,0.0,0.0,0.0,0.0,0.0,0.0,0.0,0.0,0.0,0.0,0.0,0.0,0.0,0.0,0.0,0.0,0.0,0.0,0.0,0.0,0.0,0.0,0.0,0.0,0.0,0.0,0.0,0.0,0.0,0.0,0.0,0.0,0.0,0.0,0.0,0.0,0.0,0.0,0.0,0.0,0.0,0.0,0.0,0.0,0.0,0.0,0.0,0.0,0.0,0.0,0.0,0.0,0.0,0.0,0.0,0.0,0.0,0.0,0.0,0.0,0.0,0.0,0.0,0.0,0.0,0.0,0.0,0.0,0.0,0.0,0.0,0.0,0.0,0.0,0.0,0.0,0.0,0.0,0.0,0.0,0.0,0.0,0.0,0.0,0.0,0.0,0.0,0.0,0.0,0.0,0.0,0.0,0.0,0.0,0.0,0.0,0.0,0.0,0.0,0.0,0.0,0.0,0.0,0.0,0.0,0.0,0.0,0.0,0.0,0.0,0.0,0.0,0.0,0.0,0.0,0.0,0.0,0.0,0.0,0.0,0.0,0.0,0.0,0.0,0.0,0.0,0.0,0.0,0.0,0.0,0.0,0.0,0.0,0.0,0.0,0.0,0.0,0.0,0.0,0.0,0.0,0.0,0.0,0.0,0.0,0.0,0.0,0.0,0.0,0.0,0.0,0.0,0.0,0.0,0.0,0.0,0.0,0.0,0.0,0.0,0.0,0.0,0.0,0.0,0.0,0.0,0.0,0.0,0.0,0.0,0.0,0.0,0.0,0.0,0.0,0.0,0.0,0.0,0.0,0.0,0.0,0.0,0.0,0.0,0.0,0.0,0.0,0.0,0.0,0.0,0.0,0.0,0.0,0.0,0.0,0.0,0.0,0.0,0.0,0.0,0.0,0.0,0.0,0.0,0.0,0.0,0.0,0.0,0.0,0.0,0.0,0.0,0.0,0.0,0.0,0.0,0.0,0.0,0.0,0.0,0.0,0.0,0.0,0.0,0.0,0.0,0.0,0.0,0.0,0.0,0.0,0.0,0.0,0.0,0.0,0.0,0.0,0.0,0.0,0.0,0.0,0.0,0.0,0.0,0.0,0.0,0.0,0.0,0.0,0.0,0.0,0.0,0.0,0.0,0.0,0.0,0.0,0.0,0.0,0.0,0.0,0.0,0.0,0.0,0.0,0.0,0.0,0.0,0.0,0.0,0.0,0.0,0.0,0.0,0.0,0.0,0.0,0.0,0.0,0.0,0.0,0.0,0.0,0.0,0.0,0.0,0.0,0.0,0.0,0.0,0.0,0.0,0.0,0.0,0.0,0.0,0.0,0.0,0.0,0.0,0.0,0.0,0.0,0.0,0.0,0.0,0.0,0.0,0.0,0.0,0.0,0.0,0.0,0.0,0.0,0.0,0.0,0.0,0.0,0.0,0.0,0.0,0.0,0.0,0.0,0.0,0.0,0.0,0.0,0.0,0.0,0.0,0.0,0.0,0.0,0.0,0.0,0.0,0.0,0.0,0.0,0.0,0.0,0.0,0.0,0.0,0.0,0.0,0.0,0.0,0.0,0.0,0.0,0.0,0.0,0.0,0.0,0.0,0.0,0.0,0.0,0.0,0.0,0.0,0.0,0.0,0.0,0.0,0.0,0.0,0.0,0.0,0.0,0.0,0.0,0.0,0.0,0.0,0.0,0.0,0.0,0.0,0.0,0.0,0.0,0.0,0.0,0.0,0.0,0.0,0.0,0.0,0.0,0.0,0.0,0.0,0.0,0.0,0.0,0.0,0.0,0.0,0.0,0.0,0.0,0.0,0.0,0.0,0.0,0.0,0.0,0.0,0.0,0.0,0.0,0.0,0.0,0.0,0.0,0.0,0.0,0.0,0.0,0.0,0.0,0.0,0.0,0.0,0.0,0.0,0.0,0.0,0.0,0.0,0.0,0.0,0.0,0.0,0.0,0.0,0.0,0.0,0.0,0.0,0.0,0.0,0.0,0.0,0.0,0.0,0.0,0.0,0.0,0.0,0.0,0.0,0.0,0.0,0.0,0.0,0.0,0.0,0.0,0.0,0.0,0.0,0.0,0.0,0.0,0.0,0.0,0.0,0.0,0.0,0.0,0.0,0.0,0.0,0.0,0.0,0.0,0.0,0.0,0.0,0.0,0.0,0.0,0.0,0.0,0.0,0.0,0.0,0.0,0.0,0.0,0.0,0.0,0.0,0.0,0.0,0.0,0.0,0.0,0.0,0.0,0.0,0.0,0.0,0.0,0.0,0.0,0.0,0.0,0.0,0.0,2.933,0.0,0.0,0.0,0.0,0.0,0.0,0.0,0.0,0.0,0.0,0.0,0.0,0.0,0.0,0.0,0.0,0.0,0.0,0.0,0.0,0.0,0.0,0.0,0.0,0.0,0.0,0.0,0.0,0.0,0.0,0.0,0.0,0.0,0.0,0.0,0.0,0.0,0.0,0.0,1.5808,1.5808,1.5808,1.5808,1.5808,1.5808,0.0,0.0,0.0,0.0,0.0,0.0,0.0,0.0,0.0,0.0,0.0,0.0,0.0,0.0,0.0,0.0,0.0,0.0,0.0,0.0,0.0,0.0,0.0,0.0,0.0,0.0,0.0,0.0,0.0,0.0,0.0,0.0,0.0,0.0,0.0,0.0,0.0,0.0,0.0,0.0,0.0,0.0,0.0,0.0,0.0,0.0,0.0,0.0,0.0,0.0,0.0,0.0,0.0,0.0,0.0,0.0,0.0,0.0,0.0,0.0,0.0,0.0,0.0,0.0,0.0,0.0,0.0,0.0,0.0,0.0,0.0,3.1055,0.0,0.0,0.0,0.0,0.0,0.0,0.0,0.0,0.0,0.0,0.0,0.0,0.0,0.0,0.0,0.0,0.0,0.0,0.0,0.0,0.0,0.0,0.0,0.0,0.0,0.0,0.0,0.0,0.0,0.0,0.0,0.0,0.0,0.0,0.0,0.0,0.0,0.0,1.5808,1.5808,1.5808,1.5808,1.5808,1.5808,1.5808,0.0,0.0,0.0,0.0,0.0,0.0,0.0,0.0,0.0,0.0,0.0,0.0,0.0,0.0,0.0,0.0,0.0,0.0,0.0,0.0,0.0,0.0,0.0,0.0,0.0,0.0,0.0,0.0,0.0,0.0,0.0,0.0,0.0,0.0,0.0,0.0,0.0,0.0,0.0,0.0,0.0,0.0,0.0,0.0,0.0,0.0,0.0,0.0,0.0,0.0,0.0,0.0,0.0,0.0,0.0,0.0,0.0,0.0,0.0,0.0,0.0,0.0,0.0,2.7418,2.7671,2.7826,2.8553,3.0125,3.2412,3.4226,3.3698,3.1663,3.2606,0.0,0.0,0.0,0.0,0.0,0.0,0.0,0.0,0.0,0.0,0.0,0.0,0.0,0.0,0.0,0.0,0.0,0.0,0.0,0.0,0.0,1.3445,1.4142,1.4142,1.517,1.5808,0.0,0.0,0.0,0.0,0.0,0.0,0.0,1.5808,1.5808,1.5808,1.5808,1.5808,1.5808,1.5808,1.5808,1.5808,1.5808,1.5808,1.5808,0.0,0.0,0.0,0.0,0.0,0.0,0.0,0.0,0.0,0.0,0.0,0.0,0.0,0.0,0.0,0.0,0.0,0.0,0.0,0.0,0.0,0.0,0.0,0.0,0.0,0.0,0.0,0.0,0.0,0.0,0.0,0.0,0.0,0.0,0.0,0.0,0.0,0.0,0.0,0.0,0.0,2.4332,2.4391,0.0,0.0,0.0,0.0,0.0,0.0,0.0,0.0,0.0,0.0,0.0,0.0,0.0,2.6934,2.6934,2.7389,2.7604,2.764,2.9156,2.9292,2.8336,3.1911,3.3072,3.2445,3.5052,0.0,3.3952,3.4098,0.0,0.0,0.0,0.0,0.0,0.0,0.0,0.0,0.0,0.0,0.0,0.0,0.0,0.0,0.0,0.0,0.0,0.0,0.0,0.0,0.0,1.4196,1.4973,1.4973,1.5486,1.5808,1.5808,0.0,0.0,0.0,0.0,0.0,1.5808,1.5808,1.5808,1.5808,1.5808,1.5808,1.5808,1.5808,1.5808,1.5808,1.5808,1.5808,1.5896,1.7296,0.0,0.0,0.0,0.0,0.0,0.0,0.0,0.0,0.0,0.0,0.0,0.0,0.0,0.0,0.0,0.0,0.0,0.0,0.0,0.0,0.0,0.0,0.0,0.0,0.0,0.0,0.0,0.0,0.0,0.0,0.0,0.0,0.0,0.0,0.0,0.0,0.0,0.0,0.0,2.4691,2.4883,2.5103,2.5308,2.5439,0.0,0.0,0.0,0.0,0.0,0.0,0.0,0.0,0.0,2.7389,2.7383,2.749,2.7734,2.792,2.8044,2.8044,2.9033,2.9206,2.8706,3.0766,3.2235,3.3211,3.4425,3.5491,3.6272,3.4385,3.3436,3.3056,0.0,0.0,0.0,0.0,3.5777,3.6505,0.0,0.0,0.0,0.0,0.0,0.0,0.0,0.0,0.0,0.0,0.0,0.0,1.2783,1.434,1.5313,1.5313,1.5611,1.5808,1.5808,1.5808,0.0,0.0,0.0,1.5808,1.5808,1.5808,1.5808,1.5808,1.5808,1.5848,1.5921,1.5921,1.5961,1.6028,1.6358,1.6228,1.592,1.7778,1.7692,1.6339,0.0,0.0,0.0,0.0,0.0,0.0,0.0,0.0,0.0,0.0,0.0,0.0,0.0,0.0,0.0,0.0,0.0,0.0,0.0,0.0,0.0,0.0,0.0,0.0,0.0,0.0,0.0,0.0,0.0,0.0,0.0,0.0,0.0,0.0,0.0,0.0,0.0,2.5244,2.5361,2.5645,2.5815,2.5884,0.0,0.0,0.0,0.0,0.0,0.0,2.7178,2.7178,2.7383,2.7839,2.7848,2.8054,2.8447,2.8447,2.8506,2.865,2.8935,2.9082,2.9092,2.9792,3.1267,3.3281,3.3994,3.535,3.6926,3.5045,3.4303,3.4256,3.3254,3.3956,3.5525,3.587,3.663,3.7531,0.0,0.0,0.0,0.0,0.0,0.0,0.0,0.0,0.0,0.0,0.0,1.0121,1.0194,1.2469,1.3998,1.3998,1.5092,1.5808,1.5808,1.5808,1.5808,1.5808,1.5808,1.5808,1.5808,1.5808,1.5808,1.5808,1.5808,1.5948,1.6277,1.6277,1.64,1.671,1.7856,1.7398,1.5808,1.592,1.6615,1.7505,1.6362,0.0,0.0,0.0,0.0,0.0,0.0,0.0,0.0,0.0,0.0,0.0,0.0,0.0,0.0,0.0,0.0,0.0,0.0,0.0,0.0,0.0,0.0,0.0,0.0,0.0,0.0,0.0,0.0,0.0,0.0,0.0,0.0,0.0,0.0,0.0,0.0,0.0,0.0,2.5693,2.6079,0.0,0.0,0.0,0.0,2.6982,2.6976,2.7197,2.7643,2.7653,2.7848,2.8252,2.8262,2.8467,2.8859,2.8859,2.9092,2.953,2.9559,2.9559,2.9625,3.0912,3.1584,3.1871,3.4543,3.5263,3.4754,3.6862,3.7007,3.587,3.5819,3.5102,3.4259,3.5525,3.6048,3.6289,0.0,0.0,0.0,0.0,0.0,0.0,0.0,0.0,0.0,0.8651,1.017,1.1219,1.1219,1.3566,1.5123,1.5123,1.5534,1.5808,1.5808,1.5808,1.5808,1.5808,1.6012,1.6199,1.6386,1.6393,1.6393,1.6393,1.6393,1.6446,1.6553,1.6553,1.6607,1.6732,1.7143,1.7457,1.7693,1.8232,1.7793,1.6807,1.6959,1.6803,0.0,0.0,0.0,0.0,0.0,0.0,0.0,0.0,0.0,0.0,0.0,0.0,0.0,0.0,0.0,0.0,0.0,0.0,0.0,0.0,0.0,0.0,0.0,0.0,0.0,0.0,0.0,0.0,0.0,0.0,0.0,0.0,0.0,0.0,0.0,0.0,0.0,2.6162,2.6533,0.0,2.6797,2.7187,2.7457,2.7457,2.7685,2.79,2.8083,2.8093,2.8262,2.8682,2.8701,2.8906,2.9364,2.9336,2.9442,2.9598,2.9872,2.9999,3.0009,3.0805,3.1671,3.2629,3.3643,3.4416,3.5036,3.5917,3.6538,3.688,3.5916,3.6406,3.7621,3.7128,3.7557,3.8444,0.0,0.0,0.0,0.0,0.0,0.0,0.0,0.0,0.8162,0.8602,1.0558,1.2067,1.2528,1.4489,1.5808,1.5808,1.5808,1.5848,1.5948,1.5979,1.6001,1.6095,1.6313,1.6506,1.67,1.6707,1.6707,1.6707,1.6707,1.676,1.6879,1.6879,1.6907,1.7001,1.7001,1.7496,1.8369,1.879,1.878,1.8449,1.8658,1.8211,1.7363,0.0,0.0,0.0,0.0,0.0,0.0,0.0,0.0,0.0,0.0,0.0,0.0,0.0,0.0,0.0,0.0,0.0,0.0,0.0,0.0,0.0,0.0,0.0,0.0,0.0,0.0,0.0,0.0,0.0,0.0,0.0,0.0,0.0,0.0,0.0,2.6602,2.6602,2.6973,2.7236,2.7236,2.7653,2.7907,2.7907,2.8288,2.8506,2.8506,2.8643,2.8857,2.9131,2.9141,2.9346,2.9803,2.9813,2.9891,3.0048,3.0293,3.043,3.0439,3.0752,3.1441,3.2426,3.3417,3.4414,3.5382,3.6364,3.7477,3.8352,3.6692,3.7542,3.9581,3.8608,3.8856,3.9697,0.0,0.0,0.0,0.0,0.0,0.0,0.0,0.7988,0.8482,0.9825,1.1121,1.2406,1.3752,1.5045,1.5808,1.5808,1.5808,1.5928,1.6277,1.6297,1.6431,1.6707,1.672,1.6727,1.6734,1.6734,1.6734,1.6734,1.6734,1.6881,1.7213,1.7213,1.7341,1.7608,1.7608,1.7608,1.7641,1.7385,1.9319,2.2466,2.1178,2.0594,2.0353,0.0,0.0,0.0,0.0,0.0,0.0,0.0,0.0,0.0,0.0,0.0,0.0,0.0,0.0,0.0,0.0,0.0,0.0,0.0,0.0,0.0,0.0,0.0,0.0,0.0,0.0,0.0,0.0,0.0,0.0,0.0,0.0,0.0,2.6465,2.6768,2.7006,2.7006,2.7422,2.7712,2.7712,2.8093,2.831,2.831,2.8701,2.8908,2.8908,2.9336,2.9608,2.9618,2.9618,2.9823,3.0215,3.0215,3.0449,3.0889,3.0889,3.0889,3.0889,3.0898,3.0908,3.1073,3.3955,3.5207,3.5416,3.8277,3.984,4.0173,3.8275,3.8449,3.9747,3.9696,3.9721,3.9747,0.0,0.0,0.0,0.0,0.0,0.0,0.0,0.7988,0.8482,0.9825,1.1121,1.2406,1.3752,1.5045,1.5808,1.5808,1.5808,1.5928,1.6277,1.6297,1.6524,1.7033,1.7053,1.7153,1.7335,1.7341,1.7341,1.7341,1.7341,1.7408,1.7488,1.7488,1.7535,1.7608,1.7608,1.8146,1.9057,1.897,2.0089,2.171,1.8934,1.7817,1.7849,0.0,0.0,0.0,0.0,0.0,0.0,0.0,0.0,0.0,0.0,0.0,0.0,0.0,0.0,0.0,0.0,0.0,0.0,0.0,0.0,0.0,0.0,0.0,0.0,0.0,0.0,0.0,0.0,0.0,0.0,0.0,0.0,2.736,2.6904,2.7217,2.7516,2.7516,2.7888,2.8151,2.8151,2.8496,2.875,2.875,2.915,2.9422,2.9422,2.953,2.9735,3.0048,3.0029,3.0244,3.0693,3.0703,3.0762,3.0889,3.0889,3.0889,3.0898,3.1201,3.1348,3.1397,3.2563,3.3039,3.3128,3.392,3.5632,3.7766,3.7981,3.9228,4.0718,3.965,3.9945,4.0863,0.0,0.0,0.0,0.0,0.0,0.0,0.0,0.7988,0.8676,1.0558,1.1434,1.26,1.4489,1.5367,1.5855,1.6005,1.6012,1.6192,1.6638,1.6779,1.6999,1.7341,1.738,1.7434,1.7608,1.7608,1.7608,1.7608,1.7608,1.7608,1.7608,1.7608,1.7608,1.7608,1.7608,1.8022,1.876,1.876,1.9239,1.9814,1.7856,1.7418,1.7989,1.879,1.874,1.8322,1.9044,1.9288,1.9149,1.8182,0.0,0.0,0.0,0.0,0.0,0.0,0.0,0.0,0.0,0.0,0.0,0.0,0.0,0.0,0.0,0.0,0.0,0.0,0.0,0.0,0.0,0.0,0.0,0.0,2.7646,2.7868,2.7588,2.7773,2.7956,2.7956,2.8301,2.8555,2.8555,2.8945,2.9189,2.9189,2.959,2.9862,2.9862,3.0048,3.0263,3.0478,3.0488,3.0615,3.0889,3.0889,3.0976,3.1152,3.1152,3.125,3.1435,3.168,3.1787,3.1827,3.2745,3.3484,3.4148,3.4736,3.658,0.0,0.0,0.0,0.0,0.0,4.055,4.1315,0.0,0.0,0.0,0.0,0.0,0.0,0.0,0.8137,0.9118,1.158,1.2018,1.306,1.554,1.5808,1.5921,1.627,1.6297,1.6569,1.7159,1.7448,1.7608,1.7608,1.7608,1.7608,1.7608,1.7608,1.7608,1.7608,1.7608,1.7608,1.7608,1.7608,1.7608,1.7608,1.7608,1.7608,1.7608,1.7608,1.7608,1.7608,1.7608,1.8297,1.9395,1.9524,1.8864,1.7831,1.774,1.7702,1.7628,1.7191,0.0,0.0,0.0,0.0,0.0,0.0,0.0,0.0,0.0,0.0,0.0,0.0,0.0,0.0,0.0,0.0,0.0,0.0,0.0,0.0,0.0,0.0,0.0,0.0,2.8073,2.831,2.8359,2.8359,2.8359,2.8359,2.8691,2.8908,2.8957,2.9412,2.9667,2.9667,3.0058,3.0273,3.0273,0.0,0.0,0.0,0.0,3.0957,3.0957,3.1016,3.1221,3.1592,3.1592,3.1797,3.2198,3.2247,3.2267,3.2328,3.3696,3.5179,3.67,3.8003,3.9922,4.1702,3.8608,3.9061,4.149,4.149,4.149,4.149,0.0,0.0,0.0,0.0,0.0,0.0,0.0,0.892,1.0165,1.1702,1.2837,1.41,1.5635,1.5808,1.5921,1.627,1.6297,1.6569,1.7159,1.7448,1.7608,1.7608,1.7608,1.7608,1.7608,1.7608,1.7608,1.7608,1.7608,1.7608,1.7608,1.7608,1.7608,1.7608,1.7608,1.7608,1.7608,1.7608,1.7608,1.7608,1.7608,1.7759,1.8094,1.9195,1.9446,1.9361,2.0435,2.0844,2.065,1.943,1.9038,1.8858,1.7766,0.0,0.0,0.0,0.0,0.0,0.0,0.0,0.0,0.0,0.0,0.0,0.0,0.0,0.0,0.0,0.0,0.0,0.0,0.0,0.0,2.8142,2.8242,2.8408,2.875,2.8772,2.8772,2.8772,2.884,2.9053,2.9442,2.9852,3.0078,3.0078,3.0498,3.0752,3.0752,3.084,3.0889,3.0889,3.1221,3.1367,3.1367,3.1748,3.1993,3.2071,0.0,0.0,3.2208,3.255,3.2676,3.2726,3.3329,3.4513,3.5988,3.628,3.8172,4.0965,4.1544,4.2149,4.266,4.266,4.266,4.266,0.0,0.0,0.0,0.0,0.0,0.0,0.0,0.9558,1.0705,1.2643,1.3488,1.4442,1.5888,1.6052,1.6233,1.6698,1.6872,1.708,1.7374,1.7528,1.7608,1.7608,1.7608,1.7608,1.7608,1.7608,1.7608,1.7608,1.7608,1.7608,1.7608,1.7608,1.7608,1.7608,1.7608,1.7608,1.7608,1.7608,1.7608,1.7608,1.7608,1.7608,1.7661,1.8349,1.861,1.8681,1.9395,1.9646,1.9542,1.8838,1.861,1.848,1.7812,1.7608,1.7608,0.0,0.0,0.0,0.0,0.0,0.0,0.0,0.0,0.0,0.0,0.0,0.0,0.0,0.0,2.6703,0.0,0.0,2.8073,2.8262,2.8467,2.8682,2.8859,2.9111,2.9248,2.9248,2.9434,2.9648,2.9891,3.0283,3.0547,3.0547,3.0762,3.0889,3.0889,3.1094,3.1201,3.1201,3.1621,3.1846,3.1846,3.2091,3.2306,3.2511,3.2511,3.2619,3.2803,3.3008,3.3554,3.4298,3.4521,3.5509,3.7073,3.7873,3.9628,4.187,4.2681,4.3002,4.3002,4.3002,4.3002,4.3002,0.0,0.0,0.0,0.0,0.0,0.0,0.0,0.0,1.1214,1.3584,1.4118,1.4786,1.6142,1.6297,1.6538,1.7152,1.7441,1.7608,1.7608,1.7608,1.7608,1.7608,1.7608,1.7608,1.7608,1.7608,1.7608,1.7608,1.7608,1.7608,1.7608,1.7608,1.7608,1.7608,1.7608,1.7608,1.7608,1.7608,1.7608,1.7608,1.7608,1.7608,1.7608,1.7608,1.7608,1.7608,1.7608,1.7608,1.7608,1.7608,1.7608,1.7608,1.7608,1.7608,1.7608,1.7608,1.7608,0.0,0.0,0.0,0.0,0.0,0.0,0.0,0.0,0.0,2.413,2.7204,2.7809,2.7917,2.8232,2.8359,2.8418,2.8418,2.8769,2.9072,2.9133,2.9473,2.9755,2.9843,3.0077,3.0234,3.0322,3.0674,3.0889,3.0889,3.0967,3.1016,3.1016,3.1416,3.1641,3.1641,3.206,3.2316,3.2316,3.2404,3.2588,3.292,3.292,3.3096,3.3386,3.3386,3.4289,3.5837,3.6467,3.7454,3.8787,4.039,4.1842,4.3002,4.3002,4.3002,4.3002,4.3002,4.3002,4.3002,0.0,0.0,0.0,0.0,0.0,0.0,0.0,0.0,0.0,1.371,1.4902,1.5771,1.6239,1.6297,1.6538,1.7152,1.7441,1.7608,1.7608,1.7608,1.7608,1.7608,1.7608,1.7608,1.7608,1.7608,1.7608,1.7608,1.7608,1.7608,1.7608,1.7608,1.7608,1.7608,1.7608,1.7608,1.7608,1.7608,1.7608,1.7608,1.7608,1.7608,1.7608,1.7608,1.7608,1.7608,1.7608,1.7608,1.7608,1.7608,1.7608,1.7608,1.7608,1.7608,1.7608,1.7608,0.0,1.7608,1.7608,1.8888,2.0559,2.2035,2.2497,2.3393,0.0,0.0,2.5851,2.7823,2.8223,2.8232,2.8281,2.8603,2.882,2.882,2.9219,2.9657,3.0,3.0098,3.0283,3.0693,3.042,3.0361,3.0771,3.0859,3.0889,3.0889,3.124,3.1416,3.1416,3.1865,3.213,3.213,3.2531,3.2725,3.2725,3.3096,3.3279,3.3318,3.3318,3.3347,3.3386,3.3386,3.4289,3.5949,3.8823,4.0175,4.0448,4.2081,4.2834,4.3002,4.3002,4.3002,4.3002,4.3002,4.3002,4.3002,0.0,0.0,0.0,0.0,0.0,0.0,0.0,0.0,0.0,0.0,1.5462,1.5981,1.6473,1.6852,1.716,1.7408,1.7541,1.7608,1.7608,1.7608,1.7608,1.7608,1.7608,1.7608,1.7608,1.7608,1.7608,1.7608,1.7608,1.7608,1.7608,1.7608,1.7608,1.7608,1.7608,1.7608,1.7608,1.7608,1.7608,1.7608,1.7608,1.7608,1.7608,1.7608,1.7608,1.7608,1.7608,1.7608,0.0,0.0,1.7608,1.7608,1.7608,1.7608,1.7615,1.7802,1.7829,0.0,2.0071,2.1118,0.0,0.0,2.4314,2.4765,2.6401,2.6296,2.6342,2.7975,2.8291,2.8369,2.8613,2.8799,2.9004,0.0,2.9658,3.0,3.0176,3.043,3.0674,3.0869,3.0723,3.0674,3.0869,3.0889,3.0996,3.124,3.1386,3.1631,3.1885,3.2335,3.256,3.256,3.2939,3.3164,3.3164,3.3308,3.3386,3.3418,3.4341,3.4788,3.4819,3.5755,3.7073,3.8676,4.003,4.1121,4.1968,4.1716,4.2178,4.3002,4.3002,4.3002,4.3002,4.3002,4.3002,4.3002,0.0,0.0,0.0,0.0,0.0,0.0,0.0,0.0,0.0,0.0,1.5808,1.6028,1.664,1.7235,1.7608,1.7608,1.7608,1.7608,1.7608,1.7608,1.7608,1.7608,1.7608,1.7608,1.7608,1.7608,1.7608,1.7608,1.7608,1.7608,1.7608,1.7608,1.7608,1.7608,1.7608,1.7608,1.7608,1.7608,1.7608,1.7608,1.7608,1.7608,1.7608,1.7608,1.7608,1.7608,1.7608,1.7608,1.7608,1.7608,1.7608,1.7622,1.7682,1.7709,1.7762,1.8049,1.8143,1.8734,2.1511,0.0,0.0,2.5129,2.5907,2.6293,2.6616,2.6717,2.6997,2.8067,2.8389,2.8555,2.8867,2.9111,2.9375,2.9725,3.0107,3.0391,3.0391,3.0674,3.0889,3.0889,3.0996,3.1064,3.1064,3.1064,3.124,3.167,3.1807,3.2012,3.2355,3.2744,3.2969,3.2969,3.3262,3.3386,3.3386,3.3386,3.3386,3.3418,3.4581,3.5386,3.5857,3.7944,3.9493,4.0621,4.1076,4.1927,4.2918,4.1757,4.1955,4.3002,4.3002,4.3002,4.3002,4.3002,4.3002,4.3002,0.0,0.0,0.0,0.0,0.0,0.0,0.0,0.0,0.0,0.0,0.0,0.0,0.0,1.7235,1.7608,1.7608,1.7608,1.7608,1.7608,1.7608,1.7608,1.7608,1.7608,1.7608,1.7608,1.7608,1.7608,1.7608,1.7608,1.7608,1.7608,1.7608,1.7608,1.7608,1.7608,1.7608,1.7608,1.7608,1.7608,1.7608,1.7608,1.7608,1.7608,1.7608,1.7608,1.7608,1.7608,1.7608,1.7608,0.0,1.7608,1.7662,1.7909,1.7996,0.0,1.8384,1.8477,0.0,0.0,0.0,2.3823,2.562,2.7149,2.8218,2.8237,2.8237,2.8264,2.8291,2.8613,2.8906,2.8889,2.96,3.0166,3.0176,3.0566,3.0869,3.0869,3.0879,3.0889,3.0889,3.125,3.1474,0.0,3.1474,3.168,3.2149,3.2529,3.2764,3.2773,3.3174,3.3377,3.3377,3.3386,3.3386,3.3386,3.3386,3.3386,3.3386,3.3449,3.4289,3.5928,3.9089,4.0563,4.069,4.2263,4.2946,4.3002,4.2946,4.2946,4.3002,4.3002,4.3002,4.3002,4.3002,4.3002,4.3002,0.0,0.0,0.0,0.0,0.0,0.0,0.0,0.0,0.0,0.0,0.0,0.0,0.0,0.0,0.0,0.0,1.7608,1.7608,1.7608,1.7608,1.7608,1.7608,1.7608,1.7608,1.7608,1.7608,1.7608,1.7608,1.7608,1.7608,1.7608,1.7608,1.7608,1.7608,1.7608,1.7608,1.7608,1.7608,1.7608,1.7608,1.7608,1.7608,1.7608,1.7608,1.7608,1.7609,0.0,1.7862,1.7862,0.0,0.0,0.0,1.831,0.0,0.0,1.8691,0.0,0.0,0.0,0.0,2.4281,2.6905,2.7195,2.7114,2.8067,2.8291,2.8369,2.8652,2.8818,2.9064,2.9668,3.0,3.0293,3.0605,3.0791,3.0889,3.0889,3.0889,3.0996,3.1269,3.1435,0.0,0.0,0.0,0.0,3.2579,3.2715,3.292,3.3193,3.3318,3.3386,3.3386,3.3386,3.3386,3.3386,3.3386,3.3386,3.3418,3.555,3.7435,3.9071,4.1219,4.2194,4.2234,4.2765,4.3002,4.3002,4.3002,4.3002,4.3002,4.3002,4.3002,4.3002,4.3002,4.3002,4.3002,0.0,0.0,0.0,0.0,0.0,0.0,0.0,0.0,0.0,0.0,0.0,0.0,0.0,0.0,0.0,0.0,0.0,1.7608,1.7608,1.7608,1.7608,1.7608,1.7608,1.7608,1.7608,1.7608,1.7608,1.7608,1.7608,1.7608,1.7608,1.7608,1.7608,1.7608,1.7608,1.7608,1.7608,1.7608,1.7608,1.7608,1.7608,1.7608,1.7608,1.7608,1.7608,0.0,1.7909,1.8089,1.8176,0.0,0.0,0.0,0.0,0.0,0.0,0.0,0.0,0.0,0.0,2.3794,2.4516,2.7565,2.7582,2.7132,2.8067,2.8408,2.8594,2.8867,2.916,2.9551,3.0098,3.0332,3.0547,3.084,3.0889,3.0889,3.0889,3.1025,3.1211,3.1484,3.1757,3.2187,0.0,0.0,0.0,3.2998,3.3018,3.3135,3.3377,3.3386,3.3386,3.3386,3.3386,3.3386,3.3386,3.3386,3.3692,3.4289,3.7525,3.9581,4.065,4.2263,4.3002,4.3002,4.3002,4.3002,4.3002,4.3002,4.3002,4.3002,4.3002,4.3002,4.3002,4.3002,4.3002,4.3002,0.0,0.0,0.0,0.0,0.0,0.0,0.0,0.0,0.0,0.0,0.0,0.0,0.0,0.0,0.0,0.0,0.0,0.0,1.7608,1.7608,1.7608,1.7608,1.7608,1.7608,1.7608,1.7608,1.7608,1.7608,1.7608,1.7608,1.7608,1.7608,1.7608,1.7608,1.7608,1.7608,1.7608,1.7608,1.7608,1.7608,1.7608,1.7608,1.7608,1.7608,1.7608,1.7648,1.7922,1.8223,1.8497,0.0,0.0,0.0,0.0,0.0,0.0,0.0,0.0,2.0148,2.3019,2.3794,2.4516,2.7565,2.8237,2.8211,2.832,2.8633,2.8898,2.8947,2.9629,3.0205,0.0,0.0,3.0889,3.0889,3.0889,3.0898,3.0918,3.1269,3.1503,0.0,0.0,0.0,0.0,0.0,0.0,3.3386,3.3386,3.3386,3.3386,3.3386,3.3386,3.3386,3.3386,3.3449,3.3503,3.3503,3.4289,3.5826,3.8982,4.0505,4.065,4.2263,4.3002,4.3002,4.3002,4.3002,4.3002,4.3002,4.3002,4.3002,4.3002,4.3002,4.3002,4.3002,4.3002,4.3002,0.0,0.0,0.0,0.0,0.0,0.0,0.0,0.0,0.0,0.0,0.0,0.0,0.0,0.0,0.0,0.0,0.0,0.0,1.7608,1.7608,1.7608,1.7608,1.7608,1.7608,1.7608,1.7608,1.7608,1.7608,1.7608,1.7608,1.7608,1.7608,1.7608,1.7608,1.7608,1.7608,1.7608,1.7608,1.7608,1.7608,1.7608,1.7608,1.7608,1.7608,1.7608,1.7675,1.819,1.843,1.8524,0.0,0.0,0.0,0.0,1.9334,1.9395,0.0,0.0,2.1451,2.3291,2.3794,2.4516,2.7565,2.7474,2.7017,2.8428,2.882,2.9074,2.9736,3.0049,3.0303,0.0,0.0,0.0,3.0889,3.0889,0.0,3.1309,3.1455,0.0,3.2393,0.0,3.292,3.3232,3.3328,0.0,0.0,3.3386,3.3386,3.3386,3.3386,3.3386,3.3386,3.3386,3.3986,3.518,3.518,3.5386,3.5826,3.7854,3.9434,4.065,4.2263,4.3002,4.3002,4.3002,4.3002,4.3002,4.3002,4.3002,4.3002,4.3002,4.3002,4.3002,4.3002,4.3002,4.3002,0.0,0.0,0.0,0.0,0.0,0.0,0.0,0.0,0.0,0.0,0.0,0.0,0.0,0.0,0.0,0.0,0.0,0.0,0.0,1.7608,1.7608,1.7608,1.7608,1.7608,1.7608,1.7608,1.7608,1.7608,1.7608,1.7608,1.7608,1.7608,1.7608,1.7608,1.7608,1.7608,1.7608,1.7608,1.7608,0.0,0.0,1.7608,1.7608,1.7608,1.7608,1.7689,1.827,1.8685,1.8926,1.9065,0.0,1.9395,1.9395,1.9395,1.9395,1.9395,0.0,2.1095,2.3207,2.3794,2.4516,2.7565,2.7672,2.7389,2.8628,2.9062,2.9394,3.0059,3.0361,0.0,3.084,3.0889,3.0889,0.0,0.0,0.0,3.1425,3.168,3.2051,0.0,3.2959,0.0,3.3367,3.3386,3.3386,0.0,3.3386,3.3386,3.3386,3.3386,3.3386,3.3386,3.3386,3.4164,3.5775,3.6497,3.7224,3.7933,3.954,4.0777,4.1688,4.2585,4.3002,4.3002,0.0,4.3002,4.3002,4.3002,4.3002,4.3002,4.3002,4.3002,4.3002,4.3002,4.3002,4.3002,0.0,0.0,0.0,0.0,0.0,0.0,0.0,0.0,0.0,0.0,0.0,0.0,0.0,0.0,0.0,0.0,0.0,0.0,0.0,0.0,1.7608,1.7608,1.7608,1.7608,1.7608,1.7608,1.7608,1.7608,1.7608,1.7608,1.7608,1.7608,1.7608,1.7608,1.7608,1.7608,1.7608,1.7608,1.7608,1.7608,1.7608,1.7608,1.7608,0.0,0.0,1.7689,1.827,1.8893,1.9395,1.9395,1.9395,1.9395,1.9395,1.9395,1.9395,1.9395,1.9395,2.004,2.2991,2.3794,2.4516,2.7565,2.833,2.8486,2.8906,2.9346,2.9803,3.0205,0.0,3.0889,3.0889,3.0889,3.0889,3.0889,0.0,3.1123,3.1543,3.1982,3.2443,3.2832,3.3203,3.3386,3.3386,3.3386,3.3386,3.3386,3.3386,3.3386,3.3386,3.3386,3.3386,3.3386,3.3818,3.4591,3.5806,3.7615,3.9229,4.0621,4.2024,4.2793,4.3002,4.3002,4.3002,4.3002,4.3002,4.3002,4.3002,4.3002,4.3002,4.3002,4.3002,4.3002,4.3002,4.3002,4.3002,4.3014,0.0,0.0,0.0,0.0,0.0,0.0,0.0,0.0,0.0,0.0,1.6339,0.0,0.0,0.0,0.0,0.0,0.0,0.0,0.0,0.0,0.0,1.7608,1.7608,1.7608,1.7608,1.7608,1.7608,1.7608,1.7608,1.7608,1.7608,1.7608,1.7608,1.7608,1.7608,1.7608,1.7608,1.7608,1.7608,1.7608,1.7608,1.7608,1.7608,1.7608,0.0,0.0,1.827,1.8893,1.9395,1.9395,1.9395,1.9395,1.9395,1.9395,1.9395,1.9395,1.9395,2.004,2.2991,2.3794,2.4516,2.7565,2.8555,2.8926,2.9355,2.9813,0.0,0.0,3.083,3.0889,3.0889,3.0889,3.0889,3.0889,3.1182,3.1562,3.1992,3.2412,3.2842,0.0,3.3347,3.3386,3.3386,3.3386,0.0,0.0,3.3386,3.3386,3.3386,3.3386,3.3386,3.3386,3.598,3.6861,3.5806,3.8705,4.0332,4.0592,4.0892,4.1716,4.3002,4.3002,4.3002,4.3002,4.3002,0.0,4.3002,4.3002,4.3002,4.3002,4.3002,4.3002,4.3002,4.3002,4.3002,4.3065,0.0,0.0,0.0,0.0,0.0,0.0,0.0,0.0,0.0,0.0,1.6213,1.6533,0.0,0.0,0.0,0.0,0.0,0.0,0.0,0.0,0.0,0.0,0.0,0.0,1.7608,1.7608,1.7608,1.7608,0.0,1.7608,1.7608,1.7608,1.7608,1.7608,1.7608,1.7608,1.7608,1.7608,1.7608,1.7608,1.7608,1.7608,0.0,0.0,0.0,0.0,0.0,1.8893,1.9395,1.9395,1.9395,1.9395,1.9395,1.9395,1.9395,1.9395,1.9953,2.1009,2.3215,2.4378,2.5517,2.7762,2.8603,2.9033,2.95,0.0,0.0,0.0,3.0889,3.0889,3.0889,3.0889,3.0889,3.0889,3.124,3.167,3.214,3.256,3.2949,3.3338,3.3386,3.3386,0.0,3.3386,3.3386,3.3386,3.3386,3.3386,3.3386,3.3386,3.3776,3.4612,3.6142,3.7363,3.829,3.9814,4.1007,4.1842,4.1842,4.2263,4.3002,4.3002,4.3002,4.3002,4.3002,4.3002,4.3002,4.3002,4.3002,4.3002,4.3002,4.3002,4.3002,4.3002,4.319,4.3438,0.0,0.0,0.0,0.0,0.0,0.0,0.0,1.5808,1.5808,1.5808,1.6032,1.6286,1.658,1.6959,1.732,0.0,0.0,0.0,0.0,0.0,0.0,0.0,0.0,0.0,0.0,0.0,0.0,1.7608,1.7608,0.0,0.0,0.0,0.0,0.0,1.7608,1.7608,1.7608,1.7608,1.7608,0.0,0.0,1.7608,0.0,0.0,0.0,0.0,0.0,1.8893,1.9395,1.9395,1.9395,1.9395,1.9395,1.9395,1.9453,1.9786,2.0702,2.2004,2.3794,2.5178,2.6481,2.8039,2.874,2.917,2.9637,3.0039,0.0,3.081,3.0889,3.0889,3.0889,3.0889,3.0918,3.1006,3.1377,3.1807,3.2267,3.2666,3.3057,3.3347,3.3386,0.0,3.3386,3.3386,0.0,3.3386,3.3386,3.3386,3.3386,3.3723,3.4497,3.5775,3.6456,3.8052,4.0563,4.0949,4.1757,4.3002,4.3002,4.3002,4.3002,4.3002,4.3002,4.3002,4.3002,4.3002,4.3002,4.3002,4.3002,4.3002,4.3002,4.3002,4.3014,4.314,4.3426,4.3827,0.0,0.0,0.0,0.0,0.0,0.0,0.0,1.5808,1.5808,1.5808,1.5828,1.5961,1.6304,1.6839,1.732,0.0,0.0,0.0,0.0,0.0,0.0,0.0,0.0,0.0,0.0,0.0,0.0,1.7608,1.7608,0.0,0.0,0.0,0.0,0.0,0.0,1.7608,1.7608,1.7608,0.0,0.0,0.0,0.0,0.0,0.0,0.0,0.0,0.0,1.8893,1.9395,1.9395,1.9395,1.9395,1.9395,1.9395,1.9649,2.1002,0.0,0.0,2.5096,2.5982,2.6546,2.8396,2.9189,2.9647,3.0039,0.0,3.084,3.0879,3.0889,3.0889,3.0889,3.0889,3.1016,3.1396,3.1826,3.2286,3.2685,3.3096,3.3347,3.3386,0.0,0.0,3.3386,3.3386,3.3386,3.3386,3.3386,3.3386,3.3386,3.4798,3.5652,3.5806,3.8646,4.0291,4.0592,4.2053,4.2849,4.3002,4.3002,4.3002,4.3002,4.3002,4.3002,4.3002,4.3002,4.3002,0.0,4.3002,4.3002,4.3002,4.3002,4.3002,4.3065,4.3539,4.3765,4.394,0.0,0.0,0.0,0.0,0.0,0.0,0.0,1.5808,1.5808,1.5808,1.5808,1.5921,1.6264,1.6504,1.6857,0.0,0.0,0.0,0.0,0.0,0.0,0.0,0.0,0.0,0.0,0.0,0.0,0.0,1.7608,0.0,0.0,0.0,0.0,0.0,0.0,1.7608,1.7608,1.7608,0.0,0.0,0.0,0.0,0.0,0.0,0.0,0.0,0.0,0.0,1.9395,1.9395,1.9395,0.0,1.9395,1.9395,0.0,0.0,2.223,2.3403,2.5508,2.6744,2.766,2.8645,2.9248,2.9706,3.0098,0.0,3.0889,3.0889,3.0889,3.0889,3.0889,3.0889,3.1025,3.1416,3.1885,3.2345,3.2734,3.3154,3.3386,3.3386,3.3386,3.3386,0.0,0.0,3.3386,3.3386,3.431,3.485,3.485,3.5448,3.6699,3.8616,3.9931,4.1076,4.2053,4.2681,4.3002,4.3002,4.3002,4.3002,4.3002,4.3002,4.3002,4.3002,4.3002,4.3002,0.0,4.3002,4.3002,4.3002,4.3002,4.3215,4.3501,4.3714,4.4229,4.4882,0.0,0.0,0.0,0.0,0.0,0.0,1.5808,1.5808,1.5808,1.5808,1.5808,1.5888,1.6119,1.6244,1.6464,1.6904,0.0,0.0,0.0,0.0,0.0,0.0,0.0,0.0,0.0,0.0,0.0,0.0,0.0,0.0,0.0,0.0,1.7608,1.7608,0.0,0.0,0.0,0.0,0.0,0.0,0.0,0.0,0.0,0.0,0.0,0.0,0.0,0.0,0.0,0.0,0.0,1.9395,1.9395,1.9395,1.9678,2.1173,2.2645,2.4128,2.5681,2.7195,2.8428,2.8975,2.9373,2.9745,0.0,0.0,3.0889,3.0889,3.0889,3.0889,3.0889,3.0889,3.1074,3.1621,3.1963,3.2384,3.29,3.3232,3.3386,3.3386,3.3386,3.3386,3.3386,3.3386,3.3386,3.3386,3.4881,3.601,3.6497,3.6972,3.826,4.0534,4.1064,4.1842,4.2974,4.3002,4.3002,4.3002,4.3002,4.3002,4.3002,4.3002,4.3002,4.3002,4.3002,4.3002,0.0,4.3002,4.3002,4.3027,4.3162,4.3463,4.384,4.4179,4.4807,4.551,0.0,0.0,0.0,0.0,0.0,0.0,0.0,1.5808,1.5808,1.5808,1.5808,1.5808,1.5808,1.6092,1.6304,1.6304,0.0,0.0,0.0,0.0,0.0,0.0,0.0,0.0,0.0,0.0,0.0,0.0,0.0,0.0,0.0,0.0,1.7608,1.7608,0.0,0.0,0.0,0.0,0.0,0.0,0.0,0.0,0.0,0.0,0.0,0.0,0.0,0.0,0.0,0.0,0.0,0.0,0.0,1.9395,1.9678,2.1173,2.2645,2.4128,2.5681,2.7195,2.8496,2.9383,2.9598,2.9833,0.0,3.0889,3.0889,3.0889,3.0889,3.0889,3.0889,3.0889,3.1172,3.2052,3.2198,3.2492,3.3269,3.3386,3.3386,3.3386,3.3386,3.3386,3.3386,3.3386,3.3386,3.3386,3.4881,0.0,3.8093,3.9668,4.0563,4.0592,4.2137,4.2974,4.3002,4.3002,4.3002,4.3002,4.3002,4.3002,4.3002,4.3002,4.3002,4.3002,4.3002,4.3002,0.0,4.3002,4.3002,4.3065,4.3576,4.379,4.394,4.5058,4.5485,4.559,0.0,0.0,0.0,0.0,0.0,0.0,0.0,1.5808,1.5808,1.5808,1.5808,1.5808,1.5808,1.5888,1.6052,1.6277,0.0,0.0,0.0,0.0,0.0,0.0,0.0,0.0,0.0,0.0,0.0,0.0,0.0,0.0,0.0,0.0,0.0,0.0,1.7608,0.0,0.0,0.0,0.0,0.0,0.0,0.0,0.0,0.0,0.0,0.0,0.0,0.0,0.0,0.0,0.0,0.0,0.0,0.0,0.0,1.9953,2.1849,0.0,2.5681,2.7195,2.8496,2.9383,2.9598,2.9833,3.0693,3.0889,3.0889,3.0889,3.0889,3.0889,3.0889,3.0889,3.1201,3.2061,3.2198,3.2492,3.3301,3.3386,3.3386,3.3386,3.3386,3.3386,3.3386,3.3386,3.3386,3.3386,3.5908,3.7645,3.8164,4.0777,4.2234,4.2234,4.2737,4.3002,4.3002,4.3002,4.3002,4.3002,4.3002,4.3002,4.3002,4.3002,4.3002,4.3002,4.3002,4.3002,4.3002,4.3002,4.3002,4.3065,4.3589,4.4028,4.4455,4.5208,4.5723,4.6075,0.0,0.0,0.0,0.0,0.0,0.0,0.0,1.5808,1.5808,1.5808,1.5808,1.5808,1.5808,1.5808,1.5881,1.6086,0.0,0.0,0.0,0.0,0.0,0.0,0.0,0.0,0.0,0.0,0.0,0.0,0.0,0.0,0.0,0.0,0.0,0.0,0.0,0.0,0.0,0.0,0.0,0.0,0.0,0.0,1.7608,0.0,0.0,0.0,0.0,0.0,0.0,0.0,0.0,0.0,0.0,0.0,0.0,0.0,2.1487,0.0,0.0,2.6828,2.8691,2.9422,2.9715,0.0,0.0,3.0889,3.0889,3.0889,3.0889,3.0889,3.0889,3.0889,3.1201,3.2061,3.2198,3.2492,3.3301,3.3386,3.3386,3.3386,3.3386,3.3386,3.3386,3.3386,3.366,3.4258,3.6721,3.845,3.9082,4.1574,4.3002,4.3002,4.3002,4.3002,4.3002,4.3002,4.3002,4.3002,4.3002,4.3002,4.3002,4.3002,4.3002,4.3002,4.3002,4.3002,0.0,4.3002,4.3002,4.3077,4.3815,4.4317,4.469,4.551,4.6012,4.6313,0.0,0.0,0.0,0.0,0.0,0.0,0.0,0.0,0.0,0.0,1.5808,1.5808,1.5808,1.5808,1.5808,0.0,0.0,0.0,0.0,0.0,0.0,0.0,0.0,0.0,0.0,0.0,0.0,0.0,1.7608,1.7608,1.7608,0.0,0.0,0.0,0.0,0.0,0.0,0.0,0.0,0.0,0.0,0.0,0.0,0.0,0.0,0.0,0.0,0.0,0.0,0.0,0.0,0.0,0.0,0.0,0.0,0.0,0.0,0.0,0.0,0.0,0.0,0.0,0.0,0.0,0.0,3.0889,0.0,3.0889,3.0889,3.0889,3.0889,3.0889,3.1201,3.2061,3.2198,3.2492,3.3301,3.3386,3.3386,3.3386,3.3386,3.3386,3.3386,3.3386,3.408,3.5683,3.7284,3.8905,4.0505,4.2137,4.3002,4.3002,4.3002,4.3002,4.3002,4.3002,4.3002,4.3002,4.3002,4.3002,4.3002,4.3002,4.3002,0.0,4.3002,4.3002,4.3002,4.3002,4.3027,4.3165,4.4204,4.4627,4.479,4.5912,4.6313,4.6313,0.0,0.0,0.0,0.0,0.0,0.0,0.0,0.0,0.0,0.0,1.5808,1.5808,1.5808,1.5808,1.5808,0.0,0.0,0.0,0.0,0.0,0.0,0.0,0.0,0.0,0.0,0.0,0.0,1.7608,1.7608,1.7608,1.7608,1.7608,0.0,0.0,0.0,0.0,0.0,0.0,0.0,0.0,0.0,0.0,0.0,0.0,0.0,0.0,1.8384,1.8677,0.0,0.0,0.0,0.0,0.0,0.0,0.0,0.0,2.2322,0.0,0.0,0.0,0.0,0.0,0.0,0.0,0.0,0.0,0.0,0.0,0.0,3.0889,3.0889,3.0889,3.1201,3.2061,3.2198,3.2492,3.3301,3.3386,0.0,3.3386,3.3386,3.3386,3.3386,3.3386,3.408,3.5683,3.7284,3.8905,4.0505,4.2137,4.3002,4.3002,4.3002,4.3002,4.3002,4.3002,4.3002,4.3002,4.3002,4.3002,4.3002,4.3002,4.3002,4.3002,4.3002,4.3002,4.3002,4.3002,4.3253,4.3677,4.4326,4.4895,4.5372,4.605,4.6313,4.6313,0.0,0.0,0.0,0.0,0.0,0.0,0.0,0.0,0.0,0.0,0.0,0.0,0.0,0.0,0.0,0.0,0.0,0.0,0.0,0.0,0.0,0.0,0.0,0.0,0.0,0.0,0.0,0.0,0.0,1.7608,0.0,0.0,0.0,0.0,0.0,0.0,0.0,0.0,0.0,0.0,1.7608,0.0,0.0,0.0,0.0,0.0,1.8149,1.8449,0.0,1.9065,1.9281,1.9395,0.0,0.0,0.0,0.0,2.2576,2.5763,2.4211,2.6442,2.9277,2.954,3.0077,0.0,0.0,0.0,0.0,0.0,0.0,3.0889,3.0889,3.1055,3.1396,0.0,3.2355,3.2685,3.3299,3.3386,3.3386,3.3386,3.3386,3.3692,3.4435,3.4497,3.5478,3.7843,3.8805,4.0001,4.1602,4.2528,4.3002,4.3002,4.3002,4.3002,4.3002,4.3002,4.3002,4.3002,4.3002,4.3002,4.3002,4.3002,4.3002,4.3002,4.3002,4.3002,4.3002,4.3002,4.3313,4.3853,4.4376,4.4982,4.5547,4.61,4.6313,4.6313,0.0,0.0,0.0,0.0,0.0,0.0,0.0,0.0,0.0,0.0,0.0,0.0,0.0,0.0,0.0,0.0,0.0,0.0,0.0,0.0,0.0,0.0,0.0,0.0,0.0,0.0,0.0,0.0,0.0,0.0,0.0,0.0,0.0,0.0,0.0,0.0,0.0,0.0,0.0,0.0,1.7608,0.0,0.0,0.0,0.0,0.0,0.0,0.0,0.0,1.8878,1.9158,1.9395,1.9395,0.0,0.0,0.0,0.0,0.0,2.4211,2.6632,2.9598,2.9598,3.0263,3.0889,0.0,0.0,0.0,0.0,0.0,0.0,3.0976,3.1279,0.0,0.0,0.0,3.3018,3.3338,3.3386,3.3386,3.3386,3.3386,3.4017,3.5652,3.5806,3.7122,4.0361,4.0592,4.1305,4.2918,4.3002,4.3002,4.3002,4.3002,4.3002,4.3002,4.3002,4.3002,4.3002,4.3002,4.3002,4.3002,4.3002,4.3002,4.3002,0.0,0.0,4.3002,4.3002,4.335,4.3978,4.4414,4.5033,4.5673,4.6137,4.6313,4.6313,0.0,0.0,0.0,0.0,0.0,0.0,0.0,0.0,0.0,0.0,0.0,0.0,0.0,0.0,0.0,0.0,0.0,0.0,0.0,0.0,0.0,0.0,0.0,0.0,0.0,0.0,0.0,0.0,0.0,0.0,1.7608,1.7608,1.7608,0.0,0.0,0.0,0.0,0.0,0.0,0.0,1.7608,0.0,0.0,0.0,0.0,0.0,0.0,0.0,0.0,1.9147,1.9361,1.9395,1.9395,0.0,0.0,0.0,0.0,0.0,2.4211,2.6632,2.9598,2.9598,3.0263,3.0889,3.0889,3.0889,0.0,0.0,0.0,0.0,0.0,3.1475,3.1777,0.0,0.0,3.3318,3.3377,0.0,3.3386,3.3386,3.3386,3.4017,3.5652,3.5806,3.7122,4.0361,4.0592,4.1305,4.2918,4.3002,4.3002,4.3002,4.3002,4.3002,4.3002,4.3002,4.3002,4.3002,4.3002,4.3002,4.3002,4.3002,4.3002,4.3002,0.0,4.3002,4.3002,4.3002,4.3576,4.4476,4.4564,4.5242,4.62,4.6276,4.6313,4.6313,0.0,0.0,0.0,0.0,0.0,0.0,0.0,0.0,0.0,0.0,0.0,0.0,0.0,0.0,0.0,0.0,0.0,0.0,0.0,0.0,0.0,0.0,0.0,0.0,0.0,0.0,0.0,0.0,0.0,1.7608,1.7608,1.7608,1.7608,1.7608,0.0,0.0,0.0,0.0,0.0,0.0,0.0,0.0,0.0,0.0,0.0,0.0,0.0,0.0,0.0,0.0,1.9261,1.9395,1.9395,0.0,0.0,0.0,0.0,0.0,2.4211,2.6632,2.9598,2.9598,0.0,3.0889,3.0889,3.0889,0.0,0.0,0.0,0.0,0.0,0.0,3.2148,3.2998,0.0,3.3386,3.3386,3.3386,3.3386,0.0,3.3386,3.4383,3.6861,3.7103,3.8439,4.1659,4.1899,4.2234,4.2946,4.3002,4.3002,4.3002,4.3002,4.3002,4.3002,4.3002,4.3002,4.3002,4.3002,4.3002,4.3002,4.3002,4.3002,4.3002,0.0,4.3002,4.3002,4.3002,4.3627,4.4589,4.4589,4.5292,4.6313,4.6313,4.6313,4.6313,0.0,0.0,0.0,0.0,0.0,0.0,0.0,0.0,0.0,0.0,0.0,0.0,0.0,0.0,0.0,0.0,0.0,0.0,0.0,0.0,0.0,0.0,0.0,0.0,0.0,0.0,0.0,1.7608,1.7608,1.7608,1.7608,1.7608,1.7608,0.0,0.0,0.0,0.0,0.0,0.0,0.0,0.0,0.0,0.0,0.0,0.0,0.0,0.0,0.0,0.0,0.0,0.0,0.0,0.0,0.0,0.0,2.0256,2.285,2.5863,2.4765,2.6992,2.9618,2.9715,0.0,3.0889,3.0889,0.0,0.0,0.0,0.0,0.0,0.0,3.21,3.2676,3.3289,3.3386,3.3386,3.3386,3.3386,3.3386,3.3386,3.3386,3.4653,3.7895,3.8194,3.9522,4.2765,4.3002,4.3002,4.3002,4.3002,4.3002,4.3002,4.3002,4.3002,4.3002,4.3002,4.3002,4.3002,4.3002,4.3002,4.3002,4.3002,4.3002,4.3002,4.3002,4.3002,4.3014,4.3152,4.374,4.4614,4.4769,4.5405,4.6313,4.6313,4.6313,4.6313,0.0,0.0,0.0,0.0,0.0,0.0,0.0,0.0,0.0,0.0,0.0,0.0,0.0,0.0,0.0,0.0,0.0,0.0,0.0,0.0,0.0,0.0,0.0,0.0,0.0,1.7608,1.7608,1.7608,1.7608,1.7608,1.7608,1.7608,1.7608,1.7608,0.0,0.0,0.0,0.0,0.0,0.0,0.0,0.0,0.0,0.0,0.0,0.0,0.0,0.0,0.0,0.0,0.0,0.0,0.0,0.0,2.1586,2.1472,2.3646,2.6154,2.6431,2.8014,2.9686,3.0049,3.0527,0.0,3.0889,3.0889,0.0,3.0889,0.0,0.0,0.0,3.2783,3.3318,3.3377,3.3386,3.3386,3.3386,0.0,3.3386,3.3386,3.3386,3.4653,3.7895,3.8194,3.9522,4.2765,4.3002,4.3002,4.3002,4.3002,4.3002,4.3002,4.3002,4.3002,4.3002,4.3002,4.3002,4.3002,4.3002,4.3002,4.3002,4.3002,4.3002,4.3002,4.3002,4.3002,4.3052,4.3526,4.4091,4.4652,4.5221,4.5786,4.6313,4.6313,4.6313,4.6313,0.0,0.0,0.0,0.0,0.0,0.0,0.0,0.0,0.0,0.0,0.0,0.0,0.0,0.0,0.0,0.0,0.0,0.0,0.0,0.0,0.0,0.0,0.0,1.7608,1.7608,1.7608,1.7608,1.7608,1.7608,1.7608,1.7608,1.7608,0.0,0.0,0.0,0.0,0.0,0.0,0.0,0.0,0.0,0.0,0.0,0.0,0.0,0.0,0.0,0.0,0.0,0.0,1.9395,1.9395,1.9395,1.9786,2.0422,2.1337,2.3067,2.4962,2.6328,2.8126,2.9706,3.0098,3.0547,0.0,0.0,3.0889,3.0889,3.0889,3.123,0.0,0.0,0.0,3.3386,3.3386,3.3386,3.3386,3.3386,3.3386,3.3386,3.3386,3.4279,3.5755,3.7985,3.9111,4.0621,4.2821,4.3002,4.3002,4.3002,4.3002,4.3002,4.3002,4.3002,4.3002,4.3002,4.3002,4.3002,4.3002,4.3002,4.3002,4.3002,4.3002,4.3002,4.3002,4.3002,4.3002,4.3052,4.3576,4.4129,4.469,4.5635,4.6125,4.618,4.5074,4.4694,4.4694,0.0,0.0,0.0,0.0,0.0,0.0,0.0,0.0,0.0,0.0,0.0,0.0,0.0,0.0,0.0,0.0,0.0,0.0,0.0,0.0,0.0,0.0,0.0,1.7608,1.7608,1.7608,1.7608,1.7608,1.7608,1.7608,1.7608,0.0,0.0,0.0,0.0,0.0,0.0,0.0,0.0,0.0,0.0,0.0,0.0,0.0,0.0,0.0,0.0,0.0,0.0,0.0,1.9395,1.9395,1.9395,1.9729,2.0364,2.187,2.3339,2.4987,2.7039,2.8593,2.9735,3.0273,0.0,0.0,3.0889,3.0889,3.0889,3.0889,3.1338,0.0,0.0,0.0,0.0,0.0,3.3386,3.3386,3.3386,3.3386,3.3386,3.3386,3.4819,3.6437,3.8033,3.9651,4.1276,4.289,4.3002,4.3002,4.3002,4.3002,4.3002,4.3002,4.3002,4.3002,4.3002,4.3002,4.3002,4.3002,4.3002,4.3002,4.3002,4.3002,4.3002,4.3002,4.3002,4.3002,4.3065,4.3765,4.4464,4.5204,4.6012,4.5956,4.5342,4.4146,4.3376,4.2895,0.0,0.0,0.0,0.0,0.0,0.0,0.0,0.0,0.0,0.0,0.0,0.0,0.0,0.0,0.0,0.0,0.0,0.0,0.0,0.0,0.0,0.0,0.0,1.7608,1.7608,1.7608,1.7608,1.7608,1.7608,1.7608,1.7608,1.7608,0.0,0.0,0.0,0.0,0.0,0.0,0.0,0.0,0.0,0.0,0.0,0.0,0.0,0.0,0.0,0.0,0.0,0.0,1.9395,1.9395,1.9395,2.0393,2.1862,2.3347,2.4875,2.6582,2.8956,2.9598,2.9813,3.0664,0.0,0.0,3.0889,3.0898,3.0898,3.0908,0.0,3.2462,3.324,0.0,0.0,3.3386,3.3386,3.3386,3.3386,3.3386,3.3386,3.3386,3.4819,3.6437,3.8015,3.9651,4.1248,4.2862,4.2974,4.3002,4.3002,4.3002,4.3002,4.3002,4.3002,4.3002,4.3002,4.3002,4.3002,4.3002,4.3002,4.3002,4.3002,4.3002,4.3002,4.3002,4.3002,4.3002,4.3102,4.4179,4.5267,4.6313,4.6313,4.5239,4.3688,4.3688,4.2612,4.1181,0.0,0.0,0.0,0.0,0.0,0.0,0.0,0.0,0.0,0.0,0.0,0.0,0.0,0.0,0.0,0.0,0.0,0.0,0.0,0.0,0.0,0.0,0.0,0.0,0.0,0.0,1.7608,1.7608,1.7608,1.7608,0.0,0.0,0.0,1.7608,0.0,0.0,0.0,0.0,0.0,0.0,0.0,1.7608,0.0,0.0,0.0,0.0,0.0,0.0,0.0,0.0,0.0,0.0,1.9395,1.97,2.0537,2.3075,2.4128,2.5242,2.8668,2.9598,0.0,3.0664,0.0,0.0,0.0,3.1123,0.0,0.0,3.2432,3.2773,3.3289,0.0,0.0,3.3386,3.3386,3.3386,3.3386,3.3386,3.3386,3.3386,3.4819,3.599,3.6467,3.8982,4.0806,4.1276,4.2347,4.3002,4.3002,4.3002,4.3002,4.3002,4.3002,4.3002,4.3002,4.3002,4.3002,4.3002,4.3002,4.3002,4.3002,4.3002,4.3002,4.3002,4.3002,4.32,4.3639,4.4769,4.566,4.6313,4.6313,4.5239,4.3563,4.2391,4.0848,3.9376,0.0,0.0,0.0,0.0,0.0,0.0,0.0,0.0,0.0,0.0,0.0,0.0,0.0,0.0,0.0,0.0,0.0,0.0,0.0,0.0,0.0,0.0,0.0,0.0,0.0,1.7608,1.7608,0.0,0.0,0.0,0.0,0.0,0.0,1.7608,0.0,1.7608,0.0,0.0,0.0,1.7608,1.7608,1.7608,1.7615,0.0,0.0,0.0,0.0,0.0,0.0,0.0,0.0,0.0,1.9395,1.9815,2.073,2.3103,2.4348,2.5637,2.8743,2.9715,0.0,3.0713,3.0889,3.0976,3.1348,0.0,0.0,0.0,3.2685,3.292,3.334,3.3386,0.0,3.3386,3.3386,3.3386,3.3386,3.3386,3.3386,3.3386,3.4819,3.5806,3.5806,3.8705,4.0592,4.0592,4.2081,4.3002,4.3002,4.3002,4.3002,4.3002,4.3002,4.3002,4.3002,4.3002,4.3002,4.3002,4.3002,4.3002,4.3002,4.3002,4.3002,4.3014,4.324,4.3752,4.4531,4.5208,4.5811,4.621,4.5537,4.422,4.2517,4.0795,3.9059,3.7575,0.0,0.0,0.0,0.0,0.0,0.0,0.0,0.0,0.0,0.0,1.2885,0.0,0.0,0.0,0.0,0.0,0.0,0.0,0.0,0.0,0.0,0.0,0.0,0.0,0.0,0.0,0.0,0.0,0.0,0.0,0.0,0.0,1.7608,1.7608,0.0,1.7608,0.0,1.7608,1.7608,1.7608,1.7608,1.7608,1.7615,1.7929,0.0,0.0,0.0,0.0,0.0,0.0,0.0,0.0,1.9395,2.0422,2.189,2.3375,2.5188,2.7113,2.9081,2.9873,3.0303,3.0771,3.0889,0.0,3.1954,3.1836,3.1709,3.2218,0.0,3.2969,3.3318,3.3386,3.3386,3.3386,3.3386,3.3386,3.3386,3.3386,3.3386,3.3386,3.4705,3.5591,3.5591,3.8498,4.0378,4.0378,4.2024,4.3002,4.3002,4.3002,4.3002,4.3002,4.3002,4.3002,4.3002,4.3002,4.3002,4.3002,4.3002,4.3002,4.3002,4.3002,4.3027,4.3115,4.3639,4.4493,4.5485,4.5547,4.5759,4.5926,4.43,4.258,4.0763,3.919,3.7508,3.5982,0.0,0.0,0.0,0.0,0.0,0.0,0.0,0.0,0.0,0.0,0.0,0.0,0.0,0.0,0.0,0.0,0.0,0.0,0.0,0.0,0.0,0.0,0.0,0.0,0.0,0.0,0.0,0.0,0.0,0.0,0.0,0.0,0.0,1.7608,0.0,1.7608,1.7608,1.7608,1.7608,1.7608,1.7608,1.7608,1.7668,1.819,0.0,0.0,0.0,0.0,0.0,0.0,0.0,0.0,1.9395,2.0422,2.189,2.3375,2.5188,2.7113,2.9081,2.9873,3.0303,3.0771,3.0889,3.1025,3.1543,3.1846,3.2276,3.2998,3.3223,3.331,3.3377,3.3386,3.3386,3.3386,3.3386,3.3386,3.3386,3.3386,3.3386,3.3386,3.3723,3.3923,3.3923,3.6842,3.8728,3.8728,4.1374,4.3002,4.3002,4.3002,4.3002,4.3002,4.3002,4.3002,4.3002,4.3002,4.3002,4.3002,4.3002,4.3002,4.3002,4.3002,4.324,4.3652,4.4204,4.4844,4.5522,4.5949,4.5396,4.4208,4.3855,4.184,3.9114,3.8729,3.7508,3.5982,0.0,0.0,0.0,0.0,0.0,0.0,0.0,0.0,0.0,0.0,0.0,0.0,0.0,0.0,0.0,0.0,0.0,0.0,0.0,0.0,0.0,0.0,0.0,0.0,0.0,0.0,0.0,0.0,0.0,0.0,0.0,0.0,0.0,1.7608,0.0,1.7608,1.7608,1.7608,1.7608,1.7608,1.7608,1.7669,1.7829,0.0,0.0,0.0,0.0,0.0,0.0,0.0,0.0,0.0,0.0,0.0,2.2786,2.3571,2.5848,2.8304,2.9335,3.0067,3.0586,3.083,3.0889,3.1055,3.1689,3.2032,3.2443,3.322,3.3386,3.3386,3.3386,3.3386,3.3386,3.3386,3.3386,3.3386,3.3386,3.3386,3.3386,3.3386,3.3386,3.3386,3.3386,3.6306,3.8194,3.8194,4.1191,4.3002,4.3002,4.3002,4.3002,4.3002,4.3002,4.3002,4.3002,4.3002,4.3002,4.3002,4.3002,4.3002,4.3002,4.3002,4.3426,4.4217,4.4476,4.5095,4.5839,4.528,4.4528,4.3532,4.1904,4.017,3.8509,3.7665,3.6765,3.5982,0.0,0.0,0.0,0.0,0.0,0.0,0.0,0.0,0.0,0.0,0.0,0.0,0.0,0.0,0.0,0.0,0.0,0.0,0.0,0.0,0.0,0.0,0.0,0.0,0.0,0.0,0.0,0.0,0.0,0.0,0.0,0.0,0.0,1.7608,0.0,0.0,1.7608,1.7608,1.7642,1.7662,1.7662,1.7849,0.0,0.0,0.0,0.0,0.0,0.0,1.9395,1.9395,0.0,0.0,0.0,0.0,2.3794,2.3794,2.6558,2.9598,2.9598,3.0243,3.0889,3.0889,3.0889,3.1113,3.2003,3.2198,3.2443,3.322,3.3386,3.3386,3.3386,3.3386,3.3386,3.3386,3.3386,3.3386,3.3386,3.3386,3.3386,3.3386,3.3386,3.3386,3.3386,3.6306,3.8194,3.8194,4.1191,4.3002,4.3002,4.3002,4.3002,4.3002,4.3002,4.3002,4.3002,4.3002,4.3002,4.3002,4.3002,4.3002,4.2974,4.2769,4.3241,4.4199,4.4573,4.5009,4.5342,4.4177,4.3345,4.2537,3.9693,3.8409,3.7988,3.6539,3.5982,3.5982,0.0,0.0,0.0,0.0,0.0,0.0,0.0,0.0,0.0,0.0,0.0,0.0,0.0,0.0,0.0,0.0,0.0,0.0,0.0,0.0,0.0,0.0,0.0,0.0,0.0,0.0,0.0,0.0,0.0,0.0,0.0,0.0,0.0,1.7608,0.0,0.0,0.0,1.7608,1.7736,1.7962,1.7962,1.8136,0.0,0.0,0.0,0.0,0.0,0.0,0.0,0.0,1.9395,0.0,0.0,0.0,2.3794,2.3794,2.6558,2.9598,2.9598,3.0243,3.0889,3.0889,3.0889,3.1113,3.2003,3.2198,3.2443,3.322,3.3386,3.3386,3.3386,3.3386,3.3386,3.3386,3.3386,3.3386,3.3386,3.3386,3.3386,3.3386,3.3386,3.3386,3.3386,3.6306,3.8194,3.8194,4.1191,4.3002,4.3002,4.3002,4.3002,4.3002,4.3002,4.3002,4.3002,4.3002,4.3002,4.3002,4.3002,4.3002,4.2958,4.1921,4.1797,4.2526,4.4531,4.4044,4.1979,4.322,4.1956,3.9245,3.8795,3.7665,3.6311,3.6084,3.5982,3.5982,0.0,0.0,0.0,0.0,0.0,0.0,0.0,0.0,0.0,0.0,0.0,0.0,0.0,0.0,0.0,0.0,0.0,0.0,0.0,0.0,0.0,0.0,0.0,0.0,0.0,0.0,0.0,0.0,0.0,0.0,0.0,1.7608,1.7608,0.0,0.0,0.0,0.0,0.0,0.0,0.0,0.0,0.0,0.0,0.0,0.0,0.0,0.0,0.0,0.0,0.0,0.0,1.9533,2.0364,0.0,0.0,0.0,2.74,2.9706,3.0204,3.0625,3.0889,3.0889,3.0889,3.1113,3.2003,3.2198,3.2443,3.322,3.3386,3.3386,3.3386,3.3386,3.3386,3.3386,3.3386,3.3386,3.3386,3.3386,3.3386,3.3386,3.3386,3.3386,3.3386,3.6306,3.8194,3.8194,4.1191,4.3002,4.3002,4.3002,4.3002,4.3002,4.3002,4.3002,4.3002,4.3002,4.3002,4.3002,4.3002,4.3002,4.2971,4.2105,4.1846,4.2107,4.2435,4.2043,4.1181,4.0945,3.9953,3.8509,3.7508,3.6664,3.5982,3.5982,3.5982,3.5982,0.0,0.0,0.0,0.0,0.0,0.0,0.0,0.0,0.0,0.0,0.0,0.0,0.0,0.0,0.0,0.0,0.0,0.0,0.0,0.0,0.0,0.0,0.0,0.0,0.0,0.0,0.0,0.0,0.0,0.0,1.7608,1.7608,1.7648,0.0,1.7702,0.0,0.0,0.0,0.0,0.0,0.0,0.0,0.0,0.0,0.0,0.0,0.0,0.0,0.0,0.0,0.0,0.0,0.0,2.287,0.0,0.0,0.0,2.9931,3.0674,3.0889,3.0889,3.0889,3.0889,3.1113,3.2003,3.2198,3.2443,3.322,3.3386,3.3386,3.3386,3.3386,3.3386,3.3386,3.3386,3.3386,3.3386,3.3386,3.3386,3.3386,3.3386,3.3386,3.3386,3.5939,3.7764,3.8164,4.0806,4.2557,4.2974,4.3002,4.3002,4.3002,4.3002,4.3002,4.3002,4.3002,4.3002,4.3002,4.3002,4.2793,4.2344,4.1602,4.1117,4.0812,4.0623,4.0291,3.979,3.896,3.8343,3.7798,3.6505,3.5982,3.5982,3.5982,3.5982,3.5982,0.0,0.0,0.0,0.0,0.0,0.0,0.0,0.0,0.0,0.0,0.0,0.0,0.0,0.0,0.0,0.0,0.0,0.0,0.0,0.0,0.0,0.0,0.0,0.0,0.0,0.0,0.0,0.0,0.0,0.0,1.7608,1.7608,1.7742,1.7969,1.7969,1.7975,1.8009,0.0,0.0,0.0,0.0,0.0,0.0,0.0,0.0,0.0,0.0,0.0,0.0,0.0,0.0,0.0,0.0,0.0,0.0,0.0,0.0,0.0,3.0762,3.0889,3.0889,3.0889,3.0889,3.1113,3.2003,3.2198,3.2443,3.322,3.3386,3.3386,3.3386,3.3386,3.3386,3.3386,3.3386,3.3386,3.3386,3.3386,3.3386,3.3386,3.3386,3.3386,3.3386,3.4943,3.6558,3.8104,3.9768,4.1391,4.2918,4.3002,4.3002,4.3002,4.3002,4.3002,4.3002,4.3002,4.3002,4.3002,4.3002,4.2206,4.0673,3.9572,3.8424,3.7509,4.0053,3.9289,3.6379,3.7965,3.7632,3.6118,3.6059,3.5982,3.5982,3.5982,3.5982,3.5982,0.0,0.0,0.0,0.0,0.0,0.0,0.0,0.0,0.0,0.0,0.0,0.0,0.0,0.0,0.0,0.0,0.0,0.0,0.0,0.0,0.0,0.0,0.0,0.0,0.0,0.0,0.0,0.0,0.0,1.7689,1.7856,1.7856,1.8016,1.8296,1.8103,1.8229,1.8589,1.8696,0.0,0.0,0.0,0.0,0.0,0.0,0.0,0.0,0.0,0.0,0.0,0.0,0.0,0.0,0.0,0.0,0.0,0.0,0.0,3.0674,3.084,3.0889,3.0889,3.0889,3.0889,3.1113,3.2003,3.2198,3.2443,3.322,3.3386,3.3386,3.3386,3.3386,3.3386,3.3386,3.3386,3.3386,3.3386,3.3386,3.3386,3.3386,3.3386,3.3386,3.3386,3.485,3.6467,3.8074,3.9698,4.1305,4.2918,4.3002,4.3002,4.3002,4.3002,4.25,4.1488,4.146,4.146,4.146,4.146,4.1162,4.0529,3.8345,3.7253,3.7094,3.7362,3.693,3.605,3.6664,3.6573,3.5982,3.5982,3.5982,3.5982,3.5982,3.5982,3.5982,0.0,0.0,0.0,0.0,0.0,0.0,0.0,0.0,0.0,0.0,0.0,0.0,0.0,0.0,0.0,0.0,0.0,0.8912,0.8912,0.0,0.0,0.0,0.0,0.0,0.0,0.0,0.0,0.0,0.0,0.0,0.0,1.8123,1.8323,1.8624,1.8403,1.8529,0.0,0.0,0.0,1.9395,0.0,0.0,1.9395,0.0,0.0,0.0,0.0,0.0,0.0,0.0,0.0,0.0,0.0,0.0,0.0,0.0,0.0,0.0,3.0889,3.0889,3.0889,3.0889,3.0889,3.1074,3.1787,3.2091,3.2394,3.3066,3.333,3.3386,3.3386,3.3386,3.3386,3.3386,3.3386,3.3386,3.3386,3.3386,3.3386,3.3386,3.3386,3.3386,3.3386,3.4383,3.5878,3.8045,3.92,4.0748,4.289,4.25,4.2194,4.2194,4.2194,4.1688,4.0621,4.0059,3.9797,3.9797,3.9797,3.9522,3.8935,3.7116,3.6217,3.6046,3.5445,3.5488,3.5982,3.5982,3.5982,3.5982,3.5982,3.5982,3.5982,3.5982,3.5982,3.5982,0.0,0.0,0.0,0.0,0.0,0.0,0.0,0.0,0.0,0.0,0.0,0.0,0.0,0.0,0.0,0.0,0.0,0.8912,0.8912,0.8912,0.0,0.0,0.0,0.0,0.0,0.0,0.0,0.0,0.0,0.0,0.0,0.0,1.8657,0.0,1.891,1.891,1.893,0.0,1.9395,1.9395,0.0,1.9395,1.9395,0.0,0.0,0.0,1.9395,1.943,0.0,0.0,0.0,0.0,0.0,0.0,0.0,0.0,0.0,0.0,0.0,0.0,0.0,3.0889,3.0889,3.0996,3.1426,3.1855,3.2316,3.2715,3.3135,3.3386,3.3386,3.3386,3.3386,3.3386,3.3386,3.3386,3.3386,3.3386,3.3386,3.3386,3.3386,3.3386,3.3386,3.3386,3.4715,3.7895,3.8134,3.9522,4.2765,4.146,4.0563,4.0534,4.0476,4.0448,4.0448,3.8905,3.8134,3.8134,3.8134,3.7314,3.5806,3.5745,3.5126,3.4124,3.4502,3.5176,3.5952,3.5972,3.5982,3.5982,3.5982,3.5982,3.5982,3.5982,3.5982,3.5982,0.0,0.0,0.0,0.0,0.0,0.0,0.0,0.0,0.0,0.0,0.0,0.0,0.0,0.0,0.0,0.0,0.0,0.8912,0.8912,0.8912,0.9565,1.1055,1.1105,1.2267,1.477,0.0,0.0,0.0,0.0,0.0,0.0,0.0,0.0,0.0,1.9274,1.9274,1.9281,1.9361,0.0,0.0,1.9395,1.9395,0.0,0.0,0.0,0.0,0.0,2.0258,0.0,0.0,2.4048,2.6772,0.0,0.0,0.0,0.0,0.0,0.0,3.0889,0.0,0.0,0.0,0.0,0.0,3.1426,3.1855,3.2316,3.2715,3.3135,3.3386,3.3386,3.3386,3.3386,3.3386,3.3386,3.3386,3.3386,3.3386,3.3386,3.3386,3.3386,3.3386,3.3386,3.3386,3.4258,3.6325,3.6467,3.7873,4.1093,4.0834,4.0059,3.8905,3.7723,3.7122,3.7122,3.668,3.6467,3.6467,3.6467,3.6223,3.5775,3.4581,3.4077,3.4114,3.4231,3.456,3.5117,3.5752,3.5982,3.5982,3.5982,3.5982,3.5982,3.5982,3.5982,3.5982,0.0,0.0,0.0,0.0,0.0,0.0,0.0,0.0,0.0,0.0,0.0,0.0,0.0,0.0,0.0,0.0,0.8912,0.8912,0.8912,0.8912,0.9292,1.0131,1.0781,1.2159,1.4475,1.5254,0.0,0.0,0.0,0.0,0.0,0.0,0.0,0.0,0.0,0.0,0.0,0.0,0.0,0.0,1.9395,0.0,0.0,1.9395,1.9475,0.0,0.0,0.0,2.2486,2.3113,2.5528,0.0,0.0,0.0,0.0,0.0,0.0,0.0,0.0,0.0,0.0,0.0,0.0,0.0,3.1201,3.1728,3.2267,3.2511,3.3008,3.3386,3.3386,3.3386,3.3386,3.3386,3.3386,3.3386,3.3386,3.3386,3.3386,3.3386,3.3386,3.3386,3.3386,3.3386,3.408,3.5683,3.5806,3.6608,3.8498,3.9218,3.8864,3.7254,3.6284,3.5806,3.5806,3.5119,3.4788,3.4788,3.4788,3.4788,3.4757,3.3839,3.3555,3.3809,3.3994,3.4241,3.4492,3.5185,3.5586,3.5771,3.5913,3.5982,3.5982,3.5982,3.5982,3.5982,0.0,0.0,0.0,0.0,0.0,0.0,0.0,0.0,0.0,0.0,0.0,0.0,0.0,0.0,0.0,0.0,0.8912,0.8919,0.8933,0.8933,0.8943,0.896,1.0351,1.1763,1.3069,1.4959,1.656,0.0,0.0,0.0,0.0,0.0,0.0,0.0,0.0,0.0,0.0,0.0,0.0,1.9395,1.9395,1.9395,0.0,0.0,1.9579,0.0,1.9833,2.1201,2.3294,2.4989,2.7429,0.0,0.0,0.0,0.0,0.0,3.0889,0.0,0.0,0.0,0.0,0.0,0.0,0.0,3.0889,3.1514,3.214,3.2189,3.2803,3.3369,3.3377,3.3386,3.3386,3.3386,3.3386,3.3386,3.3386,3.3386,3.3386,3.3386,3.3386,3.3386,3.3386,3.3386,3.3986,3.5417,3.5714,3.5714,3.553,3.7073,3.7194,3.5591,3.553,3.553,3.553,3.4101,3.3386,3.3386,3.3386,3.3386,3.3386,3.3386,3.3386,3.3416,3.3828,3.4036,3.4033,3.4453,3.4902,3.5351,3.5732,3.5869,3.5869,3.5869,3.5869,3.5869,0.0,0.0,0.0,0.0,0.0,0.0,0.0,0.0,0.0,0.0,0.0,0.0,0.0,0.0,0.0,0.0,0.0,0.896,0.0,0.9141,0.9196,0.9289,1.0646,1.1545,1.1829,1.4628,1.6306,1.6802,1.8222,1.9045,0.0,0.0,0.0,0.0,0.0,0.0,0.0,0.0,0.0,1.9395,1.9395,0.0,1.9421,1.9626,1.9746,1.9826,2.003,2.225,2.5517,0.0,3.0151,3.0693,0.0,0.0,0.0,0.0,0.0,0.0,0.0,0.0,0.0,0.0,0.0,0.0,3.0889,3.1279,3.1738,3.213,3.2568,3.3027,3.3328,3.3386,3.3386,3.3386,3.3386,3.3386,3.3386,3.3386,3.3386,3.3386,3.3386,3.3386,3.3386,3.3386,3.3544,3.3839,3.5057,3.5232,3.3923,3.5386,3.554,3.3923,3.387,3.387,3.387,3.3576,3.3386,3.3386,3.3386,3.3386,3.3386,3.3386,3.3386,3.3396,3.3516,3.3545,3.3584,3.4014,3.4453,3.4844,3.4922,3.4961,3.4961,3.4961,3.4961,3.4961,0.0,0.0,0.0,0.0,0.0,0.0,0.0,0.0,0.0,0.0,0.0,0.0,0.0,0.0,0.0,0.0,0.0,0.0,0.0,0.0,0.9328,0.9407,1.0743,1.188,1.268,1.5064,1.6769,1.7691,1.8658,1.9247,1.9395,0.0,0.0,0.0,0.0,0.0,0.0,0.0,1.9615,1.9615,1.9615,0.0,1.9619,1.9907,2.0107,2.0375,2.1325,2.3957,2.7398,3.0022,3.0889,0.0,0.0,3.0889,3.0889,0.0,3.0889,3.0889,0.0,0.0,0.0,3.0889,0.0,0.0,0.0,3.1211,3.1582,3.1797,3.2353,3.2861,3.3066,3.325,3.3386,3.3386,3.3386,3.3386,3.3386,3.3386,3.3386,3.3386,3.3386,3.3386,3.3386,3.3386,3.3386,3.3386,3.4133,3.4258,3.3449,3.4164,3.4227,3.3418,3.3386,3.3386,3.3386,3.3386,3.3386,3.3386,3.3386,3.3386,3.3386,3.3386,3.3386,3.3386,3.3386,3.3386,3.3406,3.3652,3.3877,3.4101,3.4531,3.4697,3.4697,3.4697,3.4697,3.4697,0.0,0.0,0.0,0.0,0.0,0.0,0.0,0.0,0.0,0.0,0.0,0.0,0.0,0.0,0.0,0.0,0.0,0.0,0.0,0.0,0.0,0.9462,1.0874,1.2252,1.3542,1.5563,1.7238,1.8535,1.913,1.9395,1.9395,1.9395,0.0,0.0,0.0,0.0,0.0,0.0,0.0,1.9887,0.0,1.9933,1.9913,2.0177,2.0645,2.1434,2.3414,2.5956,2.8664,3.0333,0.0,3.0889,3.0889,3.0889,0.0,0.0,0.0,0.0,0.0,0.0,0.0,0.0,0.0,3.0889,0.0,0.0,0.0,3.1474,3.2139,3.2695,3.2783,3.3135,3.3357,3.331,3.3338,3.3357,3.331,3.3338,3.3386,3.3386,3.3386,3.3386,3.3386,3.3386,3.3386,3.3386,3.3386,3.3386,3.3386,3.3386,3.3386,3.3386,3.3386,3.3386,3.3386,3.3386,3.3386,3.3386,3.3386,3.3386,3.3386,3.3386,3.3386,3.3386,3.3386,3.3386,3.3386,3.3386,3.3386,3.3455,3.418,3.4453,3.4453,3.4453,3.4453,3.4453,0.8912,0.8912,0.0,0.0,0.0,0.0,0.0,0.0,0.0,0.0,0.0,0.0,0.0,0.0,0.0,0.0,0.0,0.0,0.9574,0.0,0.0,0.9734,1.1259,1.2209,1.2388,1.5371,1.7038,1.7219,1.8687,1.9395,1.9395,1.9395,0.0,0.0,1.9395,0.0,0.0,0.0,1.9947,0.0,2.0468,2.0421,0.0,2.0514,2.1546,2.3263,2.6602,2.8045,2.8664,0.0,3.0889,3.0889,0.0,3.0889,0.0,0.0,0.0,0.0,0.0,0.0,0.0,0.0,3.0889,0.0,0.0,0.0,3.1064,3.1445,0.0,3.2384,3.2725,0.0,0.0,3.293,3.3174,3.3291,3.292,3.3193,3.3386,3.3386,3.3386,3.3386,3.3386,3.3386,3.3386,3.3386,3.3386,3.3386,3.3386,3.3386,3.3386,3.3386,3.3386,3.3386,3.3386,3.3386,3.3386,3.3386,3.3386,3.3386,3.3386,3.3386,3.3386,3.3386,3.3386,3.3386,3.3386,3.3386,3.3386,3.3396,3.3494,3.3533,3.3533,3.3533,3.3533,3.3533,0.0,0.8912,0.0,0.0,0.0,0.0,0.0,0.0,0.0,0.0,0.0,0.0,0.0,0.0,0.0,0.0,0.0,0.9663,0.0,0.0,0.0,0.0,1.0452,0.0,1.2187,1.4445,1.605,1.6997,1.8613,1.9395,1.9395,1.9395,1.9395,0.0,1.9575,0.0,1.982,0.0,2.0381,0.0,0.0,0.0,0.0,2.0882,2.1963,2.371,2.6147,2.7623,2.8664,0.0,3.0889,0.0,0.0,0.0,0.0,0.0,0.0,0.0,0.0,0.0,0.0,0.0,0.0,0.0,0.0,0.0,3.0947,0.0,0.0,0.0,0.0,0.0,0.0,0.0,3.3144,3.3328,3.3184,3.3279,3.3386,3.3386,3.3386,3.3386,3.3386,3.3386,3.3386,3.3386,3.3386,3.3386,3.3386,3.3386,3.3386,3.3386,3.3386,3.3386,3.3386,3.3386,3.3386,3.3386,3.3386,3.3386,3.3386,3.3386,3.3386,3.3386,3.3386,3.3386,3.3386,3.3386,3.3386,3.3386,3.3386,3.3386,3.3386,3.3386,3.3386,3.3386,0.0,0.0,0.0,0.0,0.0,0.0,0.0,0.0,0.0,0.0,0.0,0.0,0.9781,0.9792,0.0,0.0,0.0,1.0001,0.0,0.0,1.0179,0.0,0.0,0.0,0.0,1.4421,1.5843,1.6997,1.8613,1.9395,1.9395,1.9395,1.9441,0.0,0.0,1.9887,2.0067,0.0,0.0,2.0846,2.1022,2.1109,2.1141,2.1601,2.2796,2.4479,2.6076,2.7683,2.9285,3.0489,3.0889,0.0,3.0889,0.0,0.0,0.0,0.0,0.0,3.0889,0.0,0.0,0.0,0.0,0.0,0.0,0.0,0.0,0.0,0.0,0.0,0.0,0.0,0.0,0.0,0.0,3.3213,3.3096,3.325,3.3386,3.3386,3.3386,3.3386,3.3386,3.3386,3.3386,3.3386,3.3386,3.3386,3.3386,3.3386,3.3386,3.3386,3.3386,3.3386,3.3386,3.3386,3.3386,3.3386,3.3386,3.3386,3.3386,3.3386,3.3386,3.3386,3.3386,3.3386,3.3386,3.3386,3.3386,3.3386,3.3386,3.3386,3.3386,3.3386,3.3386,3.3386,0.9396,0.9396,0.0,0.0,0.0,0.0,0.0,0.0,0.0,0.0,0.0,0.0,0.0,0.0,0.0,0.0,0.0,1.0448,1.2032,0.0,1.1197,0.0,0.0,0.0,0.0,0.0,1.6938,1.6997,1.8613,1.9395,1.9395,1.9395,1.9548,1.9786,1.98,2.0114,2.0679,2.0699,2.0842,2.1096,2.1109,2.1109,2.1292,0.0,2.4509,2.6128,2.7751,0.0,0.0,3.0889,3.0889,0.0,0.0,0.0,0.0,0.0,0.0,0.0,0.0,0.0,0.0,3.0889,0.0,0.0,0.0,0.0,3.0889,0.0,0.0,0.0,0.0,0.0,0.0,0.0,0.0,0.0,0.0,3.291,3.3386,3.3386,3.3386,3.3386,3.3386,3.3386,3.3386,3.3386,3.3386,3.3386,3.3386,3.3386,3.3386,3.3386,3.3386,3.3386,3.3386,3.3386,3.3386,3.3386,3.3386,3.3386,3.3386,3.3386,3.3386,3.3386,3.3386,3.3386,3.3386,3.3386,3.3386,3.3386,3.3386,3.3386,3.3386,3.3386,3.3386,3.3386,0.0,0.0,0.0,0.0,0.0,0.0,0.0,0.9717,0.0,0.0,0.0,0.0,0.0,0.0,0.9792,0.0,0.0,1.1619,1.2157,1.1675,0.0,0.0,0.0,1.2963,0.0,0.0,0.0,0.0,0.0,1.9395,1.9401,1.9589,1.9706,1.982,0.0,2.0518,0.0,0.0,0.0,0.0,0.0,2.1758,2.2834,0.0,0.0,2.4748,2.7452,2.8753,0.0,3.0518,3.0889,3.0889,3.0889,3.0889,3.0889,3.0889,3.0889,0.0,0.0,0.0,3.0889,3.0889,0.0,0.0,0.0,0.0,0.0,0.0,0.0,0.0,0.0,0.0,0.0,0.0,0.0,0.0,0.0,3.2656,3.3105,3.3357,3.3386,3.3386,3.3386,3.3386,3.3386,3.3386,3.3386,3.3386,3.3386,3.3386,3.3386,3.3386,3.3386,3.3386,3.3386,3.3386,3.3386,3.3386,3.3386,3.3386,3.3386,3.3386,3.3386,3.3386,3.3386,3.3386,3.3386,3.3386,3.3386,3.3386,3.3386,3.3386,3.3386,3.3386,3.3386,3.3386,0.9686,0.0,0.0,0.0,0.0,0.0,0.0,0.0,0.0,0.0,0.9792,0.0,0.9792,0.0,1.0031,0.0,1.1585,1.2719,1.3955,1.3414,0.0,1.6361,1.4282,0.0,0.0,0.0,0.0,0.0,0.0,1.9602,1.9679,1.9867,2.0013,2.0127,2.0539,2.0766,2.0842,2.1029,2.1109,0.0,0.0,2.1758,0.0,0.0,2.4817,2.5574,0.0,2.8783,2.9442,3.0548,3.0889,3.0889,3.0889,3.0889,3.0889,3.0889,3.0889,3.0889,3.0889,3.0889,0.0,3.0889,3.0889,0.0,3.0889,0.0,0.0,0.0,0.0,0.0,0.0,0.0,0.0,0.0,0.0,0.0,0.0,3.2433,3.2725,3.3144,3.3299,3.3386,3.3386,3.3386,3.3386,3.3386,3.3386,3.3386,3.3386,3.3386,3.3386,3.3386,3.3386,3.3386,3.3386,3.3386,3.3386,3.3386,3.3386,3.3386,3.3386,3.3386,3.3386,3.3386,3.3386,3.3386,3.3386,3.3386,3.3386,3.3386,3.3386,3.3386,3.3386,3.3386,3.3386,3.3386,0.0,0.0,0.0,0.0,0.9805,0.0,0.0,0.0,0.9812,0.0,0.9812,0.9812,0.9812,0.9903,1.0565,1.2092,1.2393,0.0,1.7199,1.5734,0.0,0.0,1.6574,1.5496,1.7126,0.0,0.0,0.0,0.0,0.0,2.0204,2.0217,2.0377,2.0706,2.0719,0.0,2.1109,2.1109,2.1109,2.1109,2.1109,2.1197,2.1688,2.4824,2.7052,2.8543,2.8516,2.956,3.0898,3.0918,3.0918,3.0928,3.0947,3.0957,3.0957,3.0957,3.0957,3.0957,3.0957,3.0957,3.0957,3.0957,0.0,0.0,0.0,0.0,3.1064,0.0,0.0,0.0,0.0,0.0,0.0,0.0,0.0,0.0,0.0,0.0,3.2355,3.2744,3.3164,3.3386,3.3386,3.3386,3.3386,3.3386,3.3386,3.3386,3.3386,3.3386,3.3386,3.3386,3.3386,3.3386,3.3386,3.3386,3.3386,3.3386,3.3386,3.3386,3.3386,3.3386,3.3386,3.3386,3.3386,3.3386,3.3386,3.3386,3.3386,3.3386,3.3386,3.3386,3.3386,3.3386,3.3386,3.3386,0.9961,1.0083,1.0161,0.0,1.0035,0.9961,0.0,0.0,0.0,0.0,1.0161,1.0161,1.0161,1.1338,1.2262,1.2693,1.4992,0.0,0.0,0.0,0.0,1.9993,1.8131,1.7786,1.9326,1.9387,0.0,1.9466,0.0,0.0,2.0204,2.0461,2.0632,2.0719,2.0902,2.1042,2.1109,2.1109,2.1109,2.1109,2.1109,2.257,0.0,0.0,2.7958,3.0657,3.038,3.0518,3.0937,3.125,3.1357,3.1416,3.1768,3.1876,3.1876,3.1876,3.1876,3.1876,3.1876,3.1876,3.1876,3.1876,3.1876,3.1876,0.0,0.0,0.0,0.0,0.0,0.0,0.0,0.0,0.0,0.0,0.0,0.0,0.0,0.0,0.0,3.2744,3.3164,3.3386,3.3386,3.3386,3.3386,3.3386,3.3386,3.3386,3.3386,3.3386,3.3386,3.3386,3.3386,3.3386,3.3386,3.3386,3.3386,3.3386,3.3386,3.3386,3.3386,3.3386,3.3386,3.3386,3.3386,3.3386,3.3386,3.3386,3.3386,3.3386,3.3386,3.3386,3.3386,3.3386,3.3386,3.3386,1.012,0.0,0.0,1.0312,0.0,0.0,1.0126,0.0,0.0,1.0312,1.0312,0.0,1.1344,1.2311,1.3488,1.4945,1.6803,0.0,0.0,0.0,0.0,2.036,1.9452,1.9327,2.0167,2.0204,0.0,2.0428,0.0,0.0,2.059,2.0788,2.0862,2.0869,2.1036,2.1109,2.1109,2.1109,2.1109,2.1109,2.1109,2.275,0.0,2.5978,2.8123,3.0785,3.1285,3.1475,3.1484,3.1719,3.1807,3.1846,3.212,3.2198,3.2198,3.2198,3.2198,3.2198,3.2198,3.2198,3.2198,3.2198,3.2198,3.2198,3.2198,3.2198,3.2247,0.0,0.0,0.0,0.0,0.0,0.0,0.0,0.0,0.0,0.0,0.0,0.0,0.0,3.3008,3.3223,3.3377,3.3386,3.3386,3.3386,3.3386,3.3386,3.3386,3.3386,3.3386,3.3386,3.3386,3.3386,3.3386,3.3386,3.3386,3.3386,3.3386,3.3386,3.3386,3.3386,3.3386,3.3386,3.3386,3.3386,3.3386,3.3386,3.3386,3.3386,3.3386,3.3386,3.3386,3.3386,3.3386,3.3386,0.0,0.0,0.0,0.0,0.0,0.0,0.0,1.0337,0.0,1.0337,0.0,1.0937,1.244,1.2815,1.422,1.7368,0.0,1.8785,2.0622,2.0488,2.0461,2.0753,2.0457,2.0317,2.0317,2.0317,0.0,0.0,0.0,0.0,2.1109,2.1109,2.1109,2.1109,2.1109,2.1109,2.1109,2.1109,2.1109,2.1109,2.1149,2.2497,2.4684,2.6128,2.8084,3.0309,3.1759,3.2247,3.2208,3.2257,3.2276,3.2286,3.2345,3.2364,3.2364,3.2364,3.2364,3.2364,3.2364,3.2364,3.2364,3.2364,3.2364,3.2364,3.2364,3.2364,3.2472,3.2803,3.2588,3.2539,0.0,0.0,0.0,0.0,0.0,0.0,0.0,0.0,0.0,0.0,0.0,0.0,3.3357,3.3386,3.3386,3.3386,3.3386,3.3386,3.3386,3.3386,3.3386,3.3386,3.3386,3.3386,3.3386,3.3386,3.3386,3.3386,3.3386,3.3386,3.3386,3.3386,3.3386,3.3386,3.3386,3.3386,3.3386,3.3386,3.3386,3.3386,3.3386,3.3386,3.3386,3.3386,3.3386,3.3386,0.0,0.0,0.0,0.0,0.0,1.067,1.0646,1.0643,1.0643,1.0643,1.0643,1.0741,1.1063,1.2355,1.4063,1.6054,1.7569,0.0,0.0,0.0,0.0,2.1029,2.0982,2.0955,2.0955,2.0955,2.0982,0.0,0.0,0.0,2.1109,2.1109,2.1109,2.1109,2.1109,2.1109,2.1109,2.1109,0.0,2.1129,2.1408,2.3381,2.6236,2.679,2.919,3.2295,3.2583,3.2492,3.2247,3.2568,3.2685,3.2744,3.3096,3.3203,3.3203,3.3203,3.3203,3.3203,3.3203,3.3203,3.3203,3.3203,3.3203,3.3203,3.3203,3.3203,3.3223,3.3269,3.3252,3.3144,3.2939,0.0,0.0,0.0,0.0,0.0,0.0,0.0,0.0,0.0,0.0,3.3308,0.0,3.3386,3.3386,3.3386,3.3386,3.3386,3.3386,3.3386,3.3386,3.3386,3.3386,3.3386,0.0,0.0,3.3386,3.3386,3.3386,3.3386,3.3386,3.3386,3.3386,3.3386,3.3386,3.3386,3.3386,3.3386,3.3386,3.3386,3.3386,3.3386,3.3386,3.3386,3.3386,3.3386,0.0,0.0,0.0,0.0,0.0,0.0,0.0,1.0688,0.0,1.0688,1.0688,1.1045,1.1956,1.3615,1.5367,1.7114,1.8832,2.0195,2.1046,2.1109,2.1109,2.1109,2.1109,0.0,2.1109,2.1109,2.1109,2.1109,0.0,0.0,0.0,0.0,2.1109,2.1109,2.1109,2.1109,2.1109,0.0,0.0,2.1381,2.1529,2.3282,2.5944,2.7009,2.9229,3.1872,3.2792,3.2988,3.2851,3.3057,3.3115,3.3154,3.3328,3.3386,3.3386,3.3386,3.3386,3.3386,3.3386,3.3386,3.3386,3.3386,3.3386,3.3386,3.3386,3.3386,3.3386,3.3386,3.3386,3.3328,3.3164,3.2949,0.0,0.0,0.0,0.0,0.0,0.0,0.0,0.0,0.0,0.0,0.0,0.0,3.3386,3.3386,3.3386,3.3386,3.3386,3.3386,3.3386,3.3386,3.3386,0.0,3.3386,0.0,3.3386,3.3386,3.3386,3.3386,3.3386,3.3386,3.3386,3.3386,3.3386,3.3386,3.3386,3.3386,3.3386,3.3386,3.3386,3.3386,3.3386,3.3386,3.3386,3.3386,0.0,1.0688,0.0,0.0,1.0688,0.0,1.0688,1.0688,1.0688,1.0688,1.1012,1.1795,1.3161,1.4847,1.6592,1.8346,1.9776,2.0684,2.1077,2.1109,2.1109,2.1109,2.1109,2.1109,2.1109,2.1109,2.1109,0.0,0.0,0.0,0.0,0.0,0.0,2.1109,2.1109,0.0,0.0,0.0,2.1376,2.1683,2.1743,2.3107,2.5302,2.7125,2.9045,3.1038,3.2756,3.3386,3.3386,3.3386,3.3386,3.3386,3.3386,3.3386,3.3386,3.3386,3.3386,3.3386,3.3386,3.3386,3.3386,3.3386,3.3386,3.3386,3.3386,3.3386,3.3386,3.3386,3.3386,3.3386,3.3386,3.3386,0.0,0.0,0.0,0.0,0.0,0.0,0.0,0.0,0.0,0.0,3.3386,3.3386,3.3386,3.3386,3.3386,3.3386,3.3386,3.3386,3.3386,3.3386,0.0,3.3386,3.3386,0.0,3.3386,3.3386,3.3386,3.3386,3.3386,3.3386,3.3386,3.3386,3.3386,3.3386,3.3386,3.3386,3.3386,3.3386,3.3386,3.3386,3.3386,3.3386,3.3386,3.3386,0.0,0.0,0.0,0.0,0.0,0.0,1.0688,1.0688,1.0688,1.0688,1.2088,1.3128,1.3288,1.4847,1.6592,1.8346,1.864,1.9413,2.1014,2.1109,2.1109,2.1109,2.1109,2.1109,2.1109,2.1109,2.1109,0.0,0.0,0.0,0.0,0.0,0.0,0.0,0.0,0.0,0.0,2.1542,2.1709,2.1964,2.2231,2.3446,2.5325,2.7367,2.9244,3.1038,3.2756,3.3386,3.3386,3.3386,3.3386,3.3386,3.3386,3.3386,3.3386,3.3386,3.3386,3.3386,3.3386,3.3386,3.3386,3.3386,3.3386,3.3386,3.3386,3.3386,3.3386,3.3386,3.3386,3.3386,3.3386,3.3386,3.3386,0.0,0.0,0.0,0.0,0.0,0.0,0.0,0.0,0.0,0.0,3.3386,3.3386,3.3386,3.3386,3.3386,3.3386,0.0,0.0,3.3386,3.3386,3.3386,3.3386,3.3386,3.3386,3.3386,3.3386,3.3386,3.3386,3.3386,3.3386,3.3386,3.3386,3.3386,3.3386,3.3386,3.3386,3.3386,3.3386,3.3386,3.3386,3.3386,3.3386,3.3386,0.0,0.0,0.0,0.0,0.0,0.0,0.0,1.1814,1.2576,1.2678,1.3037,1.3292,1.3292,1.5784,1.7725,1.8442,1.9451,2.036,2.1046,2.1109,2.1109,2.1109,2.1109,2.1109,2.1109,2.1109,2.1109,0.0,0.0,0.0,0.0,0.0,0.0,0.0,0.0,2.1569,2.1843,2.1843,2.1977,2.2258,2.2372,2.3574,2.553,2.7488,2.9279,3.1038,3.2756,3.3386,3.3386,3.3386,3.3386,3.3386,3.3386,3.3386,3.3386,3.3386,3.3386,3.3386,3.3386,3.3386,3.3386,3.3386,3.3386,3.3386,3.3386,3.3386,3.3386,3.3386,3.3386,3.3386,3.3386,3.3386,3.3386,0.0,0.0,0.0,0.0,0.0,0.0,0.0,0.0,0.0,0.0,3.3386,3.3386,3.3386,0.0,0.0,0.0,0.0,0.0,3.3386,0.0,3.3386,3.3386,3.3386,3.3386,3.3386,3.3386,3.3386,3.3386,3.3386,3.3386,3.3386,3.3386,3.3386,3.3386,3.3386,3.3386,3.3386,3.3386,3.3386,3.3386,3.3386,3.3386,3.3386,1.0752,0.0,1.085,0.0,1.085,1.0887,1.0961,1.2616,1.3899,1.4002,1.4647,1.5068,1.4978,1.7644,1.9371,1.9259,2.0392,2.1109,2.1109,2.1109,2.1109,2.1109,2.1109,0.0,2.1109,2.1109,2.1109,2.1109,2.1196,0.0,0.0,0.0,0.0,0.0,2.1709,2.1877,2.2111,2.2111,2.2285,2.2545,2.2545,2.3728,2.5711,2.7511,2.9279,3.1038,3.2756,3.3386,3.3386,3.3386,3.3386,3.3386,3.3386,3.3386,3.3386,3.3386,3.3386,3.3386,3.3386,3.3386,3.3386,3.3386,3.3386,3.3386,3.3386,3.3386,3.3386,3.3386,3.3386,3.3386,3.3386,3.3386,3.3386,3.3386,0.0,0.0,0.0,0.0,0.0,0.0,0.0,3.3386,3.3386,3.3386,3.3386,0.0,0.0,0.0,0.0,0.0,0.0,0.0,0.0,0.0,3.3386,3.3386,3.3386,3.3386,3.3386,3.3386,3.3386,3.3386,3.3386,3.3386,3.3386,3.3386,3.3386,3.3386,3.3386,3.3386,3.3386,3.3386,3.3386,3.3386,3.3386,3.3386,1.0911,1.106,1.1193,1.1193,1.1193,1.1193,1.1193,1.2795,1.3985,1.3985,1.7115,1.9236,1.895,2.0514,2.143,2.1104,2.1077,2.1109,2.1109,2.1109,2.1109,0.0,0.0,2.1109,2.1109,2.1109,2.1109,2.1109,0.0,0.0,2.1984,0.0,2.2251,2.2017,2.2017,2.2138,2.2412,2.2412,2.2585,2.2893,2.2893,2.3958,2.5711,2.7511,2.9279,3.1038,3.2756,3.3386,3.3386,3.3386,3.3386,3.3386,3.3386,3.3386,3.3386,3.3386,3.3386,3.3386,3.3386,3.3386,3.3386,3.3386,3.3386,3.3386,3.3386,3.3386,3.3386,3.3386,3.3386,3.3386,3.3386,3.3386,3.3386,3.3386,0.0,0.0,0.0,0.0,0.0,0.0,3.3386,3.3386,3.3386,3.3386,0.0,0.0,0.0,0.0,0.0,0.0,0.0,3.3386,3.3386,0.0,3.3386,3.3386,3.3386,3.3386,3.3386,3.3386,3.3386,3.3386,3.3386,3.3386,3.3386,3.3386,3.3386,3.3386,3.3386,3.3386,3.3386,3.3386,3.3386,3.3386,3.3386,3.3386,1.1094,1.1166,1.1196,1.1196,1.1196,1.1676,1.3051,1.4855,1.6555,1.7988,2.0289,2.167,2.1353,2.1661,2.1843,0.0,2.171,2.171,0.0,2.171,2.171,2.171,2.171,2.171,2.171,2.171,2.171,2.171,0.0,0.0,0.0,2.2078,2.2178,2.2278,2.2278,2.2445,2.2753,2.2753,2.2813,2.2893,2.2893,2.4689,2.7404,2.7974,3.0004,3.2661,3.3187,3.3386,3.3386,3.3386,3.3386,3.3386,3.3386,3.3386,3.3386,3.3386,3.3386,3.3386,3.3386,3.3386,3.3386,3.3386,3.3386,3.3386,3.3386,3.3386,3.3386,3.3386,3.3386,3.3386,3.3386,3.3386,3.3386,3.3386,3.3386,0.0,0.0,0.0,0.0,0.0,3.3386,3.3386,3.3386,3.3386,0.0,0.0,0.0,0.0,0.0,0.0,0.0,0.0,3.3386,0.0,3.3386,3.3386,3.3386,3.3386,3.3386,3.3386,3.3386,3.3386,3.3386,3.3386,3.3386,3.3386,3.3386,3.3386,3.3386,3.3386,3.3386,3.3386,3.3386,3.3386,3.3386,3.3386,1.1285,1.1329,1.1335,1.1335,1.1335,1.2022,1.3996,1.5858,1.7786,1.9825,2.1734,2.2827,2.2605,2.2459,0.0,2.2004,2.1984,2.1984,2.1984,2.1984,2.1984,2.1984,2.1984,2.1984,2.1984,2.1984,0.0,2.1984,2.2091,2.2205,2.2345,2.2345,2.2445,2.2585,2.2585,2.2686,2.2893,2.2893,2.2893,2.2962,2.3624,2.5618,2.8271,2.8919,3.0918,3.3386,3.3386,3.3386,3.3386,3.3386,3.3386,3.3386,3.3386,3.3386,3.3386,3.3386,3.3386,3.3386,3.3386,3.3386,3.3386,3.3386,3.3386,3.3386,3.3386,3.3386,3.3386,3.3386,3.3386,3.3386,3.3386,3.3386,3.3386,3.3386,3.3386,3.3386,3.3386,0.0,0.0,0.0,0.0,0.0,0.0,3.3386,3.3386,0.0,0.0,0.0,0.0,0.0,0.0,3.3386,3.3386,0.0,3.3386,3.3386,3.3386,3.3386,3.3386,3.3386,3.3386,3.3386,3.3386,3.3386,3.3386,3.3386,3.3386,3.3386,3.3386,3.3386,3.3386,3.3386,3.3386,3.3386,3.3386,3.3386,1.1406,1.1521,1.1584,0.0,1.1724,0.0,1.4326,1.6192,1.8094,2.0057,2.1809,2.2893,2.2893,2.2893,2.2679,2.2098,0.0,0.0,0.0,2.2044,2.2044,2.2044,2.2044,2.2044,2.2044,2.2044,2.2044,2.2044,2.2318,2.2592,2.2893,2.2893,2.2893,2.2893,2.2893,2.2893,2.2893,2.2893,2.2893,2.303,2.4689,2.6481,2.8369,2.9995,3.1762,3.3386,3.3386,3.3386,3.3386,3.3386,3.3386,3.3386,3.3386,3.3386,3.3386,3.3386,3.3386,3.3386,3.3386,3.3386,3.3386,3.3386,3.3386,3.3386,3.3386,3.3386,3.3386,3.3386,3.3386,3.3386,3.3386,3.3386,3.3386,3.3386,3.3386,3.3386,3.3386,0.0,0.0,0.0,0.0,0.0,0.0,3.3386,3.3386,0.0,0.0,0.0,0.0,0.0,3.3386,3.3386,3.3386,3.3386,3.3386,3.3386,3.3386,3.3386,3.3386,3.3386,3.3386,3.3386,3.3386,3.3386,3.3386,3.3386,3.3386,3.3386,3.3386,3.3386,3.3386,3.3386,3.3386,3.3386,3.3386,3.3386,0.0,0.0,1.1584,1.1584,1.2781,1.4365,1.6268,1.8159,2.0091,2.1981,2.2613,2.2893,2.2893,2.2893,2.284,2.2699,2.2686,2.2686,2.2686,2.2686,2.2686,2.2686,2.2686,2.2686,2.2686,2.2686,2.2686,2.2686,2.276,2.2827,2.2893,2.2893,2.2893,2.2893,2.2893,2.2893,2.2893,2.2893,2.2893,2.2928,2.3359,2.539,2.8238,2.8657,3.0725,3.3386,3.3386,3.3386,3.3386,3.3386,3.3386,3.3386,3.3386,3.3386,3.3386,3.3386,3.3386,3.3386,3.3386,3.3386,3.3386,3.3386,3.3386,3.3386,3.3386,3.3386,3.3386,3.3386,3.3386,3.3386,3.3386,3.3386,3.3386,3.3386,3.3386,3.3386,3.3386,3.3386,0.0,0.0,3.3386,3.3386,3.3386,3.3386,3.3386,0.0,0.0,0.0,3.3386,3.3386,3.3386,3.3386,3.3386,3.3386,3.3386,3.3386,3.3386,3.3386,3.3386,3.3386,3.3386,3.3386,3.3386,3.3386,3.3386,3.3386,3.3386,3.3386,3.3386,3.3386,3.3386,3.3386,3.3386,3.3386,3.3386,3.3386,1.1584,1.1584,1.1864,1.2745,1.3729,1.5345,1.8089,1.9426,2.0756,2.2647,2.2893,2.2893,2.2893,2.2893,2.2893,2.2893,2.2893,2.2893,2.2893,2.2893,2.2893,2.2893,2.2893,2.2893,2.2893,2.2893,2.2893,2.2893,2.2893,2.2893,2.2893,2.2893,2.2893,2.2893,2.2893,2.2893,2.2893,2.2893,2.2893,2.2962,2.3761,2.5752,2.8303,2.9083,3.1047,3.3386,3.3386,3.3386,3.3386,3.3386,3.3386,3.3386,3.3386,3.3386,3.3386,3.3386,3.3386,3.3386,3.3386,3.3386,3.3386,3.3386,3.3386,3.3386,3.3386,3.3386,3.3386,3.3386,3.3386,3.3386,3.3386,3.3386,3.3386,3.3386,3.3386,3.3386,3.3386,3.3386,0.0,3.3386,3.3386,3.3386,3.3386,3.3386,3.3386,3.3386,3.3386,0.0,3.3386,3.3386,3.3386,3.3386,3.3386,3.3386,3.3386,3.3386,3.3386,3.3386,3.3386,3.3386,3.3386,3.3386,3.3386,3.3386,3.3386,3.3386,3.3386,3.3386,3.3386,3.3386,3.3386,3.3386,3.3386,3.3386,3.3386,3.3386,1.1584,1.1828,1.2534,1.4116,1.4889,1.6364,1.96,2.0334,2.1073,2.2688,2.2893,2.2893,2.2893,2.2893,2.2893,2.2893,2.2893,2.2893,2.2893,2.2893,2.2893,2.2893,2.2893,2.2893,2.2893,2.2893,2.2893,2.2893,2.2893,2.2893,2.2893,2.2893,2.2893,2.2893,2.2893,2.2893,2.2893,2.2893,2.2893,2.3065,2.4783,2.6573,2.8394,3.0157,3.1899,3.3386,3.3386,3.3386,3.3386,3.3386,3.3386,3.3386,3.3386,3.3386,3.3386,3.3386,3.3386,3.3386,3.3386,3.3386,3.3386,3.3386,3.3386,3.3386,3.3386,3.3386,3.3386,3.3386,3.3386,3.3386,3.3386,3.3386,3.3386,3.3386,3.3386,3.3386,3.3386,0.0,3.3386,3.3386,3.3386,3.3386,3.3386,3.3386,3.3386,3.3386,3.3386,3.3386,3.3386,3.3386,3.3386,3.3386,3.3386,3.3386,3.3386,3.3386,3.3386,3.3386,3.3386,3.3386,3.3386,3.3386,3.3386,3.3386,3.3386,3.3386,3.3386,3.3386,3.3386,3.3386,3.3386,3.3386,3.3386,3.3386,3.3386,3.3386,1.1584,1.2888,1.4045,1.4361,1.7067,1.9426,2.0022,2.1459,2.2578,2.2859,2.2893,2.2893,2.2893,2.2893,2.2893,2.2893,2.2893,2.2893,2.2893,2.2893,2.2893,2.2893,2.2893,2.2893,2.2893,2.2893,2.2893,2.2893,2.2893,2.2893,2.2893,2.2893,2.2893,2.2893,2.2893,2.2893,2.2893,2.2893,2.2893,2.3065,2.4783,2.6573,2.8394,3.0157,3.1899,3.3386,3.3386,3.3386,3.3386,3.3386,3.3386,3.3386,3.3386,3.3386,3.3386,3.3386,3.3386,3.3386,3.3386,3.3386,3.3386,3.3386,3.3386,3.3386,3.3386,3.3386,3.3386,3.3386,3.3386,3.3386,3.3386,3.3386,3.3386,3.3386,3.3386,3.3386,3.3386,0.0,3.3386,3.3386,3.3386,3.3386,3.3386,3.3386,3.3386,3.3386,3.3386,3.3386,3.3386,3.3386,3.3386,3.3386,3.3386,3.3386,3.3386,3.3386,3.3386,3.3386,3.3386,3.3386,3.3386,3.3386,3.3386,3.3386,3.3386,3.3386,3.3386,3.3386,3.3386,3.3386,3.3386,3.3386,3.3386,3.3386,3.3386,3.3386,1.2924,1.38,1.5066,1.7102,1.8932,2.0438,2.1459,2.2332,2.2893,2.2893,2.2893,2.2893,2.2893,2.2893,2.2893,2.2893,2.2893,2.2893,2.2893,2.2893,2.2893,2.2893,2.2893,2.2893,2.2893,2.2893,2.2893,2.2893,2.2893,2.2893,2.2893,2.2893,2.2893,2.2893,2.2893,2.2893,2.2893,2.2893,2.2893,2.3065,2.4783,2.6573,2.8394,3.0157,3.1899,3.3386,3.3386,3.3386,3.3386,3.3386,3.3386,3.3386,3.3386,3.3386,3.3386,3.3386,3.3386,3.3386,3.3386,3.3386,3.3386,3.3386,3.3386,3.3386,3.3386,3.3386,3.3386,3.3386,3.3386,3.3386,3.3386,3.3386,3.3386,3.3386,3.3386,0.0,0.0,3.3386,3.3386,3.3386,3.3386,3.3386,3.3386,3.3386,3.3386,3.3386,3.3386,3.3386,3.3386,3.3386,3.3386,3.3386,3.3386,3.3386,3.3386,3.3386,3.3386,3.3386,3.3386,3.3386,3.3386,3.3386,3.3386,3.3386,3.3386,3.3386,3.3386,3.3386,3.3386,3.3386,3.3386,3.3386,3.3386,3.3386,3.3386,3.3386,1.4116,1.5132,1.6645,1.96,2.0444,2.1252,2.2688,2.2893,2.2893,2.2893,2.2893,2.2893,2.2893,2.2893,2.2893,2.2893,2.2893,2.2893,2.2893,2.2893,2.2893,2.2893,2.2893,2.2893,2.2893,2.2893,2.2893,2.2893,2.2893,2.2893,2.2893,2.2893,2.2893,2.2893,2.2893,2.2893,2.2893,2.2893,2.3126,2.3659,2.5416,2.7205,2.8984,3.0748,3.2228,3.3386,3.3386,3.3386,3.3386,3.3386,3.3386,3.3386,3.3386,3.3386,3.3386,3.3386,3.3386,3.3386,3.3386,3.3386,3.3386,3.3386,3.3386,3.3386,3.3386,3.3386,3.3386,3.3386,3.3386,3.3386,3.3386,3.3386,3.3386,3.3386,0.0,0.0,0.0,3.3386,3.3386,3.3386,3.3386,3.3386,3.3386,3.3386,3.3386,3.3386,3.3386,3.3386,3.3386,3.3386,3.3386,3.3386,3.3386,3.3386,3.3386,3.3386,3.3386,3.3386,3.3386,3.3386,3.3386,3.3386,3.3386,3.3386,3.3386,3.3386,3.3386,3.3386,3.3386,3.3386,3.3386,3.3386,3.3386,3.3386,3.3386,3.3449,1.4361,1.7243,1.9773,2.0057,2.1527,2.2756,2.2866,2.2893,2.2893,2.2893,2.2893,2.2893,2.2893,2.2893,2.2893,2.2893,2.2893,2.2893,2.2893,2.2893,2.2893,2.2893,2.2893,2.2893,2.2893,2.2893,2.2893,2.2893,2.2893,2.2893,2.2893,2.2893,2.2893,2.2893,2.2893,2.2893,2.2893,2.2893,2.3822,2.5484,2.7271,2.905,3.0812,3.2524,3.3292,3.3386,3.3386,3.3386,3.3386,3.3386,3.3386,3.3386,3.3386,3.3386,3.3386,3.3386,3.3386,3.3386,3.3386,3.3386,3.3386,3.3386,3.3386,3.3386,3.3386,3.3386,3.3386,3.3386,3.3386,3.3386,3.3386,3.3386,3.3386,3.3386,0.0,0.0,3.3386,3.3386,3.3386,3.3386,3.3386,3.3386,3.3386,3.3386,3.3386,3.3386,3.3386,3.3386,3.3386,3.3386,3.3386,3.3386,3.3386,3.3386,3.3386,3.3386,3.3386,3.3386,3.3386,3.3386,3.3386,3.3386,3.3386,3.3386,3.3386,3.3386,3.3386,3.3386,3.3386,3.3386,3.3386,3.3386,3.3386,3.3386,3.3386,3.3597,1.591,1.8264,2.0479,2.1631,2.2441,2.2893,2.2893,2.2893,2.2893,2.2893,2.2893,2.2893,2.2893,2.2893,2.2893,2.2893,2.2893,2.2893,2.2893,2.2893,2.2893,2.2893,2.2893,2.2893,2.2893,2.2893,2.2893,2.2893,2.2893,2.2893,2.2893,2.2893,2.2893,2.2893,2.2893,2.2893,2.2893,2.2893,2.3897,2.5644,2.747,2.9246,3.1006,3.2724,3.3386,3.3386,3.3386,3.3386,3.3386,3.3386,3.3386,3.3386,3.3386,3.3386,3.3386,3.3386,3.3386,3.3386,3.3386,3.3386,3.3386,3.3386,3.3386,3.3386,3.3386,3.3386,3.3386,3.3386,3.3386,3.3386,3.3386,3.3386,3.3386,3.3386,0.0,3.3386,3.3386,3.3386,3.3386,3.3386,3.3386,3.3386,3.3386,3.3386,3.3386,3.3386,3.3386,3.3386,3.3386,3.3386,3.3386,3.3386,3.3386,3.3386,3.3386,3.3386,3.3386,3.3386,3.3386,3.3386,3.3386,3.3386,3.3386,3.3386,3.3386,3.3386,3.3386,3.3386,3.3386,3.3386,3.3386,3.3386,3.3503,3.4529,3.4881,3.5119,1.7744,1.9669,2.139,2.2688,2.2893,2.2893,2.2893,2.2893,2.2893,2.2893,2.2893,2.2893,2.2893,2.2893,2.2893,2.2893,2.2893,2.2893,2.2893,2.2893,2.2893,2.2893,2.2893,2.2893,2.2893,2.2893,2.2893,2.2893,2.2893,2.2893,2.2893,2.2893,2.2893,2.2893,2.2893,2.2893,2.2893,2.2893,2.4222,2.6473,2.7701,2.9572,3.1762,3.2956,3.3386,3.3386,3.3386,3.3386,3.3386,3.3386,3.3386,3.3386,3.3386,3.3386,3.3386,3.3386,3.3386,3.3386,3.3386,3.3386,3.3386,3.3386,3.3386,3.3386,3.3386,3.3386,3.3386,3.3386,3.3386,3.3386,3.3386,3.3386,3.3386,3.3386,3.3386,3.3386,3.3386,3.3386,3.3386,3.3386,3.3386,3.3386,3.3386,3.3386,3.3386,3.3386,3.3386,3.3386,3.3386,3.3386,3.3386,3.3386,3.3386,3.3386,3.3386,3.3386,3.3386,3.3386,3.3386,3.3386,3.3386,3.3386,3.3386,3.3386,3.3386,3.3386,3.3386,3.3386,3.3386,3.3449,3.3965,3.4133,3.4341,3.5959,3.6558,3.6771,1.9704,2.1596,2.2893,2.2893,2.2893,2.2893,2.2893,2.2893,2.2893,2.2893,2.2893,2.2893,2.2893,2.2893,2.2893,2.2893,2.2893,2.2893,2.2893,2.2893,2.2893,2.2893,2.2893,2.2893,2.2893,2.2893,2.2893,2.2893,2.2893,2.2893,2.2893,2.2893,2.2893,2.2893,2.2893,2.2893,2.2893,2.2893,2.4959,2.8205,2.8205,3.0304,3.3386,3.3386,3.3386,3.3386,3.3386,3.3386,3.3386,3.3386,3.3386,3.3386,3.3386,3.3386,3.3386,3.3386,3.3386,3.3386,3.3386,3.3386,3.3386,3.3386,3.3386,3.3386,3.3386,3.3386,3.3386,3.3386,3.3386,3.3386,3.3386,3.3386,3.3386,3.3386,3.3386,3.3386,3.3386,3.3386,3.3386,3.3386,3.3386,3.3386,3.3386,3.3386,3.3386,3.3386,3.3386,3.3386,3.3386,3.3386,3.3386,3.3386,3.3386,3.3386,3.3386,3.3386,3.3386,3.3386,3.3386,3.3386,3.3386,3.3386,3.3386,3.3386,3.3386,3.3386,3.3386,3.3386,3.3418,3.3566,3.518,3.5806,3.601,3.7615,3.8223,3.8461,1.9987,2.1596,2.2893,2.2893,2.2893,2.2893,2.2893,2.2893,2.2893,2.2893,2.2893,2.2893,2.2893,2.2893,2.2893,2.2893,2.2893,2.2893,2.2893,2.2893,2.2893,2.2893,2.2893,2.2893,2.2893,2.2893,2.2893,2.2893,2.2893,2.2893,2.2893,2.2893,2.2893,2.2893,2.2893,2.2893,2.2893,2.2893,2.4959,2.8205,2.8205,3.0304,3.3386,3.3386,3.3386,3.3386,3.3386,3.3386,3.3386,3.3386,3.3386,3.3386,3.3386,3.3386,3.3386,3.3386,3.3386,3.3386,3.3386,3.3386,3.3386,3.3386,3.3386,3.3386,3.3386,3.3386,3.3386,3.3386,3.3386,3.3386,3.3386,3.3386,3.3386,3.3386,3.3386,3.3386,3.3386,3.3386,3.3386,3.3386,3.3386,3.3386,3.3386,3.3386,3.3386,3.3386,3.3386,3.3386,3.3386,3.3386,3.3386,3.3386,3.3386,3.3386,3.3386,3.3386,3.3386,3.3386,3.3386,3.3386,3.3386,3.3386,3.3386,3.3386,3.3386,3.3386,3.3386,3.3386,3.408,3.5119,3.5622,3.6497,3.7675,3.9288,3.9884,4.0117,2.1073,2.2125,2.2893,2.2893,2.2893,2.2893,2.2893,2.2893,2.2893,2.2893,2.2893,2.2893,2.2893,2.2893,2.2893,2.2893,2.2893,2.2893,2.2893,2.2893,2.2893,2.2893,2.2893,2.2893,2.2893,2.2893,2.2893,2.2893,2.2893,2.2893,2.2893,2.2893,2.2893,2.2893,2.2893,2.2893,2.2893,2.2893,2.4959,2.8205,2.8205,3.0304,3.3386,3.3386,3.3386,3.3386,3.3386,3.3386,3.3386,3.3386,3.3386,3.3386,3.3386,3.3386,3.3386,3.3386,3.3386,3.3386,3.3386,3.3386,3.3386,3.3386,3.3386,3.3386,3.3386,3.3386,3.3386,3.3386,3.3386,3.3386,3.3386,3.3386,3.3386,3.3386,3.3386,3.3386,3.3386,3.3386,3.3386,3.3386,3.3386,3.3386,3.3386,3.3386,3.3386,3.3386,3.3386,3.3386,3.3386,3.3386,3.3386,3.3386,3.3386,3.3386,3.3386,3.3386,3.3386,3.3386,3.3386,3.3386,3.3386,3.3386,3.3386,3.3386,3.3386,3.3386,3.3449,3.408,3.4912,3.5918,3.7213,3.829,3.9347,4.0949,4.1545,4.17,2.2544,2.2893,2.2893,2.2893,2.2893,2.2893,2.2893,2.2893,2.2893,2.2893,2.2893,2.2893,2.2893,2.2893,2.2893,2.2893,2.2893,2.2893,2.2893,2.2893,2.2893,2.2893,2.2893,2.2893,2.2893,2.2893,2.2893,2.2893,2.2893,2.2893,2.2893,2.2893,2.2893,2.2893,2.2893,2.2893,2.29,2.3065,2.4993,2.7974,2.8139,3.0207,3.3155,3.3155,3.325,3.3386,3.3386,3.3386,3.3386,3.3386,3.3386,3.3386,3.3386,3.3386,3.3386,3.3386,3.3386,3.3386,3.3386,3.3386,3.3386,3.3386,3.3386,3.3386,3.3386,3.3386,3.3386,3.3386,3.3386,3.3386,3.3386,3.3386,3.3386,3.3386,3.3386,3.3386,3.3386,3.3386,3.3386,3.3386,3.3386,3.3386,3.3386,3.3386,3.3386,3.3386,3.3386,3.3386,3.3386,3.3386,3.3386,3.3386,3.3386,3.3386,3.3386,3.3386,3.3386,3.3386,3.3386,3.3386,3.3386,3.3386,3.3386,3.3418,3.3534,3.3597,3.3745,3.5355,3.6101,3.6517,3.9464,4.069,4.0978,4.2472,4.3002,4.3002,2.2825,2.2893,2.2893,2.2893,2.2893,2.2893,2.2893,2.2893,2.2893,2.2893,2.2893,2.2893,2.2893,2.2893,2.2893,2.2893,2.2893,2.2893,2.2893,2.2893,2.2893,2.2893,2.2893,2.2893,2.2893,2.2893,2.2893,2.2893,2.2893,2.2893,2.2893,2.2893,2.2893,2.2893,2.2893,2.2893,2.2996,2.4358,2.5383,2.6206,2.7635,2.9474,3.1368,3.1368,3.2196,3.3386,3.3386,3.3386,3.3386,3.3386,3.3386,3.3386,3.3386,3.3386,3.3386,3.3386,3.3386,3.3386,3.3386,3.3386,3.3386,3.3386,3.3386,3.3386,3.3386,3.3386,3.3386,3.3386,3.3386,3.3386,3.3386,3.3386,3.3386,3.3386,3.3386,3.3386,3.3386,3.3386,3.3386,3.3386,3.3386,3.3386,3.3386,3.3386,3.3386,3.3386,3.3386,3.3386,3.3386,3.3386,3.3386,3.3386,3.3386,3.3386,3.3386,3.3386,3.3386,3.3386,3.3386,3.3386,3.3386,3.3386,3.3386,3.3481,3.4736,3.5263,3.5417,3.7013,3.842,3.9639,4.0332,4.1362,4.2528,4.2862,4.3002,4.3002,2.2893,2.2893,2.2893,2.2893,2.2893,2.2893,2.2893,2.2893,2.2893,2.2893,2.2893,2.2893,2.2893,2.2893,2.2893,2.2893,2.2893,2.2893,2.2893,2.2893,2.2893,2.2893,2.2893,2.2893,2.2893,2.2893,2.2893,2.2893,2.2893,2.2893,2.2893,2.2893,2.2893,2.2893,2.2893,2.2893,2.2962,2.3856,2.475,2.5644,2.747,2.9246,3.0909,3.173,3.2597,3.3386,3.3386,3.3386,3.3386,3.3386,3.3386,3.3386,3.3386,3.3386,3.3386,3.3386,3.3386,3.3386,3.3386,3.3386,3.3386,3.3386,3.3386,3.3386,3.3386,3.3386,3.3386,3.3386,3.3386,3.3386,3.3386,3.3386,3.3386,3.3386,3.3386,3.3386,3.3386,3.3386,3.3386,3.3386,3.3386,3.3386,3.3386,3.3386,3.3386,3.3386,3.3386,3.3386,3.3386,3.3386,3.3386,3.3386,3.3386,3.3386,3.3386,3.3386,3.3386,3.3386,3.3386,3.3386,3.3418,3.4195,3.455,3.4643,3.6265,3.6952,3.7073,3.8687,3.9855,4.069,4.146,4.2263,4.3002,4.3002,4.3002,4.3002,2.2893,2.2893,2.2893,2.2893,2.2893,2.2893,2.2893,2.2893,2.2893,2.2893,2.2893,2.2893,2.2893,2.2893,2.2893,2.2893,2.2893,2.2893,2.2893,2.2893,2.2893,2.2893,2.2893,2.2893,2.2893,2.2893,2.2893,2.2893,2.2893,2.2893,2.2893,2.2893,2.2893,2.2893,2.2893,2.2893,2.2928,2.3229,2.4026,2.5214,2.7005,2.8788,3.0513,3.1973,3.2892,3.3386,3.3386,3.3386,3.3386,3.3386,3.3386,3.3386,3.3386,3.3386,3.3386,3.3386,3.3386,3.3386,3.3386,3.3386,3.3386,3.3386,3.3386,3.3386,3.3386,3.3386,3.3386,3.3386,3.3386,3.3386,3.3386,3.3386,3.3386,3.3386,3.3386,3.3386,3.3386,3.3386,3.3386,3.3386,3.3386,3.3386,3.3386,3.3386,3.3386,3.3386,3.3386,3.3386,3.3386,3.3386,3.3386,3.3386,3.3386,3.3386,3.3386,3.3386,3.3386,3.3386,3.3386,3.3386,3.3449,3.5057,3.5806,3.5887,3.7794,3.8609,3.8728,4.0361,4.1007,4.1133,4.2472,4.3002,4.3002,4.3002,4.3002,4.3002,2.2893,2.2893,2.2893,2.2893,2.2893,2.2893,2.2893,2.2893,2.2893,2.2893,2.2893,2.2893,2.2893,2.2893,2.2893,2.2893,2.2893,2.2893,2.2893,2.2893,2.2893,2.2893,2.2893,2.2893,2.2893,2.2893,2.2893,2.2893,2.2893,2.2893,2.2893,2.2893,2.2893,2.2893,2.2893,2.2893,2.2996,2.452,2.4419,2.3393,2.5147,2.6939,2.8591,2.8821,3.0789,3.3386,3.3386,3.3386,3.3386,3.3386,3.3386,3.3386,3.3386,3.3386,3.3386,3.3386,3.3386,3.3386,3.3386,3.3386,3.3386,3.3386,3.3386,3.3386,3.3386,3.3386,3.3386,3.3386,3.3386,3.3386,3.3386,3.3386,3.3386,3.3386,3.3386,3.3386,3.3386,3.3386,3.3386,3.3386,3.3386,3.3386,3.3386,3.3386,3.3386,3.3386,3.3386,3.3386,3.3386,3.3386,3.3386,3.3386,3.3386,3.3386,3.3386,3.3386,3.3386,3.3386,3.3386,3.3386,3.3449,3.5057,3.5806,3.5959,3.8971,4.0274,4.039,4.2024,4.2681,4.2709,4.2918,4.3002,4.3002,4.3002,4.3002,4.3002,2.2893,2.2893,2.2893,2.2893,2.2893,2.2893,2.2893,2.2893,2.2893,2.2893,2.2893,2.2893,2.2893,2.2893,2.2893,2.2893,2.2893,2.2893,2.2893,2.2893,2.2893,2.2893,2.2893,2.2893,2.2893,2.2893,2.2893,2.2893,2.2893,2.2893,2.2893,2.2893,2.2893,2.2893,2.2893,2.2893,2.2962,2.3727,2.3597,2.3065,2.4783,2.6573,2.8303,2.9279,3.1217,3.3386,3.3386,3.3386,3.3386,3.3386,3.3386,3.3386,3.3386,3.3386,3.3386,3.3386,3.3386,3.3386,3.3386,3.3386,3.3386,3.3386,3.3386,3.3386,3.3386,3.3386,3.3386,3.3386,3.3386,3.3386,3.3386,3.3386,3.3386,3.3386,3.3386,3.3386,3.3386,3.3386,3.3386,3.3386,3.3386,3.3386,3.3386,3.3386,3.3386,3.3386,3.3386,3.3386,3.3386,3.3386,3.3386,3.3386,3.3386,3.3386,3.3386,3.3386,3.3386,3.3386,3.3386,3.3386,3.3449,3.5057,3.6284,3.7284,3.9581,4.1105,4.1996,4.2709,4.3002,4.3002,4.3002,4.3002,4.3002,4.3002,4.3002,4.3002]},{"header":{"parameterUnit":"m.s-1","parameterCategory":1,"la1":30.6,"la2":28.766,"lo1":-90.7593,"lo2":-88.6598,"dy":0.0162,"dx":0.0183,"nx":116,"ny":114,"refTime":"2023-03-16T00:00:00:Z","depth":0,"parameterNumber":3,"parameterNumberName":"V-component_of_WINDS"},"data":[0.0,0.0,0.0,0.0,0.0,0.0,0.0,0.0,0.0,0.0,0.0,0.0,0.0,0.0,0.0,0.0,0.0,0.0,0.0,0.0,0.0,0.0,0.0,0.0,0.0,0.0,0.0,0.0,0.0,0.0,0.0,0.0,0.0,0.0,0.0,0.0,0.0,0.0,0.0,0.0,0.0,0.0,0.0,0.0,0.0,0.0,0.0,0.0,0.0,0.0,0.0,0.0,0.0,0.0,0.0,0.0,0.0,0.0,0.0,0.0,0.0,0.0,0.0,0.0,0.0,0.0,0.0,0.0,0.0,0.0,0.0,0.0,0.0,0.0,0.0,0.0,0.0,0.0,0.0,0.0,0.0,0.0,0.0,0.0,0.0,0.0,0.0,0.0,0.0,0.0,0.0,0.0,0.0,0.0,0.0,0.0,0.0,0.0,0.0,0.0,0.0,0.0,0.0,0.0,0.0,0.0,0.0,0.0,0.0,0.0,0.0,0.0,0.0,0.0,0.0,0.0,0.0,0.0,0.0,0.0,0.0,0.0,0.0,0.0,0.0,0.0,0.0,0.0,0.0,0.0,0.0,0.0,0.0,0.0,0.0,0.0,0.0,0.0,0.0,0.0,0.0,0.0,0.0,0.0,0.0,0.0,0.0,0.0,0.0,0.0,0.0,0.0,0.0,0.0,0.0,0.0,0.0,0.0,0.0,0.0,0.0,0.0,0.0,0.0,0.0,0.0,0.0,0.0,0.0,0.0,0.0,0.0,0.0,0.0,0.0,0.0,0.0,0.0,0.0,0.0,0.0,0.0,0.0,0.0,0.0,0.0,0.0,0.0,0.0,0.0,0.0,0.0,0.0,0.0,0.0,0.0,0.0,0.0,0.0,0.0,0.0,0.0,0.0,0.0,0.0,0.0,0.0,0.0,0.0,0.0,0.0,0.0,0.0,0.0,0.0,0.0,0.0,0.0,0.0,0.0,0.0,0.0,0.0,0.0,0.0,0.0,0.0,0.0,0.0,0.0,0.0,0.0,0.0,0.0,0.0,0.0,0.0,0.0,0.0,0.0,0.0,0.0,0.0,0.0,0.0,0.0,0.0,0.0,0.0,0.0,0.0,0.0,0.0,0.0,0.0,0.0,0.0,0.0,0.0,0.0,0.0,0.0,0.0,0.0,0.0,0.0,0.0,0.0,0.0,0.0,0.0,0.0,0.0,0.0,0.0,0.0,0.0,0.0,0.0,0.0,0.0,0.0,0.0,0.0,0.0,0.0,0.0,0.0,0.0,0.0,0.0,0.0,0.0,0.0,0.0,0.0,0.0,0.0,0.0,0.0,0.0,0.0,0.0,0.0,0.0,0.0,0.0,0.0,0.0,0.0,0.0,0.0,0.0,0.0,0.0,0.0,0.0,0.0,0.0,0.0,0.0,0.0,0.0,0.0,0.0,0.0,0.0,0.0,0.0,0.0,0.0,0.0,0.0,0.0,0.0,0.0,0.0,0.0,0.0,0.0,0.0,0.0,0.0,0.0,0.0,0.0,0.0,0.0,0.0,0.0,0.0,0.0,0.0,0.0,0.0,0.0,0.0,0.0,0.0,0.0,0.0,0.0,0.0,0.0,0.0,0.0,0.0,0.0,0.0,0.0,0.0,0.0,0.0,0.0,0.0,0.0,0.0,0.0,0.0,0.0,0.0,0.0,0.0,0.0,0.0,0.0,0.0,0.0,0.0,0.0,0.0,0.0,0.0,0.0,0.0,0.0,0.0,0.0,0.0,0.0,0.0,0.0,0.0,0.0,0.0,0.0,0.0,0.0,0.0,0.0,0.0,0.0,0.0,0.0,0.0,0.0,0.0,0.0,0.0,0.0,0.0,0.0,0.0,0.0,0.0,0.0,0.0,0.0,0.0,0.0,0.0,0.0,0.0,0.0,0.0,0.0,0.0,0.0,0.0,0.0,0.0,0.0,0.0,0.0,0.0,0.0,0.0,0.0,0.0,0.0,0.0,0.0,0.0,0.0,0.0,0.0,0.0,0.0,0.0,0.0,0.0,0.0,0.0,0.0,0.0,0.0,0.0,0.0,0.0,0.0,0.0,0.0,0.0,0.0,0.0,0.0,0.0,0.0,0.0,0.0,0.0,0.0,0.0,0.0,0.0,0.0,0.0,0.0,0.0,0.0,0.0,0.0,0.0,0.0,0.0,0.0,0.0,0.0,0.0,0.0,0.0,0.0,0.0,0.0,0.0,0.0,0.0,0.0,0.0,0.0,0.0,0.0,0.0,0.0,0.0,0.0,0.0,0.0,0.0,0.0,0.0,0.0,0.0,0.0,0.0,0.0,0.0,0.0,0.0,0.0,0.0,0.0,0.0,0.0,0.0,0.0,0.0,0.0,0.0,0.0,0.0,0.0,0.0,0.0,0.0,0.0,0.0,0.0,0.0,0.0,0.0,0.0,0.0,0.0,0.0,0.0,0.0,0.0,0.0,0.0,0.0,0.0,0.0,0.0,0.0,0.0,0.0,0.0,0.0,0.0,0.0,0.0,0.0,0.0,0.0,0.0,0.0,0.0,0.0,0.0,0.0,0.0,0.0,0.0,0.0,0.0,0.0,0.0,0.0,0.0,0.0,0.0,0.0,0.0,0.0,0.0,0.0,0.0,0.0,0.0,0.0,0.0,0.0,0.0,0.0,0.0,0.0,0.0,0.0,0.0,0.0,0.0,0.0,0.0,0.0,0.0,0.0,0.0,0.0,0.0,0.0,0.0,0.0,0.0,0.0,0.0,0.0,0.0,0.0,0.0,0.0,0.0,0.0,0.0,0.0,0.0,0.0,0.0,0.0,0.0,0.0,0.0,0.0,0.0,0.0,0.0,0.0,0.0,0.0,0.0,0.0,0.0,0.0,0.0,0.0,0.0,0.0,0.0,0.0,0.0,0.0,0.0,0.0,0.0,0.0,0.0,0.0,0.0,0.0,0.0,0.0,0.0,0.0,0.0,0.0,0.0,0.0,0.0,0.0,0.0,0.0,0.0,0.0,0.0,0.0,0.0,0.0,0.0,0.0,0.0,0.0,0.0,0.0,0.0,0.0,0.0,0.0,0.0,0.0,0.0,0.0,0.0,0.0,0.0,0.0,0.0,0.0,0.0,0.0,0.0,0.0,0.0,0.0,0.0,0.0,0.0,0.0,0.0,0.0,0.0,0.0,0.0,0.0,0.0,0.0,0.0,0.0,0.0,0.0,0.0,0.0,0.0,0.0,0.0,0.0,0.0,0.0,0.0,0.0,0.0,0.0,0.0,0.0,0.0,0.0,0.0,0.0,0.0,0.0,0.0,0.0,0.0,0.0,0.0,0.0,0.0,0.0,0.0,0.0,0.0,0.0,0.0,0.0,0.0,0.0,0.0,0.0,0.0,0.0,0.0,0.0,0.0,0.0,0.0,0.0,0.0,0.0,0.0,0.0,0.0,0.0,0.0,0.0,0.0,0.0,0.0,0.0,0.0,0.0,0.0,0.0,0.0,0.0,0.0,0.0,0.0,0.0,0.0,0.0,0.0,0.0,0.0,0.0,0.0,0.0,0.0,0.0,0.0,0.0,0.0,0.0,0.0,0.0,0.0,0.0,0.0,0.0,0.0,0.0,0.0,0.0,0.0,0.0,0.0,0.0,0.0,0.0,0.0,0.0,0.0,0.0,0.0,0.0,0.0,0.0,0.0,0.0,0.0,0.0,0.0,0.0,0.0,0.0,0.0,0.0,0.0,0.0,0.0,0.0,0.0,0.0,0.0,0.0,0.0,0.0,0.0,0.0,0.0,0.0,0.0,0.0,0.0,0.0,0.0,0.0,0.0,0.0,0.0,0.0,0.0,0.0,0.0,0.0,0.0,0.0,0.0,0.0,0.0,0.0,0.0,0.0,0.0,0.0,0.0,0.0,0.0,0.0,0.0,0.0,0.0,0.0,0.0,0.0,0.0,0.0,0.0,0.0,0.0,0.0,0.0,0.0,0.0,0.0,0.0,0.0,0.0,0.0,0.0,0.0,0.0,0.0,0.0,0.0,0.0,0.0,0.0,0.0,0.0,0.0,0.0,0.0,0.0,0.0,0.0,0.0,0.0,0.0,0.0,0.0,0.0,0.0,0.0,0.0,0.0,0.0,0.0,0.0,0.0,0.0,0.0,0.0,0.0,0.0,0.0,0.0,0.0,0.0,0.0,0.0,0.0,0.0,0.0,0.0,0.0,0.0,0.0,0.0,0.0,0.0,0.0,0.0,0.0,0.0,0.0,0.0,0.0,0.0,0.0,0.0,0.0,0.0,0.0,0.0,0.0,0.0,0.0,0.0,0.0,0.0,0.0,0.0,0.0,0.0,0.0,0.0,0.0,0.0,0.0,0.0,0.0,0.0,0.0,0.0,0.0,0.0,0.0,0.0,0.0,0.0,0.0,0.0,0.0,0.0,0.0,0.0,0.0,0.0,0.0,0.0,0.0,0.0,0.0,0.0,0.0,0.0,0.0,0.0,0.0,0.0,0.0,0.0,0.0,0.0,0.0,0.0,0.0,0.0,0.0,0.0,0.0,0.0,0.0,0.0,0.0,0.0,0.0,0.0,0.0,0.0,0.0,0.0,0.0,0.0,0.0,0.0,0.0,0.0,0.0,0.0,0.0,0.0,0.0,0.0,0.0,0.0,0.0,0.0,0.0,0.0,0.0,0.0,0.0,0.0,0.0,0.0,0.0,0.0,0.0,0.0,0.0,0.0,0.0,0.0,0.0,0.0,0.0,0.0,0.0,0.0,0.0,0.0,0.0,0.0,0.0,0.0,0.0,0.0,0.0,0.0,0.0,0.0,0.0,0.0,0.0,0.0,0.0,0.0,0.0,0.0,0.0,0.0,0.0,0.0,0.0,0.0,0.0,0.0,0.0,0.0,0.0,0.0,0.0,0.0,0.0,0.0,0.0,0.0,0.0,0.0,0.0,0.0,0.0,0.0,0.0,0.0,0.0,0.0,0.0,0.0,0.0,0.0,0.0,0.0,0.0,0.0,0.0,0.0,0.0,0.0,0.0,0.0,0.0,0.0,0.0,0.0,0.0,0.0,0.0,0.0,0.0,0.0,0.0,0.0,0.0,0.0,0.0,0.0,0.0,0.0,0.0,0.0,0.0,0.0,0.0,0.0,0.0,0.0,0.0,0.0,0.0,0.0,0.0,0.0,0.0,0.0,0.0,0.0,0.0,0.0,0.0,0.0,0.0,0.0,0.0,0.0,0.0,0.0,0.0,0.0,0.0,0.0,0.0,0.0,0.0,0.0,0.0,0.0,0.0,0.0,0.0,0.0,0.0,0.0,0.0,0.0,0.0,0.0,0.0,0.0,0.0,0.0,0.0,0.0,0.0,0.0,0.0,0.0,0.0,0.0,0.0,0.0,0.0,0.0,0.0,0.0,0.0,0.0,0.0,0.0,0.0,0.0,0.0,0.0,0.0,0.0,0.0,0.0,0.0,0.0,0.0,0.0,0.0,0.0,0.0,0.0,0.0,0.0,0.0,0.0,0.0,0.0,0.0,0.0,0.0,0.0,0.0,0.0,0.0,0.0,0.0,0.0,0.0,0.0,0.0,0.0,0.0,0.0,0.0,0.0,0.0,0.0,0.0,0.0,0.0,0.0,0.0,0.0,0.0,0.0,0.0,0.0,0.0,0.0,0.0,0.0,0.0,0.0,0.0,0.0,0.0,0.0,0.0,0.0,0.0,0.0,0.0,0.0,0.0,0.0,0.0,0.0,0.0,0.0,0.0,0.0,0.0,0.0,0.0,0.0,0.0,0.0,0.0,0.0,0.0,0.0,0.0,0.0,0.0,0.0,0.0,0.0,0.0,0.0,0.0,0.0,0.0,0.0,0.0,0.0,0.0,0.0,0.0,0.0,0.0,0.0,0.0,0.0,0.0,0.0,0.0,0.0,0.0,0.0,0.0,0.0,0.0,0.0,0.0,0.0,0.0,0.0,0.0,0.0,0.0,0.0,0.0,0.0,0.0,0.0,0.0,0.0,0.0,0.0,0.0,0.0,0.0,0.0,0.0,0.0,0.0,0.0,0.0,0.0,0.0,0.0,0.0,0.0,0.0,0.0,0.0,4.4949,0.0,0.0,0.0,0.0,0.0,0.0,0.0,0.0,0.0,0.0,0.0,0.0,0.0,0.0,0.0,0.0,0.0,0.0,0.0,0.0,0.0,0.0,0.0,0.0,0.0,0.0,0.0,0.0,0.0,0.0,0.0,0.0,0.0,0.0,0.0,0.0,0.0,0.0,0.0,4.3506,4.3506,4.3506,4.3506,4.3506,4.3506,0.0,0.0,0.0,0.0,0.0,0.0,0.0,0.0,0.0,0.0,0.0,0.0,0.0,0.0,0.0,0.0,0.0,0.0,0.0,0.0,0.0,0.0,0.0,0.0,0.0,0.0,0.0,0.0,0.0,0.0,0.0,0.0,0.0,0.0,0.0,0.0,0.0,0.0,0.0,0.0,0.0,0.0,0.0,0.0,0.0,0.0,0.0,0.0,0.0,0.0,0.0,0.0,0.0,0.0,0.0,0.0,0.0,0.0,0.0,0.0,0.0,0.0,0.0,0.0,0.0,0.0,0.0,0.0,0.0,0.0,0.0,4.3942,0.0,0.0,0.0,0.0,0.0,0.0,0.0,0.0,0.0,0.0,0.0,0.0,0.0,0.0,0.0,0.0,0.0,0.0,0.0,0.0,0.0,0.0,0.0,0.0,0.0,0.0,0.0,0.0,0.0,0.0,0.0,0.0,0.0,0.0,0.0,0.0,0.0,0.0,4.3506,4.3506,4.3506,4.3506,4.3506,4.3506,4.3506,0.0,0.0,0.0,0.0,0.0,0.0,0.0,0.0,0.0,0.0,0.0,0.0,0.0,0.0,0.0,0.0,0.0,0.0,0.0,0.0,0.0,0.0,0.0,0.0,0.0,0.0,0.0,0.0,0.0,0.0,0.0,0.0,0.0,0.0,0.0,0.0,0.0,0.0,0.0,0.0,0.0,0.0,0.0,0.0,0.0,0.0,0.0,0.0,0.0,0.0,0.0,0.0,0.0,0.0,0.0,0.0,0.0,0.0,0.0,0.0,0.0,0.0,0.0,4.6956,4.7329,4.8075,4.7578,4.6947,4.6021,4.3028,4.2649,4.4085,4.3417,0.0,0.0,0.0,0.0,0.0,0.0,0.0,0.0,0.0,0.0,0.0,0.0,0.0,0.0,0.0,0.0,0.0,0.0,0.0,0.0,0.0,4.415,4.3932,4.3932,4.367,4.3506,0.0,0.0,0.0,0.0,0.0,0.0,0.0,4.3506,4.3506,4.3506,4.3506,4.3506,4.3506,4.3506,4.3506,4.3506,4.3506,4.3506,4.3506,0.0,0.0,0.0,0.0,0.0,0.0,0.0,0.0,0.0,0.0,0.0,0.0,0.0,0.0,0.0,0.0,0.0,0.0,0.0,0.0,0.0,0.0,0.0,0.0,0.0,0.0,0.0,0.0,0.0,0.0,0.0,0.0,0.0,0.0,0.0,0.0,0.0,0.0,0.0,0.0,0.0,4.2198,4.23,0.0,0.0,0.0,0.0,0.0,0.0,0.0,0.0,0.0,0.0,0.0,0.0,0.0,4.665,4.665,4.738,4.7752,4.7753,4.7578,4.7976,4.8772,4.6322,4.5573,4.6069,4.3968,0.0,4.47,4.4589,0.0,0.0,0.0,0.0,0.0,0.0,0.0,0.0,0.0,0.0,0.0,0.0,0.0,0.0,0.0,0.0,0.0,0.0,0.0,0.0,0.0,4.3935,4.3718,4.3718,4.358,4.3506,4.3506,0.0,0.0,0.0,0.0,0.0,4.3506,4.3506,4.3506,4.3506,4.3506,4.3506,4.3506,4.3506,4.3506,4.3506,4.3506,4.3506,4.3453,4.281,0.0,0.0,0.0,0.0,0.0,0.0,0.0,0.0,0.0,0.0,0.0,0.0,0.0,0.0,0.0,0.0,0.0,0.0,0.0,0.0,0.0,0.0,0.0,0.0,0.0,0.0,0.0,0.0,0.0,0.0,0.0,0.0,0.0,0.0,0.0,0.0,0.0,0.0,0.0,4.2713,4.3098,4.3535,4.389,4.4062,0.0,0.0,0.0,0.0,0.0,0.0,0.0,0.0,0.0,4.738,4.7428,4.7614,4.8037,4.8359,4.8512,4.8512,4.8861,4.9213,4.9596,4.8761,4.8015,4.7321,4.647,4.5735,4.5143,4.5891,4.6659,4.7429,0.0,0.0,0.0,0.0,4.5536,4.503,0.0,0.0,0.0,0.0,0.0,0.0,0.0,0.0,0.0,0.0,0.0,0.0,4.4306,4.3889,4.3621,4.3621,4.3556,4.3506,4.3506,4.3506,0.0,0.0,0.0,4.3506,4.3506,4.3506,4.3506,4.3506,4.3506,4.3616,4.3818,4.3818,4.3928,4.4112,4.397,4.3768,4.3444,4.2591,4.2648,4.3268,0.0,0.0,0.0,0.0,0.0,0.0,0.0,0.0,0.0,0.0,0.0,0.0,0.0,0.0,0.0,0.0,0.0,0.0,0.0,0.0,0.0,0.0,0.0,0.0,0.0,0.0,0.0,0.0,0.0,0.0,0.0,0.0,0.0,0.0,0.0,0.0,0.0,4.3724,4.3927,4.453,4.477,4.4888,0.0,0.0,0.0,0.0,0.0,0.0,4.7073,4.7073,4.7428,4.8157,4.8174,4.8529,4.9272,4.9272,4.9373,4.9561,5.0118,5.0371,5.0388,5.0704,5.0038,4.8651,4.8156,4.734,4.6371,4.6665,4.7214,4.797,4.8669,4.8158,4.7037,4.6799,4.6257,4.563,0.0,0.0,0.0,0.0,0.0,0.0,0.0,0.0,0.0,0.0,0.0,4.5069,4.5052,4.4395,4.3978,4.3978,4.3677,4.3506,4.3506,4.3506,4.3506,4.3506,4.3506,4.3506,4.3506,4.3506,4.3506,4.3506,4.3506,4.3892,4.4645,4.4645,4.5057,4.5755,4.5257,4.4451,4.3506,4.3444,4.3142,4.2788,4.3259,0.0,0.0,0.0,0.0,0.0,0.0,0.0,0.0,0.0,0.0,0.0,0.0,0.0,0.0,0.0,0.0,0.0,0.0,0.0,0.0,0.0,0.0,0.0,0.0,0.0,0.0,0.0,0.0,0.0,0.0,0.0,0.0,0.0,0.0,0.0,0.0,0.0,0.0,4.4615,4.5227,0.0,0.0,0.0,0.0,4.6735,4.6783,4.7107,4.7819,4.7836,4.8174,4.8934,4.8951,4.9306,5.0049,5.0049,5.0388,5.1083,5.1133,5.1133,5.1118,5.0258,4.9816,4.9609,4.7763,4.7818,4.9005,4.6446,4.5956,4.6799,4.6839,4.733,4.7919,4.7037,4.6662,4.65,0.0,0.0,0.0,0.0,0.0,0.0,0.0,0.0,0.0,4.5434,4.5058,4.4788,4.4788,4.4113,4.3687,4.3687,4.3563,4.3506,4.3506,4.3506,4.3506,4.3506,4.3993,4.4507,4.5021,4.5039,4.5039,4.5039,4.5039,4.5186,4.548,4.548,4.5626,4.5893,4.5699,4.5182,4.4418,4.3544,4.3493,4.3926,4.3259,4.3069,0.0,0.0,0.0,0.0,0.0,0.0,0.0,0.0,0.0,0.0,0.0,0.0,0.0,0.0,0.0,0.0,0.0,0.0,0.0,0.0,0.0,0.0,0.0,0.0,0.0,0.0,0.0,0.0,0.0,0.0,0.0,0.0,0.0,0.0,0.0,0.0,0.0,4.5314,4.5957,0.0,4.6413,4.709,4.7498,4.7498,4.7953,4.8325,4.858,4.8597,4.8951,4.9678,4.9712,5.0067,5.0795,5.0811,5.093,5.1201,5.1674,5.1894,5.1911,5.2102,5.1809,5.1095,5.041,5.0075,4.9978,4.8985,4.8377,4.8117,4.8816,4.8477,4.7615,4.7951,4.764,4.7053,0.0,0.0,0.0,0.0,0.0,0.0,0.0,0.0,4.5564,4.5443,4.4948,4.4547,4.4419,4.386,4.3506,4.3506,4.3506,4.3616,4.3892,4.3901,4.4038,4.4295,4.4819,4.5351,4.5883,4.5902,4.5902,4.5902,4.5902,4.6049,4.6296,4.6296,4.6452,4.6709,4.6709,4.6484,4.6041,4.4877,4.4309,4.4131,4.3427,4.3362,4.373,0.0,0.0,0.0,0.0,0.0,0.0,0.0,0.0,0.0,0.0,0.0,0.0,0.0,0.0,0.0,0.0,0.0,0.0,0.0,0.0,0.0,0.0,0.0,0.0,0.0,0.0,0.0,0.0,0.0,0.0,0.0,0.0,0.0,0.0,0.0,4.6075,4.6075,4.6718,4.7175,4.7175,4.7836,4.8276,4.8276,4.8935,4.9373,4.9373,4.961,4.9982,5.0456,5.0473,5.0828,5.1556,5.1573,5.1708,5.1979,5.2469,5.2706,5.2723,5.3264,5.311,5.24,5.1704,5.1021,5.0355,4.9651,4.9062,4.8704,4.953,4.8815,4.7381,4.8051,4.7876,4.7309,0.0,0.0,0.0,0.0,0.0,0.0,0.0,4.5594,4.5485,4.5134,4.4812,4.4453,4.4035,4.3693,4.3506,4.3506,4.3506,4.3836,4.4645,4.47,4.5067,4.5902,4.5938,4.5957,4.5975,4.5975,4.5975,4.5975,4.5975,4.6379,4.7131,4.7131,4.7562,4.8296,4.8296,4.8296,4.8222,4.7442,4.5651,4.333,4.3845,4.41,4.4212,0.0,0.0,0.0,0.0,0.0,0.0,0.0,0.0,0.0,0.0,0.0,0.0,0.0,0.0,0.0,0.0,0.0,0.0,0.0,0.0,0.0,0.0,0.0,0.0,0.0,0.0,0.0,0.0,0.0,0.0,0.0,0.0,0.0,4.5838,4.6363,4.6834,4.6834,4.7496,4.7938,4.7938,4.8597,4.9035,4.9035,4.9712,5.0133,5.0133,5.0811,5.1218,5.1235,5.1235,5.159,5.2334,5.2334,5.2739,5.3501,5.3501,5.3501,5.3501,5.3518,5.3534,5.3416,5.1422,5.0573,5.0403,4.8391,4.7902,4.8464,4.8715,4.8229,4.7369,4.7412,4.7391,4.7369,0.0,0.0,0.0,0.0,0.0,0.0,0.0,4.5594,4.5485,4.5134,4.4812,4.4453,4.4035,4.3693,4.3506,4.3506,4.3506,4.3836,4.4645,4.47,4.5324,4.6718,4.6773,4.7049,4.7627,4.7645,4.7645,4.7645,4.7645,4.7746,4.7966,4.7966,4.8095,4.8296,4.8296,4.8055,4.7617,4.7399,4.6617,4.5517,4.5431,4.5377,4.5386,0.0,0.0,0.0,0.0,0.0,0.0,0.0,0.0,0.0,0.0,0.0,0.0,0.0,0.0,0.0,0.0,0.0,0.0,0.0,0.0,0.0,0.0,0.0,0.0,0.0,0.0,0.0,0.0,0.0,0.0,0.0,0.0,4.7329,4.6599,4.7141,4.7599,4.7599,4.8242,4.8698,4.8698,4.9357,4.9796,4.9796,5.049,5.0897,5.0897,5.1083,5.1438,5.1979,5.2012,5.2384,5.3162,5.3179,5.3281,5.3501,5.3501,5.3501,5.3518,5.4042,5.4296,5.4312,5.426,5.4246,5.4192,5.363,5.2579,5.1213,5.0004,4.9206,4.8849,4.9569,4.9383,4.8753,0.0,0.0,0.0,0.0,0.0,0.0,0.0,4.5594,4.5429,4.4948,4.4714,4.4399,4.386,4.3622,4.3635,4.3975,4.3993,4.4488,4.5636,4.6021,4.6627,4.7562,4.759,4.7819,4.8296,4.8296,4.8296,4.8296,4.8296,4.8296,4.8296,4.8296,4.8296,4.8296,4.8296,4.8123,4.7777,4.7777,4.7544,4.718,4.6975,4.6743,4.6484,4.6145,4.6166,4.6291,4.5554,4.5303,4.5319,4.5359,0.0,0.0,0.0,0.0,0.0,0.0,0.0,0.0,0.0,0.0,0.0,0.0,0.0,0.0,0.0,0.0,0.0,0.0,0.0,0.0,0.0,0.0,0.0,0.0,4.7885,4.8208,4.7784,4.8105,4.836,4.836,4.9018,4.9458,4.9458,5.0135,5.0557,5.0557,5.1251,5.1658,5.1658,5.1979,5.2351,5.279,5.2807,5.3027,5.3501,5.3501,5.3653,5.3957,5.3957,5.4126,5.4448,5.4871,5.5057,5.5056,5.5039,5.4775,5.4318,5.3874,5.2853,0.0,0.0,0.0,0.0,0.0,4.9797,4.9292,0.0,0.0,0.0,0.0,0.0,0.0,0.0,4.5568,4.5322,4.4676,4.456,4.4266,4.3582,4.3506,4.3818,4.4626,4.47,4.537,4.6984,4.7856,4.8296,4.8296,4.8296,4.8296,4.8296,4.8296,4.8296,4.8296,4.8296,4.8296,4.8296,4.8296,4.8296,4.8296,4.8296,4.8296,4.8296,4.8296,4.8296,4.8296,4.8296,4.7977,4.7481,4.7428,4.7736,4.809,4.729,4.7033,4.6914,4.6286,0.0,0.0,0.0,0.0,0.0,0.0,0.0,0.0,0.0,0.0,0.0,0.0,0.0,0.0,0.0,0.0,0.0,0.0,0.0,0.0,0.0,0.0,0.0,0.0,4.8563,4.9035,4.912,4.912,4.912,4.912,4.9695,5.0133,5.0218,5.088,5.1319,5.1319,5.1996,5.2435,5.2435,0.0,0.0,0.0,0.0,5.3619,5.3619,5.3721,5.4076,5.4718,5.4718,5.5074,5.5699,5.5783,5.5817,5.5782,5.492,5.3913,5.2841,5.1888,5.1097,5.0645,5.1879,5.1194,4.9501,4.9501,4.9501,4.9501,0.0,0.0,0.0,0.0,0.0,0.0,0.0,4.5362,4.5039,4.4644,4.4311,4.3966,4.3548,4.3506,4.3818,4.4626,4.47,4.537,4.6984,4.7856,4.8296,4.8296,4.8296,4.8296,4.8296,4.8296,4.8296,4.8296,4.8296,4.8296,4.8296,4.8296,4.8296,4.8296,4.8296,4.8296,4.8296,4.8296,4.8296,4.8296,4.8296,4.822,4.8075,4.7583,4.7459,4.7473,4.6787,4.6542,4.6585,4.698,4.712,4.7192,4.7676,0.0,0.0,0.0,0.0,0.0,0.0,0.0,0.0,0.0,0.0,0.0,0.0,0.0,0.0,0.0,0.0,0.0,0.0,0.0,0.0,4.8682,4.8917,4.9204,4.9796,4.9897,4.9897,4.9897,5.0015,5.0321,5.093,5.1641,5.2097,5.2097,5.2824,5.3264,5.3264,5.3416,5.3501,5.3501,5.4076,5.4397,5.4397,5.4989,5.5344,5.5479,0.0,0.0,5.5716,5.6308,5.6596,5.6612,5.7007,5.6527,5.5483,5.527,5.4075,5.2315,5.1706,5.1188,5.084,5.084,5.084,5.084,0.0,0.0,0.0,0.0,0.0,0.0,0.0,4.5211,4.4914,4.4366,4.4117,4.404,4.41,4.4103,4.4599,4.5801,4.6278,4.6847,4.7654,4.8076,4.8296,4.8296,4.8296,4.8296,4.8296,4.8296,4.8296,4.8296,4.8296,4.8296,4.8296,4.8296,4.8296,4.8296,4.8296,4.8296,4.8296,4.8296,4.8296,4.8296,4.8296,4.8296,4.8277,4.7957,4.7856,4.7808,4.7481,4.7356,4.7399,4.7746,4.7856,4.7907,4.8201,4.8296,4.8296,0.0,0.0,0.0,0.0,0.0,0.0,0.0,0.0,0.0,0.0,0.0,0.0,0.0,0.0,4.7926,0.0,0.0,4.8563,4.8951,4.9306,4.9678,5.0049,5.0422,5.0659,5.0659,5.098,5.1352,5.1708,5.2452,5.2909,5.2909,5.3281,5.3501,5.3501,5.3856,5.4042,5.4042,5.4769,5.5158,5.5158,5.5513,5.5885,5.624,5.624,5.6426,5.6816,5.7171,5.7034,5.6521,5.6888,5.6415,5.5353,5.4785,5.3554,5.1995,5.1433,5.1191,5.1191,5.1191,5.1191,5.1191,0.0,0.0,0.0,0.0,0.0,0.0,0.0,0.0,4.4769,4.4087,4.394,4.4111,4.4652,4.47,4.536,4.6966,4.7838,4.8296,4.8296,4.8296,4.8296,4.8296,4.8296,4.8296,4.8296,4.8296,4.8296,4.8296,4.8296,4.8296,4.8296,4.8296,4.8296,4.8296,4.8296,4.8296,4.8296,4.8296,4.8296,4.8296,4.8296,4.8296,4.8296,4.8296,4.8296,4.8296,4.8296,4.8296,4.8296,4.8296,4.8296,4.8296,4.8296,4.8296,4.8296,4.8296,4.8296,0.0,0.0,0.0,0.0,0.0,0.0,0.0,0.0,0.0,4.8662,4.8205,4.8107,4.8293,4.89,4.912,4.9221,4.9221,4.983,5.0355,5.0523,5.1048,5.1472,5.1624,5.203,5.2367,5.252,5.3129,5.3501,5.3501,5.3636,5.3721,5.3721,5.4414,5.4803,5.4803,5.553,5.5902,5.5902,5.6054,5.6444,5.7019,5.7019,5.7323,5.79,5.79,5.7279,5.6184,5.5754,5.5072,5.419,5.3055,5.2018,5.1191,5.1191,5.1191,5.1191,5.1191,5.1191,5.1191,0.0,0.0,0.0,0.0,0.0,0.0,0.0,0.0,0.0,4.4069,4.3742,4.3852,4.4617,4.47,4.536,4.6966,4.7838,4.8296,4.8296,4.8296,4.8296,4.8296,4.8296,4.8296,4.8296,4.8296,4.8296,4.8296,4.8296,4.8296,4.8296,4.8296,4.8296,4.8296,4.8296,4.8296,4.8296,4.8296,4.8296,4.8296,4.8296,4.8296,4.8296,4.8296,4.8296,4.8296,4.8296,4.8296,4.8296,4.8296,4.8296,4.8296,4.8296,4.8296,4.8296,4.8296,0.0,4.8296,4.8296,4.8335,4.8434,4.8704,4.8729,4.8566,0.0,0.0,4.8811,4.8865,4.8883,4.89,4.8984,4.9543,4.9981,4.9981,5.0608,5.1302,5.1961,5.2131,5.2452,5.3162,5.2689,5.2587,5.3298,5.345,5.3501,5.3501,5.411,5.4482,5.4482,5.5192,5.5581,5.5581,5.6274,5.6681,5.6681,5.7323,5.7714,5.7781,5.7781,5.7832,5.79,5.79,5.7279,5.609,5.4116,5.3193,5.3011,5.185,5.1331,5.1191,5.1191,5.1191,5.1191,5.1191,5.1191,5.1191,0.0,0.0,0.0,0.0,0.0,0.0,0.0,0.0,0.0,0.0,4.3589,4.3983,4.5259,4.6223,4.7067,4.7746,4.8113,4.8296,4.8296,4.8296,4.8296,4.8296,4.8296,4.8296,4.8296,4.8296,4.8296,4.8296,4.8296,4.8296,4.8296,4.8296,4.8296,4.8296,4.8296,4.8296,4.8296,4.8296,4.8296,4.8296,4.8296,4.8296,4.8296,4.8296,4.8296,4.8296,4.8296,4.8296,0.0,0.0,4.8296,4.8296,4.8296,4.8296,4.8398,4.8912,4.9068,0.0,4.8681,4.8641,0.0,0.0,4.8833,4.8868,4.9071,4.9327,4.9413,4.907,4.9001,4.9137,4.956,4.9881,5.0236,0.0,5.1369,5.1961,5.2266,5.2706,5.3129,5.3467,5.3213,5.3129,5.3467,5.3501,5.3687,5.411,5.4431,5.4786,5.5226,5.5936,5.6325,5.6325,5.7053,5.7442,5.7442,5.7764,5.79,5.7881,5.7224,5.6908,5.6889,5.626,5.5353,5.4221,5.3303,5.2515,5.1941,5.2094,5.1796,5.1191,5.1191,5.1191,5.1191,5.1191,5.1191,5.1191,0.0,0.0,0.0,0.0,0.0,0.0,0.0,0.0,0.0,0.0,4.3506,4.4112,4.5718,4.7352,4.8296,4.8296,4.8296,4.8296,4.8296,4.8296,4.8296,4.8296,4.8296,4.8296,4.8296,4.8296,4.8296,4.8296,4.8296,4.8296,4.8296,4.8296,4.8296,4.8296,4.8296,4.8296,4.8296,4.8296,4.8296,4.8296,4.8296,4.8296,4.8296,4.8296,4.8296,4.8296,4.8296,4.8296,4.8296,4.8296,4.8296,4.8333,4.8581,4.8655,4.8802,4.9674,4.9931,4.9858,4.9471,0.0,0.0,4.9187,4.9047,4.9063,4.9599,4.9722,4.9593,4.9107,4.9171,4.9458,4.9999,5.0422,5.0879,5.1421,5.2147,5.2638,5.2638,5.3129,5.3501,5.3501,5.3687,5.3805,5.3805,5.3805,5.411,5.4854,5.5091,5.5446,5.5969,5.6714,5.7103,5.7103,5.7611,5.79,5.79,5.79,5.79,5.7881,5.7057,5.6492,5.6148,5.476,5.3677,5.2878,5.2575,5.1949,5.1261,5.2086,5.1926,5.1191,5.1191,5.1191,5.1191,5.1191,5.1191,5.1191,0.0,0.0,0.0,0.0,0.0,0.0,0.0,0.0,0.0,0.0,0.0,0.0,0.0,4.7352,4.8296,4.8296,4.8296,4.8296,4.8296,4.8296,4.8296,4.8296,4.8296,4.8296,4.8296,4.8296,4.8296,4.8296,4.8296,4.8296,4.8296,4.8296,4.8296,4.8296,4.8296,4.8296,4.8296,4.8296,4.8296,4.8296,4.8296,4.8296,4.8296,4.8296,4.8296,4.8296,4.8296,4.8296,4.8296,0.0,4.8296,4.8443,4.9288,4.9527,0.0,5.0508,5.0765,0.0,0.0,0.0,4.9876,4.9945,4.9487,4.8998,4.9032,4.9032,4.9017,4.9001,4.956,5.0067,5.01,5.1268,5.2249,5.2266,5.2942,5.3467,5.3467,5.3484,5.3501,5.3501,5.4126,5.4583,0.0,5.4583,5.4871,5.5614,5.6342,5.6748,5.6765,5.7459,5.7883,5.7883,5.79,5.79,5.79,5.79,5.79,5.79,5.7863,5.7279,5.6126,5.3924,5.2923,5.2849,5.1727,5.1238,5.1191,5.1238,5.1238,5.1191,5.1191,5.1191,5.1191,5.1191,5.1191,5.1191,0.0,0.0,0.0,0.0,0.0,0.0,0.0,0.0,0.0,0.0,0.0,0.0,0.0,0.0,0.0,0.0,4.8296,4.8296,4.8296,4.8296,4.8296,4.8296,4.8296,4.8296,4.8296,4.8296,4.8296,4.8296,4.8296,4.8296,4.8296,4.8296,4.8296,4.8296,4.8296,4.8296,4.8296,4.8296,4.8296,4.8296,4.8296,4.8296,4.8296,4.8296,4.8296,4.8379,0.0,4.916,4.916,0.0,0.0,0.0,5.0306,0.0,0.0,5.1353,0.0,0.0,0.0,0.0,5.048,4.9554,4.9506,4.9551,4.9107,4.9001,4.9137,4.9627,4.9915,5.0404,5.1386,5.1961,5.2469,5.301,5.3331,5.3501,5.3501,5.3501,5.3687,5.416,5.4448,0.0,0.0,0.0,0.0,5.6358,5.6664,5.7019,5.7492,5.7781,5.79,5.79,5.79,5.79,5.79,5.79,5.79,5.7881,5.6412,5.5109,5.3961,5.2463,5.1758,5.175,5.1363,5.1191,5.1191,5.1191,5.1191,5.1191,5.1191,5.1191,5.1191,5.1191,5.1191,5.1191,0.0,0.0,0.0,0.0,0.0,0.0,0.0,0.0,0.0,0.0,0.0,0.0,0.0,0.0,0.0,0.0,0.0,4.8296,4.8296,4.8296,4.8296,4.8296,4.8296,4.8296,4.8296,4.8296,4.8296,4.8296,4.8296,4.8296,4.8296,4.8296,4.8296,4.8296,4.8296,4.8296,4.8296,4.8296,4.8296,4.8296,4.8296,4.8296,4.8296,4.8296,4.8296,0.0,4.9288,4.9784,5.0023,0.0,0.0,0.0,0.0,0.0,0.0,0.0,0.0,0.0,0.0,5.1099,5.0756,4.9346,4.9314,4.9519,4.9107,4.9204,4.9526,4.9999,5.0507,5.1183,5.2131,5.2536,5.2909,5.3416,5.3501,5.3501,5.3501,5.3737,5.4059,5.4532,5.5074,5.575,0.0,0.0,0.0,5.7154,5.7188,5.7391,5.7883,5.79,5.79,5.79,5.79,5.79,5.79,5.79,5.77,5.7279,5.5048,5.3613,5.2856,5.1727,5.1191,5.1191,5.1191,5.1191,5.1191,5.1191,5.1191,5.1191,5.1191,5.1191,5.1191,5.1191,5.1191,5.1191,0.0,0.0,0.0,0.0,0.0,0.0,0.0,0.0,0.0,0.0,0.0,0.0,0.0,0.0,0.0,0.0,0.0,0.0,4.8296,4.8296,4.8296,4.8296,4.8296,4.8296,4.8296,4.8296,4.8296,4.8296,4.8296,4.8296,4.8296,4.8296,4.8296,4.8296,4.8296,4.8296,4.8296,4.8296,4.8296,4.8296,4.8296,4.8296,4.8296,4.8296,4.8296,4.8406,4.9325,5.0151,5.082,0.0,0.0,0.0,0.0,0.0,0.0,0.0,0.0,5.2831,5.1474,5.1099,5.0756,4.9346,4.9032,4.9048,4.9052,4.9593,5.0117,5.0201,5.1319,5.2317,0.0,0.0,5.3501,5.3501,5.3501,5.3518,5.3551,5.416,5.4634,0.0,0.0,0.0,0.0,0.0,0.0,5.79,5.79,5.79,5.79,5.79,5.79,5.79,5.79,5.7863,5.781,5.781,5.7279,5.6168,5.4025,5.2967,5.2856,5.1727,5.1191,5.1191,5.1191,5.1191,5.1191,5.1191,5.1191,5.1191,5.1191,5.1191,5.1191,5.1191,5.1191,5.1191,0.0,0.0,0.0,0.0,0.0,0.0,0.0,0.0,0.0,0.0,0.0,0.0,0.0,0.0,0.0,0.0,0.0,0.0,4.8296,4.8296,4.8296,4.8296,4.8296,4.8296,4.8296,4.8296,4.8296,4.8296,4.8296,4.8296,4.8296,4.8296,4.8296,4.8296,4.8296,4.8296,4.8296,4.8296,4.8296,4.8296,4.8296,4.8296,4.8296,4.8296,4.8296,4.848,4.9976,5.0637,5.0894,0.0,0.0,0.0,0.0,5.3031,5.3196,0.0,0.0,5.2189,5.133,5.1099,5.0756,4.9346,4.9374,4.9759,4.9801,4.9981,5.0421,5.1505,5.2046,5.2486,0.0,0.0,0.0,5.3501,5.3501,0.0,5.4228,5.4482,0.0,5.6105,0.0,5.7019,5.756,5.7798,0.0,0.0,5.79,5.79,5.79,5.79,5.79,5.79,5.79,5.7482,5.6644,5.6644,5.6492,5.6168,5.4822,5.372,5.2856,5.1727,5.1191,5.1191,5.1191,5.1191,5.1191,5.1191,5.1191,5.1191,5.1191,5.1191,5.1191,5.1191,5.1191,5.1191,0.0,0.0,0.0,0.0,0.0,0.0,0.0,0.0,0.0,0.0,0.0,0.0,0.0,0.0,0.0,0.0,0.0,0.0,0.0,4.8296,4.8296,4.8296,4.8296,4.8296,4.8296,4.8296,4.8296,4.8296,4.8296,4.8296,4.8296,4.8296,4.8296,4.8296,4.8296,4.8296,4.8296,4.8296,4.8296,0.0,0.0,4.8296,4.8296,4.8296,4.8296,4.8517,5.0196,5.1251,5.1911,5.238,0.0,5.3196,5.3196,5.3196,5.3196,5.3196,0.0,5.2376,5.1368,5.1099,5.0756,4.9346,4.9286,4.9667,5.0024,5.0338,5.0913,5.2063,5.2587,0.0,5.3416,5.3501,5.3501,0.0,0.0,0.0,5.4499,5.4871,5.5513,0.0,5.7087,0.0,5.7866,5.79,5.79,0.0,5.79,5.79,5.79,5.79,5.79,5.79,5.79,5.7353,5.6224,5.5734,5.5252,5.4744,5.3618,5.2783,5.2116,5.1487,5.1191,5.1191,0.0,5.1191,5.1191,5.1191,5.1191,5.1191,5.1191,5.1191,5.1191,5.1191,5.1191,5.1191,0.0,0.0,0.0,0.0,0.0,0.0,0.0,0.0,0.0,0.0,0.0,0.0,0.0,0.0,0.0,0.0,0.0,0.0,0.0,0.0,4.8296,4.8296,4.8296,4.8296,4.8296,4.8296,4.8296,4.8296,4.8296,4.8296,4.8296,4.8296,4.8296,4.8296,4.8296,4.8296,4.8296,4.8296,4.8296,4.8296,4.8296,4.8296,4.8296,0.0,0.0,4.8517,5.0196,5.182,5.3196,5.3196,5.3196,5.3196,5.3196,5.3196,5.3196,5.3196,5.3196,5.2893,5.1487,5.1099,5.0756,4.9346,4.9069,4.934,5.0067,5.0828,5.1556,5.2317,0.0,5.3501,5.3501,5.3501,5.3501,5.3501,0.0,5.3907,5.4634,5.5395,5.6122,5.6867,5.7509,5.79,5.79,5.79,5.79,5.79,5.79,5.79,5.79,5.79,5.79,5.79,5.7626,5.7074,5.6204,5.4986,5.3871,5.2878,5.1896,5.1339,5.1191,5.1191,5.1191,5.1191,5.1191,5.1191,5.1191,5.1191,5.1191,5.1191,5.1191,5.1191,5.1191,5.1191,5.1191,5.1206,0.0,0.0,0.0,0.0,0.0,0.0,0.0,0.0,0.0,0.0,4.4892,0.0,0.0,0.0,0.0,0.0,0.0,0.0,0.0,0.0,0.0,4.8296,4.8296,4.8296,4.8296,4.8296,4.8296,4.8296,4.8296,4.8296,4.8296,4.8296,4.8296,4.8296,4.8296,4.8296,4.8296,4.8296,4.8296,4.8296,4.8296,4.8296,4.8296,4.8296,0.0,0.0,5.0196,5.182,5.3196,5.3196,5.3196,5.3196,5.3196,5.3196,5.3196,5.3196,5.3196,5.2893,5.1487,5.1099,5.0756,4.9346,4.9458,5.0101,5.0845,5.1573,0.0,0.0,5.3399,5.3501,5.3501,5.3501,5.3501,5.3501,5.4008,5.4668,5.5412,5.6139,5.6884,0.0,5.7832,5.79,5.79,5.79,0.0,0.0,5.79,5.79,5.79,5.79,5.79,5.79,5.6139,5.5494,5.6204,5.42,5.3099,5.29,5.2694,5.2094,5.1191,5.1191,5.1191,5.1191,5.1191,0.0,5.1191,5.1191,5.1191,5.1191,5.1191,5.1191,5.1191,5.1191,5.1191,5.1265,0.0,0.0,0.0,0.0,0.0,0.0,0.0,0.0,0.0,0.0,4.4544,4.5424,0.0,0.0,0.0,0.0,0.0,0.0,0.0,0.0,0.0,0.0,0.0,0.0,4.8296,4.8296,4.8296,4.8296,0.0,4.8296,4.8296,4.8296,4.8296,4.8296,4.8296,4.8296,4.8296,4.8296,4.8296,4.8296,4.8296,4.8296,0.0,0.0,0.0,0.0,0.0,5.182,5.3196,5.3196,5.3196,5.3196,5.3196,5.3196,5.3196,5.3196,5.2926,5.2411,5.1386,5.0823,5.0283,4.9258,4.9543,5.0287,5.1032,0.0,0.0,0.0,5.3501,5.3501,5.3501,5.3501,5.3501,5.3501,5.411,5.4854,5.5597,5.6325,5.707,5.7815,5.79,5.79,0.0,5.79,5.79,5.79,5.79,5.79,5.79,5.79,5.7628,5.7039,5.5988,5.5134,5.4494,5.3439,5.2604,5.2018,5.2018,5.1727,5.1191,5.1191,5.1191,5.1191,5.1191,5.1191,5.1191,5.1191,5.1191,5.1191,5.1191,5.1191,5.1191,5.1191,5.1415,5.1768,0.0,0.0,0.0,0.0,0.0,0.0,0.0,4.3506,4.3506,4.3506,4.4048,4.4745,4.5553,4.6516,4.7424,0.0,0.0,0.0,0.0,0.0,0.0,0.0,0.0,0.0,0.0,0.0,0.0,4.8296,4.8296,0.0,0.0,0.0,0.0,0.0,4.8296,4.8296,4.8296,4.8296,4.8296,0.0,0.0,4.8296,0.0,0.0,0.0,0.0,0.0,5.182,5.3196,5.3196,5.3196,5.3196,5.3196,5.3196,5.3175,5.3009,5.2554,5.1916,5.1099,5.0431,4.987,4.9371,4.9779,5.0524,5.1269,5.2029,0.0,5.3365,5.3501,5.3501,5.3501,5.3501,5.3551,5.3704,5.4346,5.5091,5.5817,5.6579,5.7256,5.7832,5.79,0.0,5.79,5.79,0.0,5.79,5.79,5.79,5.79,5.7681,5.7131,5.6224,5.5738,5.4661,5.2923,5.2649,5.2086,5.1191,5.1191,5.1191,5.1191,5.1191,5.1191,5.1191,5.1191,5.1191,5.1191,5.1191,5.1191,5.1191,5.1191,5.1191,5.1206,5.1355,5.1753,5.2232,0.0,0.0,0.0,0.0,0.0,0.0,0.0,4.3506,4.3506,4.3506,4.3561,4.3928,4.4718,4.6186,4.7424,0.0,0.0,0.0,0.0,0.0,0.0,0.0,0.0,0.0,0.0,0.0,0.0,4.8296,4.8296,0.0,0.0,0.0,0.0,0.0,0.0,4.8296,4.8296,4.8296,0.0,0.0,0.0,0.0,0.0,0.0,0.0,0.0,0.0,5.182,5.3196,5.3196,5.3196,5.3196,5.3196,5.3196,5.3082,5.2393,0.0,0.0,5.0472,5.0044,4.9991,4.9999,5.0557,5.1286,5.2029,0.0,5.3416,5.3484,5.3501,5.3501,5.3501,5.3501,5.3721,5.438,5.5124,5.5851,5.6613,5.7323,5.7832,5.79,0.0,0.0,5.79,5.79,5.79,5.79,5.79,5.79,5.79,5.6925,5.6301,5.6204,5.4242,5.3105,5.29,5.1873,5.1293,5.1191,5.1191,5.1191,5.1191,5.1191,5.1191,5.1191,5.1191,5.1191,0.0,5.1191,5.1191,5.1191,5.1191,5.1191,5.1265,5.1887,5.2157,5.2366,0.0,0.0,0.0,0.0,0.0,0.0,0.0,4.3506,4.3506,4.3506,4.3506,4.3818,4.4608,4.5269,4.6159,0.0,0.0,0.0,0.0,0.0,0.0,0.0,0.0,0.0,0.0,0.0,0.0,0.0,4.8296,0.0,0.0,0.0,0.0,0.0,0.0,4.8296,4.8296,4.8296,0.0,0.0,0.0,0.0,0.0,0.0,0.0,0.0,0.0,0.0,5.3196,5.3196,5.3196,0.0,5.3196,5.3196,0.0,0.0,5.182,5.1279,5.0265,4.9707,4.9517,4.9992,5.0659,5.1387,5.2131,0.0,5.3501,5.3501,5.3501,5.3501,5.3501,5.3501,5.3737,5.4482,5.5226,5.5953,5.6697,5.7425,5.79,5.79,5.79,5.79,0.0,0.0,5.79,5.79,5.7243,5.687,5.687,5.6454,5.5578,5.4263,5.3352,5.2575,5.1873,5.1433,5.1191,5.1191,5.1191,5.1191,5.1191,5.1191,5.1191,5.1191,5.1191,5.1191,0.0,5.1191,5.1191,5.1191,5.1191,5.1445,5.1843,5.2097,5.271,5.3488,0.0,0.0,0.0,0.0,0.0,0.0,4.3506,4.3506,4.3506,4.3506,4.3506,4.3726,4.4287,4.4553,4.5159,4.6287,0.0,0.0,0.0,0.0,0.0,0.0,0.0,0.0,0.0,0.0,0.0,0.0,0.0,0.0,0.0,0.0,4.8296,4.8296,0.0,0.0,0.0,0.0,0.0,0.0,0.0,0.0,0.0,0.0,0.0,0.0,0.0,0.0,0.0,0.0,0.0,5.3196,5.3196,5.3196,5.3071,5.2324,5.1618,5.0942,5.0199,4.9506,4.9238,5.0185,5.0812,5.1455,0.0,0.0,5.3501,5.3501,5.3501,5.3501,5.3501,5.3501,5.3822,5.4769,5.5361,5.602,5.6985,5.756,5.79,5.79,5.79,5.79,5.79,5.79,5.79,5.79,5.6851,5.605,5.5734,5.5397,5.4515,5.2945,5.256,5.2018,5.1214,5.1191,5.1191,5.1191,5.1191,5.1191,5.1191,5.1191,5.1191,5.1191,5.1191,5.1191,0.0,5.1191,5.1191,5.1221,5.1439,5.1798,5.2247,5.265,5.3399,5.4236,0.0,0.0,0.0,0.0,0.0,0.0,0.0,4.3506,4.3506,4.3506,4.3506,4.3506,4.3506,4.4213,4.4718,4.4718,0.0,0.0,0.0,0.0,0.0,0.0,0.0,0.0,0.0,0.0,0.0,0.0,0.0,0.0,0.0,0.0,4.8296,4.8296,0.0,0.0,0.0,0.0,0.0,0.0,0.0,0.0,0.0,0.0,0.0,0.0,0.0,0.0,0.0,0.0,0.0,0.0,0.0,5.3196,5.3071,5.2324,5.1618,5.0942,5.0199,4.9506,4.9357,5.0829,5.1201,5.1607,0.0,5.3501,5.3501,5.3501,5.3501,5.3501,5.3501,5.3501,5.3991,5.5445,5.5699,5.6206,5.7697,5.79,5.79,5.79,5.79,5.79,5.79,5.79,5.79,5.79,5.6851,0.0,5.4656,5.3548,5.2923,5.29,5.1804,5.1214,5.1191,5.1191,5.1191,5.1191,5.1191,5.1191,5.1191,5.1191,5.1191,5.1191,5.1191,5.1191,0.0,5.1191,5.1191,5.1265,5.1932,5.2187,5.2366,5.3698,5.4206,5.4271,0.0,0.0,0.0,0.0,0.0,0.0,0.0,4.3506,4.3506,4.3506,4.3506,4.3506,4.3506,4.3726,4.4103,4.4645,0.0,0.0,0.0,0.0,0.0,0.0,0.0,0.0,0.0,0.0,0.0,0.0,0.0,0.0,0.0,0.0,0.0,0.0,4.8296,0.0,0.0,0.0,0.0,0.0,0.0,0.0,0.0,0.0,0.0,0.0,0.0,0.0,0.0,0.0,0.0,0.0,0.0,0.0,0.0,5.2926,5.2024,0.0,5.0199,4.9506,4.9357,5.0829,5.1201,5.1607,5.3162,5.3501,5.3501,5.3501,5.3501,5.3501,5.3501,5.3501,5.3974,5.5462,5.5699,5.6206,5.7679,5.79,5.79,5.79,5.79,5.79,5.79,5.79,5.79,5.79,5.6162,5.4966,5.463,5.2783,5.175,5.175,5.1386,5.1191,5.1191,5.1191,5.1191,5.1191,5.1191,5.1191,5.1191,5.1191,5.1191,5.1191,5.1191,5.1191,5.1191,5.1191,5.1191,5.1265,5.1947,5.2471,5.298,5.3877,5.4491,5.491,0.0,0.0,0.0,0.0,0.0,0.0,0.0,4.3506,4.3506,4.3506,4.3506,4.3506,4.3506,4.3506,4.3708,4.4195,0.0,0.0,0.0,0.0,0.0,0.0,0.0,0.0,0.0,0.0,0.0,0.0,0.0,0.0,0.0,0.0,0.0,0.0,0.0,0.0,0.0,0.0,0.0,0.0,0.0,0.0,4.8296,0.0,0.0,0.0,0.0,0.0,0.0,0.0,0.0,0.0,0.0,0.0,0.0,0.0,5.2196,0.0,0.0,4.9928,4.9695,5.0897,5.1404,0.0,0.0,5.3501,5.3501,5.3501,5.3501,5.3501,5.3501,5.3501,5.3974,5.5462,5.5699,5.6206,5.7679,5.79,5.79,5.79,5.79,5.79,5.79,5.79,5.7718,5.7297,5.5611,5.4405,5.3977,5.2207,5.1191,5.1191,5.1191,5.1191,5.1191,5.1191,5.1191,5.1191,5.1191,5.1191,5.1191,5.1191,5.1191,5.1191,5.1191,5.1191,0.0,5.1191,5.1191,5.128,5.2217,5.2815,5.3318,5.4236,5.4835,5.5194,0.0,0.0,0.0,0.0,0.0,0.0,0.0,0.0,0.0,0.0,4.3506,4.3506,4.3506,4.3506,4.3506,0.0,0.0,0.0,0.0,0.0,0.0,0.0,0.0,0.0,0.0,0.0,0.0,0.0,4.8296,4.8296,4.8296,0.0,0.0,0.0,0.0,0.0,0.0,0.0,0.0,0.0,0.0,0.0,0.0,0.0,0.0,0.0,0.0,0.0,0.0,0.0,0.0,0.0,0.0,0.0,0.0,0.0,0.0,0.0,0.0,0.0,0.0,0.0,0.0,0.0,0.0,5.3501,0.0,5.3501,5.3501,5.3501,5.3501,5.3501,5.3974,5.5462,5.5699,5.6206,5.7679,5.79,5.79,5.79,5.79,5.79,5.79,5.79,5.7426,5.6282,5.5211,5.4105,5.2967,5.1804,5.1191,5.1191,5.1191,5.1191,5.1191,5.1191,5.1191,5.1191,5.1191,5.1191,5.1191,5.1191,5.1191,0.0,5.1191,5.1191,5.1191,5.1191,5.1221,5.1385,5.268,5.3243,5.3438,5.4715,5.5194,5.5194,0.0,0.0,0.0,0.0,0.0,0.0,0.0,0.0,0.0,0.0,4.3506,4.3506,4.3506,4.3506,4.3506,0.0,0.0,0.0,0.0,0.0,0.0,0.0,0.0,0.0,0.0,0.0,0.0,4.8296,4.8296,4.8296,4.8296,4.8296,0.0,0.0,0.0,0.0,0.0,0.0,0.0,0.0,0.0,0.0,0.0,0.0,0.0,0.0,5.0508,5.1316,0.0,0.0,0.0,0.0,0.0,0.0,0.0,0.0,5.1801,0.0,0.0,0.0,0.0,0.0,0.0,0.0,0.0,0.0,0.0,0.0,0.0,5.3501,5.3501,5.3501,5.3974,5.5462,5.5699,5.6206,5.7679,5.79,0.0,5.79,5.79,5.79,5.79,5.79,5.7426,5.6282,5.5211,5.4105,5.2967,5.1804,5.1191,5.1191,5.1191,5.1191,5.1191,5.1191,5.1191,5.1191,5.1191,5.1191,5.1191,5.1191,5.1191,5.1191,5.1191,5.1191,5.1191,5.1191,5.149,5.2052,5.2884,5.3503,5.4072,5.488,5.5194,5.5194,0.0,0.0,0.0,0.0,0.0,0.0,0.0,0.0,0.0,0.0,0.0,0.0,0.0,0.0,0.0,0.0,0.0,0.0,0.0,0.0,0.0,0.0,0.0,0.0,0.0,0.0,0.0,0.0,0.0,4.8296,0.0,0.0,0.0,0.0,0.0,0.0,0.0,0.0,0.0,0.0,4.8296,0.0,0.0,0.0,0.0,0.0,4.9949,5.0775,0.0,5.238,5.2884,5.3196,0.0,0.0,0.0,0.0,5.1691,5.0157,5.0903,5.0862,5.071,5.11,5.203,0.0,0.0,0.0,0.0,0.0,0.0,5.3501,5.3501,5.3788,5.438,0.0,5.5969,5.6613,5.7747,5.79,5.79,5.79,5.79,5.77,5.7168,5.7131,5.6434,5.4806,5.4153,5.3324,5.2184,5.1534,5.1191,5.1191,5.1191,5.1191,5.1191,5.1191,5.1191,5.1191,5.1191,5.1191,5.1191,5.1191,5.1191,5.1191,5.1191,5.1191,5.1191,5.1191,5.1618,5.2261,5.2944,5.3608,5.4281,5.494,5.5194,5.5194,0.0,0.0,0.0,0.0,0.0,0.0,0.0,0.0,0.0,0.0,0.0,0.0,0.0,0.0,0.0,0.0,0.0,0.0,0.0,0.0,0.0,0.0,0.0,0.0,0.0,0.0,0.0,0.0,0.0,0.0,0.0,0.0,0.0,0.0,0.0,0.0,0.0,0.0,0.0,0.0,4.8296,0.0,0.0,0.0,0.0,0.0,0.0,0.0,0.0,5.1867,5.2637,5.3196,5.3196,0.0,0.0,0.0,0.0,0.0,5.0903,5.1159,5.1201,5.1201,5.2351,5.3501,0.0,0.0,0.0,0.0,0.0,0.0,5.3653,5.4177,0.0,0.0,0.0,5.7188,5.7815,5.79,5.79,5.79,5.79,5.7463,5.6301,5.6204,5.5296,5.3077,5.29,5.2395,5.1261,5.1191,5.1191,5.1191,5.1191,5.1191,5.1191,5.1191,5.1191,5.1191,5.1191,5.1191,5.1191,5.1191,5.1191,5.1191,0.0,0.0,5.1191,5.1191,5.1663,5.2411,5.2989,5.3668,5.4431,5.4985,5.5194,5.5194,0.0,0.0,0.0,0.0,0.0,0.0,0.0,0.0,0.0,0.0,0.0,0.0,0.0,0.0,0.0,0.0,0.0,0.0,0.0,0.0,0.0,0.0,0.0,0.0,0.0,0.0,0.0,0.0,0.0,0.0,4.8296,4.8296,4.8296,0.0,0.0,0.0,0.0,0.0,0.0,0.0,4.8296,0.0,0.0,0.0,0.0,0.0,0.0,0.0,0.0,5.2517,5.3104,5.3196,5.3196,0.0,0.0,0.0,0.0,0.0,5.0903,5.1159,5.1201,5.1201,5.2351,5.3501,5.3501,5.3501,0.0,0.0,0.0,0.0,0.0,5.4515,5.504,0.0,0.0,5.7781,5.7883,0.0,5.79,5.79,5.79,5.7463,5.6301,5.6204,5.5296,5.3077,5.29,5.2395,5.1261,5.1191,5.1191,5.1191,5.1191,5.1191,5.1191,5.1191,5.1191,5.1191,5.1191,5.1191,5.1191,5.1191,5.1191,5.1191,0.0,5.1191,5.1191,5.1191,5.1932,5.3064,5.3169,5.3977,5.5059,5.5149,5.5194,5.5194,0.0,0.0,0.0,0.0,0.0,0.0,0.0,0.0,0.0,0.0,0.0,0.0,0.0,0.0,0.0,0.0,0.0,0.0,0.0,0.0,0.0,0.0,0.0,0.0,0.0,0.0,0.0,0.0,0.0,4.8296,4.8296,4.8296,4.8296,4.8296,0.0,0.0,0.0,0.0,0.0,0.0,0.0,0.0,0.0,0.0,0.0,0.0,0.0,0.0,0.0,0.0,5.2829,5.3196,5.3196,0.0,0.0,0.0,0.0,0.0,5.0903,5.1159,5.1201,5.1201,0.0,5.3501,5.3501,5.3501,0.0,0.0,0.0,0.0,0.0,0.0,5.5683,5.7154,0.0,5.79,5.79,5.79,5.79,0.0,5.79,5.7222,5.5494,5.5333,5.4389,5.2139,5.1972,5.175,5.1238,5.1191,5.1191,5.1191,5.1191,5.1191,5.1191,5.1191,5.1191,5.1191,5.1191,5.1191,5.1191,5.1191,5.1191,5.1191,0.0,5.1191,5.1191,5.1191,5.1992,5.3198,5.3198,5.4037,5.5194,5.5194,5.5194,5.5194,0.0,0.0,0.0,0.0,0.0,0.0,0.0,0.0,0.0,0.0,0.0,0.0,0.0,0.0,0.0,0.0,0.0,0.0,0.0,0.0,0.0,0.0,0.0,0.0,0.0,0.0,0.0,4.8296,4.8296,4.8296,4.8296,4.8296,4.8296,0.0,0.0,0.0,0.0,0.0,0.0,0.0,0.0,0.0,0.0,0.0,0.0,0.0,0.0,0.0,0.0,0.0,0.0,0.0,0.0,0.0,0.0,5.2769,5.1549,5.0149,5.0918,5.1168,5.1235,5.1404,0.0,5.3501,5.3501,0.0,0.0,0.0,0.0,0.0,0.0,5.5598,5.6596,5.773,5.79,5.79,5.79,5.79,5.79,5.79,5.79,5.7036,5.4817,5.461,5.3656,5.1363,5.1191,5.1191,5.1191,5.1191,5.1191,5.1191,5.1191,5.1191,5.1191,5.1191,5.1191,5.1191,5.1191,5.1191,5.1191,5.1191,5.1191,5.1191,5.1191,5.1191,5.1206,5.137,5.2127,5.3228,5.3354,5.4171,5.5194,5.5194,5.5194,5.5194,0.0,0.0,0.0,0.0,0.0,0.0,0.0,0.0,0.0,0.0,0.0,0.0,0.0,0.0,0.0,0.0,0.0,0.0,0.0,0.0,0.0,0.0,0.0,0.0,0.0,4.8296,4.8296,4.8296,4.8296,4.8296,4.8296,4.8296,4.8296,4.8296,0.0,0.0,0.0,0.0,0.0,0.0,0.0,0.0,0.0,0.0,0.0,0.0,0.0,0.0,0.0,0.0,0.0,0.0,0.0,0.0,5.2112,5.2159,5.1146,5.0175,5.0977,5.1196,5.1353,5.2046,5.2875,0.0,5.3501,5.3501,0.0,5.3501,0.0,0.0,0.0,5.6782,5.7781,5.7883,5.79,5.79,5.79,0.0,5.79,5.79,5.79,5.7036,5.4817,5.461,5.3656,5.1363,5.1191,5.1191,5.1191,5.1191,5.1191,5.1191,5.1191,5.1191,5.1191,5.1191,5.1191,5.1191,5.1191,5.1191,5.1191,5.1191,5.1191,5.1191,5.1191,5.1191,5.1251,5.1872,5.2546,5.3273,5.3892,5.4566,5.5194,5.5194,5.5194,5.5194,0.0,0.0,0.0,0.0,0.0,0.0,0.0,0.0,0.0,0.0,0.0,0.0,0.0,0.0,0.0,0.0,0.0,0.0,0.0,0.0,0.0,0.0,0.0,4.8296,4.8296,4.8296,4.8296,4.8296,4.8296,4.8296,4.8296,4.8296,0.0,0.0,0.0,0.0,0.0,0.0,0.0,0.0,0.0,0.0,0.0,0.0,0.0,0.0,0.0,0.0,0.0,0.0,5.3196,5.3196,5.3196,5.3009,5.2684,5.2236,5.1431,5.0757,5.1118,5.1201,5.1387,5.2131,5.2909,0.0,0.0,5.3501,5.3501,5.3501,5.4093,0.0,0.0,0.0,5.79,5.79,5.79,5.79,5.79,5.79,5.79,5.79,5.7262,5.626,5.4755,5.3956,5.2878,5.1316,5.1191,5.1191,5.1191,5.1191,5.1191,5.1191,5.1191,5.1191,5.1191,5.1191,5.1191,5.1191,5.1191,5.1191,5.1191,5.1191,5.1191,5.1191,5.1191,5.1191,5.1251,5.1932,5.2591,5.3318,5.4386,5.497,5.528,5.6035,5.6314,5.6314,0.0,0.0,0.0,0.0,0.0,0.0,0.0,0.0,0.0,0.0,0.0,0.0,0.0,0.0,0.0,0.0,0.0,0.0,0.0,0.0,0.0,0.0,0.0,4.8296,4.8296,4.8296,4.8296,4.8296,4.8296,4.8296,4.8296,0.0,0.0,0.0,0.0,0.0,0.0,0.0,0.0,0.0,0.0,0.0,0.0,0.0,0.0,0.0,0.0,0.0,0.0,0.0,5.3196,5.3196,5.3196,5.3031,5.2707,5.1994,5.1287,5.0809,5.1122,5.1188,5.1438,5.2435,0.0,0.0,5.3501,5.3501,5.3501,5.3501,5.4279,0.0,0.0,0.0,0.0,0.0,5.79,5.79,5.79,5.79,5.79,5.79,5.6889,5.5774,5.4697,5.3585,5.2418,5.1284,5.1191,5.1191,5.1191,5.1191,5.1191,5.1191,5.1191,5.1191,5.1191,5.1191,5.1191,5.1191,5.1191,5.1191,5.1191,5.1191,5.1191,5.1191,5.1191,5.1191,5.1265,5.2157,5.3049,5.3932,5.4835,5.5441,5.5869,5.6695,5.7237,5.7574,0.0,0.0,0.0,0.0,0.0,0.0,0.0,0.0,0.0,0.0,0.0,0.0,0.0,0.0,0.0,0.0,0.0,0.0,0.0,0.0,0.0,0.0,0.0,4.8296,4.8296,4.8296,4.8296,4.8296,4.8296,4.8296,4.8296,4.8296,0.0,0.0,0.0,0.0,0.0,0.0,0.0,0.0,0.0,0.0,0.0,0.0,0.0,0.0,0.0,0.0,0.0,0.0,5.3196,5.3196,5.3196,5.2695,5.1976,5.1305,5.0581,5.0192,5.0984,5.1201,5.1573,5.3112,0.0,0.0,5.3501,5.3518,5.3518,5.3534,0.0,5.6155,5.7646,0.0,0.0,5.79,5.79,5.79,5.79,5.79,5.79,5.79,5.6889,5.5774,5.4734,5.3585,5.244,5.1308,5.1214,5.1191,5.1191,5.1191,5.1191,5.1191,5.1191,5.1191,5.1191,5.1191,5.1191,5.1191,5.1191,5.1191,5.1191,5.1191,5.1191,5.1191,5.1191,5.1191,5.131,5.265,5.4007,5.5194,5.5194,5.5927,5.6999,5.6999,5.7784,5.8812,0.0,0.0,0.0,0.0,0.0,0.0,0.0,0.0,0.0,0.0,0.0,0.0,0.0,0.0,0.0,0.0,0.0,0.0,0.0,0.0,0.0,0.0,0.0,0.0,0.0,0.0,4.8296,4.8296,4.8296,4.8296,0.0,0.0,0.0,4.8296,0.0,0.0,0.0,0.0,0.0,0.0,0.0,4.8296,0.0,0.0,0.0,0.0,0.0,0.0,0.0,0.0,0.0,0.0,5.3196,5.3042,5.264,5.1449,5.0942,5.0836,5.1124,5.1201,0.0,5.3112,0.0,0.0,0.0,5.3907,0.0,0.0,5.6173,5.6765,5.773,0.0,0.0,5.79,5.79,5.79,5.79,5.79,5.79,5.79,5.6889,5.6087,5.5754,5.4025,5.2761,5.2418,5.1658,5.1191,5.1191,5.1191,5.1191,5.1191,5.1191,5.1191,5.1191,5.1191,5.1191,5.1191,5.1191,5.1191,5.1191,5.1191,5.1191,5.1191,5.1191,5.1483,5.2007,5.3354,5.4416,5.5194,5.5194,5.5927,5.7095,5.7946,5.902,6.0059,0.0,0.0,0.0,0.0,0.0,0.0,0.0,0.0,0.0,0.0,0.0,0.0,0.0,0.0,0.0,0.0,0.0,0.0,0.0,0.0,0.0,0.0,0.0,0.0,0.0,4.8296,4.8296,0.0,0.0,0.0,0.0,0.0,0.0,4.8296,0.0,4.8296,0.0,0.0,0.0,4.8296,4.8296,4.8296,4.8398,0.0,0.0,0.0,0.0,0.0,0.0,0.0,0.0,0.0,5.3196,5.2999,5.2543,5.1436,5.1119,5.1141,5.1194,5.1404,0.0,5.3196,5.3501,5.3653,5.4228,0.0,0.0,0.0,5.6613,5.7019,5.7746,5.79,0.0,5.79,5.79,5.79,5.79,5.79,5.79,5.79,5.6889,5.6204,5.6204,5.42,5.29,5.29,5.185,5.1191,5.1191,5.1191,5.1191,5.1191,5.1191,5.1191,5.1191,5.1191,5.1191,5.1191,5.1191,5.1191,5.1191,5.1191,5.1191,5.1206,5.1475,5.2142,5.3069,5.3877,5.4596,5.5255,5.5735,5.6662,5.7854,5.9081,6.0289,6.1317,0.0,0.0,0.0,0.0,0.0,0.0,0.0,0.0,0.0,0.0,4.4297,0.0,0.0,0.0,0.0,0.0,0.0,0.0,0.0,0.0,0.0,0.0,0.0,0.0,0.0,0.0,0.0,0.0,0.0,0.0,0.0,0.0,4.8296,4.8296,0.0,4.8296,0.0,4.8296,4.8296,4.8296,4.8296,4.8296,4.8398,4.9344,0.0,0.0,0.0,0.0,0.0,0.0,0.0,0.0,5.3196,5.2684,5.1964,5.1292,5.1146,5.1193,5.1205,5.1742,5.2486,5.3298,5.3501,0.0,5.5276,5.5141,5.4921,5.5733,0.0,5.7103,5.7781,5.79,5.79,5.79,5.79,5.79,5.79,5.79,5.79,5.79,5.6982,5.634,5.634,5.4348,5.3039,5.3039,5.1896,5.1191,5.1191,5.1191,5.1191,5.1191,5.1191,5.1191,5.1191,5.1191,5.1191,5.1191,5.1191,5.1191,5.1191,5.1191,5.1221,5.1325,5.2007,5.3025,5.4206,5.4281,5.4715,5.5466,5.6574,5.7807,5.9103,6.0204,6.1358,6.24,0.0,0.0,0.0,0.0,0.0,0.0,0.0,0.0,0.0,0.0,0.0,0.0,0.0,0.0,0.0,0.0,0.0,0.0,0.0,0.0,0.0,0.0,0.0,0.0,0.0,0.0,0.0,0.0,0.0,0.0,0.0,0.0,0.0,4.8296,0.0,4.8296,4.8296,4.8296,4.8296,4.8296,4.8296,4.8296,4.8462,4.9976,0.0,0.0,0.0,0.0,0.0,0.0,0.0,0.0,5.3196,5.2684,5.1964,5.1292,5.1146,5.1193,5.1205,5.1742,5.2486,5.3298,5.3501,5.3737,5.4634,5.5158,5.5834,5.7154,5.7543,5.7695,5.7883,5.79,5.79,5.79,5.79,5.79,5.79,5.79,5.79,5.79,5.7681,5.7519,5.7519,5.553,5.4232,5.4232,5.2365,5.1191,5.1191,5.1191,5.1191,5.1191,5.1191,5.1191,5.1191,5.1191,5.1191,5.1191,5.1191,5.1191,5.1191,5.1191,5.1475,5.2022,5.268,5.3443,5.4251,5.476,5.5624,5.6647,5.6896,5.8321,6.023,6.0501,6.1358,6.24,0.0,0.0,0.0,0.0,0.0,0.0,0.0,0.0,0.0,0.0,0.0,0.0,0.0,0.0,0.0,0.0,0.0,0.0,0.0,0.0,0.0,0.0,0.0,0.0,0.0,0.0,0.0,0.0,0.0,0.0,0.0,0.0,0.0,4.8296,0.0,4.8296,4.8296,4.8296,4.8296,4.8296,4.8296,4.8545,4.9068,0.0,0.0,0.0,0.0,0.0,0.0,0.0,0.0,0.0,0.0,0.0,5.1556,5.1202,5.1144,5.1193,5.1195,5.2013,5.2976,5.3399,5.3501,5.3788,5.4888,5.5411,5.6122,5.7612,5.79,5.79,5.79,5.79,5.79,5.79,5.79,5.79,5.79,5.79,5.79,5.79,5.79,5.79,5.79,5.5906,5.461,5.461,5.2485,5.1191,5.1191,5.1191,5.1191,5.1191,5.1191,5.1191,5.1191,5.1191,5.1191,5.1191,5.1191,5.1191,5.1191,5.1191,5.1753,5.2695,5.3064,5.3743,5.475,5.5668,5.642,5.7118,5.8275,5.9484,6.0665,6.1238,6.1874,6.24,0.0,0.0,0.0,0.0,0.0,0.0,0.0,0.0,0.0,0.0,0.0,0.0,0.0,0.0,0.0,0.0,0.0,0.0,0.0,0.0,0.0,0.0,0.0,0.0,0.0,0.0,0.0,0.0,0.0,0.0,0.0,0.0,0.0,4.8296,0.0,0.0,4.8296,4.8296,4.8388,4.8526,4.8526,4.904,0.0,0.0,0.0,0.0,0.0,0.0,5.3196,5.3196,0.0,0.0,0.0,0.0,5.1099,5.1099,5.1153,5.1201,5.1201,5.2317,5.3501,5.3501,5.3501,5.389,5.5361,5.5699,5.6122,5.7612,5.79,5.79,5.79,5.79,5.79,5.79,5.79,5.79,5.79,5.79,5.79,5.79,5.79,5.79,5.79,5.5906,5.461,5.461,5.2485,5.1191,5.1191,5.1191,5.1191,5.1191,5.1191,5.1191,5.1191,5.1191,5.1191,5.1191,5.1191,5.1191,5.1214,5.1538,5.2339,5.3498,5.3416,5.4298,5.5869,5.6671,5.7261,5.7815,5.9827,6.0728,6.1016,6.203,6.24,6.24,0.0,0.0,0.0,0.0,0.0,0.0,0.0,0.0,0.0,0.0,0.0,0.0,0.0,0.0,0.0,0.0,0.0,0.0,0.0,0.0,0.0,0.0,0.0,0.0,0.0,0.0,0.0,0.0,0.0,0.0,0.0,0.0,0.0,4.8296,0.0,0.0,0.0,4.8296,4.8728,4.9435,4.9435,4.9913,0.0,0.0,0.0,0.0,0.0,0.0,0.0,0.0,5.3196,0.0,0.0,0.0,5.1099,5.1099,5.1153,5.1201,5.1201,5.2317,5.3501,5.3501,5.3501,5.389,5.5361,5.5699,5.6122,5.7612,5.79,5.79,5.79,5.79,5.79,5.79,5.79,5.79,5.79,5.79,5.79,5.79,5.79,5.79,5.79,5.5906,5.461,5.461,5.2485,5.1191,5.1191,5.1191,5.1191,5.1191,5.1191,5.1191,5.1191,5.1191,5.1191,5.1191,5.1191,5.1191,5.1253,5.2879,5.4043,5.4738,5.4262,5.5682,5.8245,5.7355,5.8214,6.0145,6.0459,6.1238,6.2186,6.2341,6.24,6.24,0.0,0.0,0.0,0.0,0.0,0.0,0.0,0.0,0.0,0.0,0.0,0.0,0.0,0.0,0.0,0.0,0.0,0.0,0.0,0.0,0.0,0.0,0.0,0.0,0.0,0.0,0.0,0.0,0.0,0.0,0.0,4.8296,4.8296,0.0,0.0,0.0,0.0,0.0,0.0,0.0,0.0,0.0,0.0,0.0,0.0,0.0,0.0,0.0,0.0,0.0,0.0,5.3124,5.2707,0.0,0.0,0.0,5.1195,5.1387,5.2249,5.2976,5.3501,5.3501,5.3501,5.389,5.5361,5.5699,5.6122,5.7612,5.79,5.79,5.79,5.79,5.79,5.79,5.79,5.79,5.79,5.79,5.79,5.79,5.79,5.79,5.79,5.5906,5.461,5.461,5.2485,5.1191,5.1191,5.1191,5.1191,5.1191,5.1191,5.1191,5.1191,5.1191,5.1191,5.1191,5.1191,5.1191,5.1268,5.353,5.472,5.5061,5.5868,5.7208,5.8812,5.8953,5.9653,6.0665,6.1358,6.1934,6.24,6.24,6.24,6.24,0.0,0.0,0.0,0.0,0.0,0.0,0.0,0.0,0.0,0.0,0.0,0.0,0.0,0.0,0.0,0.0,0.0,0.0,0.0,0.0,0.0,0.0,0.0,0.0,0.0,0.0,0.0,0.0,0.0,0.0,4.8296,4.8296,4.8406,0.0,4.8636,0.0,0.0,0.0,0.0,0.0,0.0,0.0,0.0,0.0,0.0,0.0,0.0,0.0,0.0,0.0,0.0,0.0,0.0,5.1519,0.0,0.0,0.0,5.1776,5.3129,5.3501,5.3501,5.3501,5.3501,5.389,5.5361,5.5699,5.6122,5.7612,5.79,5.79,5.79,5.79,5.79,5.79,5.79,5.79,5.79,5.79,5.79,5.79,5.79,5.79,5.79,5.6142,5.4883,5.463,5.2761,5.1511,5.1214,5.1191,5.1191,5.1191,5.1191,5.1191,5.1191,5.1191,5.1191,5.1191,5.1191,5.1339,5.1711,5.4095,5.544,5.598,5.7414,5.8693,5.9762,6.0353,6.077,6.1156,6.205,6.24,6.24,6.24,6.24,6.24,0.0,0.0,0.0,0.0,0.0,0.0,0.0,0.0,0.0,0.0,0.0,0.0,0.0,0.0,0.0,0.0,0.0,0.0,0.0,0.0,0.0,0.0,0.0,0.0,0.0,0.0,0.0,0.0,0.0,0.0,4.8296,4.8296,4.8746,4.9537,4.9537,4.9555,4.9647,0.0,0.0,0.0,0.0,0.0,0.0,0.0,0.0,0.0,0.0,0.0,0.0,0.0,0.0,0.0,0.0,0.0,0.0,0.0,0.0,0.0,5.3281,5.3501,5.3501,5.3501,5.3501,5.389,5.5361,5.5699,5.6122,5.7612,5.79,5.79,5.79,5.79,5.79,5.79,5.79,5.79,5.79,5.79,5.79,5.79,5.79,5.79,5.79,5.6813,5.5694,5.4672,5.3498,5.2328,5.1261,5.1191,5.1191,5.1191,5.1191,5.1191,5.1191,5.1191,5.1191,5.1191,5.1191,5.1773,5.2887,5.478,5.6633,5.8314,5.8619,6.0069,6.2147,6.1053,6.1259,6.2322,6.2378,6.24,6.24,6.24,6.24,6.24,0.0,0.0,0.0,0.0,0.0,0.0,0.0,0.0,0.0,0.0,0.0,0.0,0.0,0.0,0.0,0.0,0.0,0.0,0.0,0.0,0.0,0.0,0.0,0.0,0.0,0.0,0.0,0.0,0.0,4.86,4.9142,4.9142,4.9582,5.0353,4.9821,5.017,5.1161,5.1455,0.0,0.0,0.0,0.0,0.0,0.0,0.0,0.0,0.0,0.0,0.0,0.0,0.0,0.0,0.0,0.0,0.0,0.0,0.0,5.3129,5.3416,5.3501,5.3501,5.3501,5.3501,5.389,5.5361,5.5699,5.6122,5.7612,5.79,5.79,5.79,5.79,5.79,5.79,5.79,5.79,5.79,5.79,5.79,5.79,5.79,5.79,5.79,5.687,5.5754,5.4693,5.3526,5.2395,5.1261,5.1191,5.1191,5.1191,5.1191,5.1557,5.2275,5.2298,5.2298,5.2298,5.2298,5.2508,5.2998,5.5598,5.7433,5.8579,5.9864,6.116,6.2361,6.1934,6.201,6.24,6.24,6.24,6.24,6.24,6.24,6.24,0.0,0.0,0.0,0.0,0.0,0.0,0.0,0.0,0.0,0.0,0.0,0.0,0.0,0.0,0.0,0.0,0.0,5.0707,5.0707,0.0,0.0,0.0,0.0,0.0,0.0,0.0,0.0,0.0,0.0,0.0,0.0,4.9876,5.0427,5.1169,5.0647,5.0996,0.0,0.0,0.0,5.3196,0.0,0.0,5.3196,0.0,0.0,0.0,0.0,0.0,0.0,0.0,0.0,0.0,0.0,0.0,0.0,0.0,0.0,0.0,5.3501,5.3501,5.3501,5.3501,5.3501,5.3822,5.5057,5.5513,5.6037,5.7273,5.7729,5.79,5.79,5.79,5.79,5.79,5.79,5.79,5.79,5.79,5.79,5.79,5.79,5.79,5.79,5.7222,5.6181,5.4713,5.3892,5.2805,5.1284,5.1557,5.1758,5.1758,5.1758,5.2116,5.2878,5.3281,5.3477,5.3477,5.3477,5.3656,5.4084,5.6075,5.7608,5.8749,6.0249,6.1467,6.24,6.24,6.24,6.24,6.24,6.24,6.24,6.24,6.24,6.24,0.0,0.0,0.0,0.0,0.0,0.0,0.0,0.0,0.0,0.0,0.0,0.0,0.0,0.0,0.0,0.0,0.0,5.0707,5.0707,5.0707,0.0,0.0,0.0,0.0,0.0,0.0,0.0,0.0,0.0,0.0,0.0,0.0,5.1261,0.0,5.2042,5.2042,5.2097,0.0,5.3196,5.3196,0.0,5.3196,5.3196,0.0,0.0,0.0,5.3196,5.3203,0.0,0.0,0.0,0.0,0.0,0.0,0.0,0.0,0.0,0.0,0.0,0.0,0.0,5.3501,5.3501,5.3687,5.4431,5.5175,5.5902,5.6664,5.7391,5.79,5.79,5.79,5.79,5.79,5.79,5.79,5.79,5.79,5.79,5.79,5.79,5.79,5.79,5.79,5.6998,5.4817,5.4651,5.3656,5.1363,5.2298,5.2923,5.2945,5.2989,5.3011,5.3011,5.4105,5.4651,5.4651,5.4651,5.5191,5.6204,5.6243,5.7251,5.903,5.9759,6.0926,6.235,6.2383,6.24,6.24,6.24,6.24,6.24,6.24,6.24,6.24,0.0,0.0,0.0,0.0,0.0,0.0,0.0,0.0,0.0,0.0,0.0,0.0,0.0,0.0,0.0,0.0,0.0,5.0707,5.0707,5.0707,5.0528,5.0123,5.0092,4.978,4.9075,0.0,0.0,0.0,0.0,0.0,0.0,0.0,0.0,0.0,5.2865,5.2865,5.2884,5.3104,0.0,0.0,5.3196,5.3196,0.0,0.0,0.0,0.0,0.0,5.3207,0.0,0.0,5.2616,5.212,0.0,0.0,0.0,0.0,0.0,0.0,5.3501,0.0,0.0,0.0,0.0,0.0,5.4431,5.5175,5.5902,5.6664,5.7391,5.79,5.79,5.79,5.79,5.79,5.79,5.79,5.79,5.79,5.79,5.79,5.79,5.79,5.79,5.79,5.7297,5.587,5.5754,5.4785,5.2537,5.2738,5.3281,5.4105,5.4888,5.5296,5.5296,5.5614,5.5754,5.5754,5.5754,5.5913,5.6224,5.7057,5.7995,5.9013,5.9216,5.986,6.0825,6.1924,6.24,6.24,6.24,6.24,6.24,6.24,6.24,6.24,0.0,0.0,0.0,0.0,0.0,0.0,0.0,0.0,0.0,0.0,0.0,0.0,0.0,0.0,0.0,0.0,5.0707,5.0707,5.0707,5.0707,5.0599,5.0358,5.0183,4.9807,4.9163,4.9316,0.0,0.0,0.0,0.0,0.0,0.0,0.0,0.0,0.0,0.0,0.0,0.0,0.0,0.0,5.3196,0.0,0.0,5.3196,5.3416,0.0,0.0,0.0,5.3705,5.3396,5.2632,0.0,0.0,0.0,0.0,0.0,0.0,0.0,0.0,0.0,0.0,0.0,0.0,0.0,5.4042,5.4955,5.5817,5.624,5.7171,5.79,5.79,5.79,5.79,5.79,5.79,5.79,5.79,5.79,5.79,5.79,5.79,5.79,5.79,5.79,5.7426,5.6282,5.6204,5.5638,5.4348,5.3855,5.411,5.5231,5.5873,5.6204,5.6204,5.6682,5.6908,5.6908,5.6908,5.6908,5.6927,5.7591,5.8118,5.8558,5.8879,5.9233,5.9742,6.0943,6.1637,6.1958,6.2282,6.24,6.24,6.24,6.24,6.24,0.0,0.0,0.0,0.0,0.0,0.0,0.0,0.0,0.0,0.0,0.0,0.0,0.0,0.0,0.0,0.0,5.0707,5.0745,5.0822,5.0822,5.088,5.0976,5.0593,5.0203,4.9859,5.0099,5.0128,0.0,0.0,0.0,0.0,0.0,0.0,0.0,0.0,0.0,0.0,0.0,0.0,5.3196,5.3196,5.3196,0.0,0.0,5.3794,0.0,5.4491,5.4519,5.4381,5.3666,5.255,0.0,0.0,0.0,0.0,0.0,5.3501,0.0,0.0,0.0,0.0,0.0,0.0,0.0,5.3501,5.4583,5.5597,5.5682,5.6816,5.7797,5.7883,5.79,5.79,5.79,5.79,5.79,5.79,5.79,5.79,5.79,5.79,5.79,5.79,5.79,5.7482,5.6473,5.6263,5.6263,5.6379,5.5353,5.5272,5.634,5.6379,5.6379,5.6379,5.7391,5.79,5.79,5.79,5.79,5.79,5.79,5.79,5.795,5.8592,5.8878,5.8947,5.9674,6.0452,6.1231,6.189,6.2127,6.2127,6.2127,6.2127,6.2127,0.0,0.0,0.0,0.0,0.0,0.0,0.0,0.0,0.0,0.0,0.0,0.0,0.0,0.0,0.0,0.0,0.0,5.0976,0.0,5.1678,5.1986,5.2683,5.2326,5.2075,5.2012,5.1437,5.1422,5.2001,5.1997,5.2325,0.0,0.0,0.0,0.0,0.0,0.0,0.0,0.0,0.0,5.3196,5.3196,0.0,5.3269,5.3922,5.4252,5.4473,5.5126,5.4985,5.4411,0.0,5.3292,5.3095,0.0,0.0,0.0,0.0,0.0,0.0,0.0,0.0,0.0,0.0,0.0,0.0,5.3501,5.4177,5.4972,5.5581,5.641,5.7205,5.7798,5.79,5.79,5.79,5.79,5.79,5.79,5.79,5.79,5.79,5.79,5.79,5.79,5.79,5.7808,5.7591,5.672,5.6589,5.7519,5.6492,5.6396,5.7519,5.7572,5.7572,5.7572,5.779,5.79,5.79,5.79,5.79,5.79,5.79,5.79,5.7917,5.8051,5.8101,5.8169,5.8913,5.9674,6.0351,6.0486,6.0554,6.0554,6.0554,6.0554,6.0554,0.0,0.0,0.0,0.0,0.0,0.0,0.0,0.0,0.0,0.0,0.0,0.0,0.0,0.0,0.0,0.0,0.0,0.0,0.0,0.0,5.2736,5.3178,5.2805,5.2501,5.2313,5.2104,5.2094,5.2304,5.2506,5.2792,5.3196,0.0,0.0,0.0,0.0,0.0,0.0,0.0,5.3801,5.3801,5.3801,0.0,5.3904,5.4693,5.5244,5.5603,5.5643,5.518,5.4431,5.3746,5.3501,0.0,0.0,5.3501,5.3501,0.0,5.3501,5.3501,0.0,0.0,0.0,5.3501,0.0,0.0,0.0,5.4059,5.4702,5.5074,5.6038,5.6917,5.7273,5.7663,5.79,5.79,5.79,5.79,5.79,5.79,5.79,5.79,5.79,5.79,5.79,5.79,5.79,5.79,5.7372,5.7297,5.7863,5.7353,5.7316,5.7881,5.79,5.79,5.79,5.79,5.79,5.79,5.79,5.79,5.79,5.79,5.79,5.79,5.79,5.79,5.7934,5.8287,5.8676,5.9066,5.981,6.0097,6.0097,6.0097,6.0097,6.0097,0.0,0.0,0.0,0.0,0.0,0.0,0.0,0.0,0.0,0.0,0.0,0.0,0.0,0.0,0.0,0.0,0.0,0.0,0.0,0.0,0.0,5.3664,5.3296,5.2937,5.2601,5.2752,5.2661,5.2342,5.2918,5.3196,5.3196,5.3196,0.0,0.0,0.0,0.0,0.0,0.0,0.0,5.4638,0.0,5.4766,5.4711,5.553,5.6149,5.648,5.5751,5.5112,5.4482,5.375,0.0,5.3501,5.3501,5.3501,0.0,0.0,0.0,0.0,0.0,0.0,0.0,0.0,0.0,5.3501,0.0,0.0,0.0,5.4583,5.5666,5.663,5.6782,5.7391,5.7849,5.7695,5.7815,5.7849,5.7695,5.7815,5.79,5.79,5.79,5.79,5.79,5.79,5.79,5.79,5.79,5.79,5.79,5.79,5.79,5.79,5.79,5.79,5.79,5.79,5.79,5.79,5.79,5.79,5.79,5.79,5.79,5.79,5.79,5.79,5.79,5.79,5.79,5.8018,5.9201,5.9674,5.9674,5.9674,5.9674,5.9674,5.0707,5.0707,0.0,0.0,0.0,0.0,0.0,0.0,0.0,0.0,0.0,0.0,0.0,0.0,0.0,0.0,0.0,0.0,5.4299,0.0,0.0,5.5381,5.5032,5.4789,5.4749,5.4048,5.3628,5.3591,5.3324,5.3196,5.3196,5.3196,0.0,0.0,5.3196,0.0,0.0,0.0,5.4803,0.0,5.6235,5.6106,0.0,5.6363,5.6312,5.573,5.4998,5.4672,5.4482,0.0,5.3501,5.3501,0.0,5.3501,0.0,0.0,0.0,0.0,0.0,0.0,0.0,0.0,5.3501,0.0,0.0,0.0,5.3805,5.4465,0.0,5.602,5.6681,0.0,0.0,5.7036,5.7459,5.7662,5.7019,5.7492,5.79,5.79,5.79,5.79,5.79,5.79,5.79,5.79,5.79,5.79,5.79,5.79,5.79,5.79,5.79,5.79,5.79,5.79,5.79,5.79,5.79,5.79,5.79,5.79,5.79,5.79,5.79,5.79,5.79,5.79,5.79,5.7917,5.8086,5.8154,5.8154,5.8154,5.8154,5.8154,0.0,5.0707,0.0,0.0,0.0,0.0,0.0,0.0,0.0,0.0,0.0,0.0,0.0,0.0,0.0,0.0,0.0,5.4799,0.0,0.0,0.0,0.0,5.5549,0.0,5.5114,5.4505,5.4075,5.3805,5.3392,5.3196,5.3196,5.3196,5.3196,0.0,5.3691,0.0,5.4454,0.0,5.5996,0.0,0.0,0.0,0.0,5.7373,5.703,5.6284,5.5518,5.4952,5.4482,0.0,5.3501,0.0,0.0,0.0,0.0,0.0,0.0,0.0,0.0,0.0,0.0,0.0,0.0,0.0,0.0,0.0,5.3602,0.0,0.0,0.0,0.0,0.0,0.0,0.0,5.7408,5.7798,5.7476,5.7714,5.79,5.79,5.79,5.79,5.79,5.79,5.79,5.79,5.79,5.79,5.79,5.79,5.79,5.79,5.79,5.79,5.79,5.79,5.79,5.79,5.79,5.79,5.79,5.79,5.79,5.79,5.79,5.79,5.79,5.79,5.79,5.79,5.79,5.79,5.79,5.79,5.79,5.79,0.0,0.0,0.0,0.0,0.0,0.0,0.0,0.0,0.0,0.0,0.0,0.0,5.5651,5.5708,0.0,0.0,0.0,5.5651,0.0,0.0,5.5599,0.0,0.0,0.0,0.0,5.4532,5.4135,5.3805,5.3392,5.3196,5.3196,5.3196,5.3324,0.0,0.0,5.4638,5.5133,0.0,0.0,5.7178,5.7758,5.7997,5.7985,5.7774,5.7228,5.6465,5.5681,5.4922,5.4218,5.3684,5.3501,0.0,5.3501,0.0,0.0,0.0,0.0,0.0,5.3501,0.0,0.0,0.0,0.0,0.0,0.0,0.0,0.0,0.0,0.0,0.0,0.0,0.0,0.0,0.0,0.0,5.7526,5.7323,5.7663,5.79,5.79,5.79,5.79,5.79,5.79,5.79,5.79,5.79,5.79,5.79,5.79,5.79,5.79,5.79,5.79,5.79,5.79,5.79,5.79,5.79,5.79,5.79,5.79,5.79,5.79,5.79,5.79,5.79,5.79,5.79,5.79,5.79,5.79,5.79,5.79,5.79,5.79,5.3121,5.3121,0.0,0.0,0.0,0.0,0.0,0.0,0.0,0.0,0.0,0.0,0.0,0.0,0.0,0.0,0.0,5.5529,5.5128,0.0,5.5343,0.0,0.0,0.0,0.0,0.0,5.3823,5.3805,5.3392,5.3196,5.3196,5.3196,5.3618,5.4363,5.4399,5.5262,5.6719,5.6774,5.7262,5.796,5.7997,5.7997,5.7909,0.0,5.6452,5.5635,5.4909,0.0,0.0,5.3501,5.3501,0.0,0.0,0.0,0.0,0.0,0.0,0.0,0.0,0.0,0.0,5.3501,0.0,0.0,0.0,0.0,5.3501,0.0,0.0,0.0,0.0,0.0,0.0,0.0,0.0,0.0,0.0,5.7002,5.79,5.79,5.79,5.79,5.79,5.79,5.79,5.79,5.79,5.79,5.79,5.79,5.79,5.79,5.79,5.79,5.79,5.79,5.79,5.79,5.79,5.79,5.79,5.79,5.79,5.79,5.79,5.79,5.79,5.79,5.79,5.79,5.79,5.79,5.79,5.79,5.79,5.79,0.0,0.0,0.0,0.0,0.0,0.0,0.0,5.5285,0.0,0.0,0.0,0.0,0.0,0.0,5.5708,0.0,0.0,5.5256,5.5121,5.5224,0.0,0.0,0.0,5.4916,0.0,0.0,0.0,0.0,0.0,5.3196,5.3214,5.3728,5.4142,5.4454,0.0,5.6278,0.0,0.0,0.0,0.0,0.0,5.7714,5.7234,0.0,0.0,5.6326,5.5059,5.4435,0.0,5.3668,5.3501,5.3501,5.3501,5.3501,5.3501,5.3501,5.3501,0.0,0.0,0.0,5.3501,5.3501,0.0,0.0,0.0,0.0,0.0,0.0,0.0,0.0,0.0,0.0,0.0,0.0,0.0,0.0,0.0,5.6562,5.734,5.7849,5.79,5.79,5.79,5.79,5.79,5.79,5.79,5.79,5.79,5.79,5.79,5.79,5.79,5.79,5.79,5.79,5.79,5.79,5.79,5.79,5.79,5.79,5.79,5.79,5.79,5.79,5.79,5.79,5.79,5.79,5.79,5.79,5.79,5.79,5.79,5.79,5.4934,0.0,0.0,0.0,0.0,0.0,0.0,0.0,0.0,0.0,5.5708,0.0,5.5708,0.0,5.5646,0.0,5.5244,5.5094,5.5076,5.4949,0.0,5.4471,5.473,0.0,0.0,0.0,0.0,0.0,0.0,5.3765,5.4069,5.4583,5.4987,5.5299,5.6334,5.6957,5.7262,5.7776,5.7997,0.0,0.0,5.7714,0.0,0.0,5.6317,5.5956,0.0,5.4419,5.4155,5.3651,5.3501,5.3501,5.3501,5.3501,5.3501,5.3501,5.3501,5.3501,5.3501,5.3501,0.0,5.3501,5.3501,0.0,5.3501,0.0,0.0,0.0,0.0,0.0,0.0,0.0,0.0,0.0,0.0,0.0,0.0,5.6105,5.6681,5.7408,5.7747,5.79,5.79,5.79,5.79,5.79,5.79,5.79,5.79,5.79,5.79,5.79,5.79,5.79,5.79,5.79,5.79,5.79,5.79,5.79,5.79,5.79,5.79,5.79,5.79,5.79,5.79,5.79,5.79,5.79,5.79,5.79,5.79,5.79,5.79,5.79,0.0,0.0,0.0,0.0,5.5785,0.0,0.0,0.0,5.5824,0.0,5.5824,5.5824,5.5824,5.5808,5.5646,5.5255,5.5188,0.0,5.5072,5.4757,0.0,0.0,5.4529,5.4378,5.3907,0.0,0.0,0.0,0.0,0.0,5.5603,5.564,5.6081,5.6792,5.6829,0.0,5.7997,5.7997,5.7997,5.7997,5.7997,5.7944,5.772,5.625,5.5235,5.4612,5.456,5.409,5.3518,5.3551,5.3551,5.3568,5.3602,5.3619,5.3619,5.3619,5.3619,5.3619,5.3619,5.3619,5.3619,5.3619,0.0,0.0,0.0,0.0,5.3805,0.0,0.0,0.0,0.0,0.0,0.0,0.0,0.0,0.0,0.0,0.0,5.5969,5.6714,5.7442,5.79,5.79,5.79,5.79,5.79,5.79,5.79,5.79,5.79,5.79,5.79,5.79,5.79,5.79,5.79,5.79,5.79,5.79,5.79,5.79,5.79,5.79,5.79,5.79,5.79,5.79,5.79,5.79,5.79,5.79,5.79,5.79,5.79,5.79,5.79,5.667,5.7184,5.7627,0.0,5.7093,5.667,0.0,0.0,0.0,0.0,5.7627,5.7627,5.7627,5.7327,5.7076,5.6962,5.632,0.0,0.0,0.0,0.0,5.5306,5.5595,5.5562,5.5149,5.5128,0.0,5.5452,0.0,0.0,5.5603,5.6216,5.659,5.6829,5.7428,5.7813,5.7997,5.7997,5.7997,5.7997,5.7997,5.7297,0.0,0.0,5.5242,5.4532,5.3971,5.3668,5.3585,5.4126,5.4313,5.4414,5.4955,5.5141,5.5141,5.5141,5.5141,5.5141,5.5141,5.5141,5.5141,5.5141,5.5141,5.5141,0.0,0.0,0.0,0.0,0.0,0.0,0.0,0.0,0.0,0.0,0.0,0.0,0.0,0.0,0.0,5.6714,5.7442,5.79,5.79,5.79,5.79,5.79,5.79,5.79,5.79,5.79,5.79,5.79,5.79,5.79,5.79,5.79,5.79,5.79,5.79,5.79,5.79,5.79,5.79,5.79,5.79,5.79,5.79,5.79,5.79,5.79,5.79,5.79,5.79,5.79,5.79,5.79,5.7574,0.0,0.0,5.8294,0.0,0.0,5.7613,0.0,0.0,5.8294,5.8294,0.0,5.8022,5.7765,5.7421,5.7019,5.65,0.0,0.0,0.0,0.0,5.6128,5.5995,5.5831,5.5596,5.5603,0.0,5.6124,0.0,0.0,5.6668,5.7116,5.7317,5.7336,5.7795,5.7997,5.7997,5.7997,5.7997,5.7997,5.7997,5.7478,0.0,5.6351,5.5946,5.5467,5.4737,5.4448,5.4532,5.4938,5.5091,5.5158,5.5564,5.5699,5.5699,5.5699,5.5699,5.5699,5.5699,5.5699,5.5699,5.5699,5.5699,5.5699,5.5699,5.5699,5.5783,0.0,0.0,0.0,0.0,0.0,0.0,0.0,0.0,0.0,0.0,0.0,0.0,0.0,5.7171,5.7543,5.7883,5.79,5.79,5.79,5.79,5.79,5.79,5.79,5.79,5.79,5.79,5.79,5.79,5.79,5.79,5.79,5.79,5.79,5.79,5.79,5.79,5.79,5.79,5.79,5.79,5.79,5.79,5.79,5.79,5.79,5.79,5.79,5.79,5.79,0.0,0.0,0.0,0.0,0.0,0.0,0.0,5.8627,0.0,5.8627,0.0,5.8478,5.8057,5.7955,5.7567,5.6696,0.0,5.6654,5.6947,5.629,5.6216,5.6921,5.6301,5.5915,5.5915,5.5915,0.0,0.0,0.0,0.0,5.7997,5.7997,5.7997,5.7997,5.7997,5.7997,5.7997,5.7997,5.7997,5.7997,5.8107,5.8038,5.7801,5.7249,5.6948,5.6705,5.6063,5.5783,5.5716,5.58,5.5834,5.5851,5.5953,5.5986,5.5986,5.5986,5.5986,5.5986,5.5986,5.5986,5.5986,5.5986,5.5986,5.5986,5.5986,5.5986,5.6172,5.6816,5.6444,5.6359,0.0,0.0,0.0,0.0,0.0,0.0,0.0,0.0,0.0,0.0,0.0,0.0,5.7849,5.79,5.79,5.79,5.79,5.79,5.79,5.79,5.79,5.79,5.79,5.79,5.79,5.79,5.79,5.79,5.79,5.79,5.79,5.79,5.79,5.79,5.79,5.79,5.79,5.79,5.79,5.79,5.79,5.79,5.79,5.79,5.79,5.79,0.0,0.0,0.0,0.0,0.0,6.0512,6.0377,6.0358,6.0358,6.0358,6.0358,6.034,6.0242,5.9891,5.9433,5.8886,5.8492,0.0,0.0,0.0,0.0,5.7776,5.7648,5.7574,5.7574,5.7574,5.7648,0.0,0.0,0.0,5.7997,5.7997,5.7997,5.7997,5.7997,5.7997,5.7997,5.7997,0.0,5.8052,5.8719,5.8235,5.7157,5.7697,5.7442,5.6792,5.6649,5.6206,5.5783,5.641,5.6613,5.6714,5.7323,5.7509,5.7509,5.7509,5.7509,5.7509,5.7509,5.7509,5.7509,5.7509,5.7509,5.7509,5.7509,5.7509,5.7543,5.7697,5.7594,5.7408,5.7053,0.0,0.0,0.0,0.0,0.0,0.0,0.0,0.0,0.0,0.0,5.7764,0.0,5.79,5.79,5.79,5.79,5.79,5.79,5.79,5.79,5.79,5.79,5.79,0.0,0.0,5.79,5.79,5.79,5.79,5.79,5.79,5.79,5.79,5.79,5.79,5.79,5.79,5.79,5.79,5.79,5.79,5.79,5.79,5.79,5.79,0.0,0.0,0.0,0.0,0.0,0.0,0.0,6.0806,0.0,6.0806,6.0806,6.0702,6.045,6.0018,5.9553,5.9075,5.8611,5.8238,5.802,5.7997,5.7997,5.7997,5.7997,0.0,5.7997,5.7997,5.7997,5.7997,0.0,0.0,0.0,0.0,5.7997,5.7997,5.7997,5.7997,5.7997,0.0,0.0,5.8646,5.9049,5.9011,5.8702,5.8671,5.8385,5.7946,5.752,5.7137,5.69,5.7256,5.7357,5.7425,5.7798,5.79,5.79,5.79,5.79,5.79,5.79,5.79,5.79,5.79,5.79,5.79,5.79,5.79,5.79,5.79,5.79,5.7798,5.7442,5.707,0.0,0.0,0.0,0.0,0.0,0.0,0.0,0.0,0.0,0.0,0.0,0.0,5.79,5.79,5.79,5.79,5.79,5.79,5.79,5.79,5.79,0.0,5.79,0.0,5.79,5.79,5.79,5.79,5.79,5.79,5.79,5.79,5.79,5.79,5.79,5.79,5.79,5.79,5.79,5.79,5.79,5.79,5.79,5.79,0.0,6.0806,0.0,0.0,6.0806,0.0,6.0806,6.0806,6.0806,6.0806,6.0708,6.0502,6.0139,5.9685,5.9203,5.8745,5.8362,5.8108,5.8008,5.7997,5.7997,5.7997,5.7997,5.7997,5.7997,5.7997,5.7997,0.0,0.0,0.0,0.0,0.0,0.0,5.7997,5.7997,0.0,0.0,0.0,5.8731,5.9471,5.9636,6.0001,6.0339,5.9692,5.9304,5.8993,5.8192,5.79,5.79,5.79,5.79,5.79,5.79,5.79,5.79,5.79,5.79,5.79,5.79,5.79,5.79,5.79,5.79,5.79,5.79,5.79,5.79,5.79,5.79,5.79,5.79,5.79,0.0,0.0,0.0,0.0,0.0,0.0,0.0,0.0,0.0,0.0,5.79,5.79,5.79,5.79,5.79,5.79,5.79,5.79,5.79,5.79,0.0,5.79,5.79,0.0,5.79,5.79,5.79,5.79,5.79,5.79,5.79,5.79,5.79,5.79,5.79,5.79,5.79,5.79,5.79,5.79,5.79,5.79,5.79,5.79,0.0,0.0,0.0,0.0,0.0,0.0,6.0806,6.0806,6.0806,6.0806,6.0424,6.0146,6.0091,5.9685,5.9203,5.8745,5.8673,5.8442,5.8031,5.7997,5.7997,5.7997,5.7997,5.7997,5.7997,5.7997,5.7997,0.0,0.0,0.0,0.0,0.0,0.0,0.0,0.0,0.0,0.0,5.9086,5.9545,6.0346,6.108,6.098,6.0393,6.0312,5.9794,5.8993,5.8192,5.79,5.79,5.79,5.79,5.79,5.79,5.79,5.79,5.79,5.79,5.79,5.79,5.79,5.79,5.79,5.79,5.79,5.79,5.79,5.79,5.79,5.79,5.79,5.79,5.79,5.79,0.0,0.0,0.0,0.0,0.0,0.0,0.0,0.0,0.0,0.0,5.79,5.79,5.79,5.79,5.79,5.79,0.0,0.0,5.79,5.79,5.79,5.79,5.79,5.79,5.79,5.79,5.79,5.79,5.79,5.79,5.79,5.79,5.79,5.79,5.79,5.79,5.79,5.79,5.79,5.79,5.79,5.79,5.79,0.0,0.0,0.0,0.0,0.0,0.0,0.0,6.1313,6.1301,6.1799,6.0845,6.011,6.011,5.9424,5.8894,5.8715,5.845,5.8201,5.802,5.7997,5.7997,5.7997,5.7997,5.7997,5.7997,5.7997,5.7997,0.0,0.0,0.0,0.0,0.0,0.0,0.0,0.0,5.9159,5.9912,5.9912,6.0382,6.1153,6.1465,6.1412,6.107,6.0579,5.9864,5.8993,5.8192,5.79,5.79,5.79,5.79,5.79,5.79,5.79,5.79,5.79,5.79,5.79,5.79,5.79,5.79,5.79,5.79,5.79,5.79,5.79,5.79,5.79,5.79,5.79,5.79,5.79,5.79,0.0,0.0,0.0,0.0,0.0,0.0,0.0,0.0,0.0,0.0,5.79,5.79,5.79,0.0,0.0,0.0,0.0,0.0,5.79,0.0,5.79,5.79,5.79,5.79,5.79,5.79,5.79,5.79,5.79,5.79,5.79,5.79,5.79,5.79,5.79,5.79,5.79,5.79,5.79,5.79,5.79,5.79,5.79,6.1172,0.0,6.1531,0.0,6.1531,6.1743,6.2364,6.2011,6.1896,6.2513,6.1302,6.0294,6.0075,5.9326,5.8744,5.8513,5.819,5.7997,5.7997,5.7997,5.7997,5.7997,5.7997,0.0,5.7997,5.7997,5.7997,5.7997,5.8235,0.0,0.0,0.0,0.0,0.0,5.9545,6.0003,6.075,6.075,6.1227,6.1942,6.1942,6.1813,6.1502,6.0718,5.9864,5.8993,5.8192,5.79,5.79,5.79,5.79,5.79,5.79,5.79,5.79,5.79,5.79,5.79,5.79,5.79,5.79,5.79,5.79,5.79,5.79,5.79,5.79,5.79,5.79,5.79,5.79,5.79,5.79,5.79,0.0,0.0,0.0,0.0,0.0,0.0,0.0,5.79,5.79,5.79,5.79,0.0,0.0,0.0,0.0,0.0,0.0,0.0,0.0,0.0,5.79,5.79,5.79,5.79,5.79,5.79,5.79,5.79,5.79,5.79,5.79,5.79,5.79,5.79,5.79,5.79,5.79,5.79,5.79,5.79,5.79,5.79,6.2076,6.2724,6.3275,6.3275,6.3275,6.3275,6.3275,6.2891,6.2597,6.2597,6.1714,6.0778,5.9988,5.9471,5.8877,5.8081,5.8008,5.7997,5.7997,5.7997,5.7997,0.0,0.0,5.7997,5.7997,5.7997,5.7997,5.7997,0.0,0.0,6.0401,0.0,6.1135,6.0389,6.0389,6.0823,6.1575,6.1575,6.2053,6.2793,6.2793,6.2311,6.1502,6.0718,5.9864,5.8993,5.8192,5.79,5.79,5.79,5.79,5.79,5.79,5.79,5.79,5.79,5.79,5.79,5.79,5.79,5.79,5.79,5.79,5.79,5.79,5.79,5.79,5.79,5.79,5.79,5.79,5.79,5.79,5.79,0.0,0.0,0.0,0.0,0.0,0.0,5.79,5.79,5.79,5.79,0.0,0.0,0.0,0.0,0.0,0.0,0.0,5.79,5.79,0.0,5.79,5.79,5.79,5.79,5.79,5.79,5.79,5.79,5.79,5.79,5.79,5.79,5.79,5.79,5.79,5.79,5.79,5.79,5.79,5.79,5.79,5.79,6.2916,6.3121,6.3295,6.3295,6.3295,6.3386,6.3616,6.324,6.3018,6.3253,6.2677,6.1944,6.1144,6.0434,5.9912,0.0,5.9648,5.9648,0.0,5.9648,5.9648,5.9648,5.9648,5.9648,5.9648,5.9648,5.9648,5.9648,0.0,0.0,0.0,6.0658,6.0933,6.1208,6.1208,6.1667,6.2407,6.2407,6.2572,6.2793,6.2793,6.1982,6.0745,6.0506,5.9526,5.8245,5.7992,5.79,5.79,5.79,5.79,5.79,5.79,5.79,5.79,5.79,5.79,5.79,5.79,5.79,5.79,5.79,5.79,5.79,5.79,5.79,5.79,5.79,5.79,5.79,5.79,5.79,5.79,5.79,5.79,0.0,0.0,0.0,0.0,0.0,5.79,5.79,5.79,5.79,0.0,0.0,0.0,0.0,0.0,0.0,0.0,0.0,5.79,0.0,5.79,5.79,5.79,5.79,5.79,5.79,5.79,5.79,5.79,5.79,5.79,5.79,5.79,5.79,5.79,5.79,5.79,5.79,5.79,5.79,5.79,5.79,6.3795,6.4045,6.4282,6.4282,6.4282,6.4276,6.4295,6.3901,6.3595,6.3603,6.3121,6.2609,6.2108,6.16,0.0,6.0456,6.0401,6.0401,6.0401,6.0401,6.0401,6.0401,6.0401,6.0401,6.0401,6.0401,0.0,6.0401,6.0694,6.1006,6.1288,6.1288,6.1563,6.2053,6.2053,6.2328,6.2793,6.2793,6.2793,6.2768,6.2459,6.1562,6.0368,6.0039,5.9078,5.79,5.79,5.79,5.79,5.79,5.79,5.79,5.79,5.79,5.79,5.79,5.79,5.79,5.79,5.79,5.79,5.79,5.79,5.79,5.79,5.79,5.79,5.79,5.79,5.79,5.79,5.79,5.79,5.79,5.79,5.79,5.79,0.0,0.0,0.0,0.0,0.0,0.0,5.79,5.79,0.0,0.0,0.0,0.0,0.0,0.0,5.79,5.79,0.0,5.79,5.79,5.79,5.79,5.79,5.79,5.79,5.79,5.79,5.79,5.79,5.79,5.79,5.79,5.79,5.79,5.79,5.79,5.79,5.79,5.79,5.79,6.4686,6.534,6.5904,0.0,6.5859,0.0,6.5122,6.4643,6.4157,6.3612,6.3115,6.2793,6.2793,6.2793,6.2205,6.0713,0.0,0.0,0.0,6.0566,6.0566,6.0566,6.0566,6.0566,6.0566,6.0566,6.0566,6.0566,6.1318,6.2071,6.2793,6.2793,6.2793,6.2793,6.2793,6.2793,6.2793,6.2793,6.2793,6.2743,6.1982,6.1175,6.0322,5.9509,5.8651,5.79,5.79,5.79,5.79,5.79,5.79,5.79,5.79,5.79,5.79,5.79,5.79,5.79,5.79,5.79,5.79,5.79,5.79,5.79,5.79,5.79,5.79,5.79,5.79,5.79,5.79,5.79,5.79,5.79,5.79,5.79,5.79,0.0,0.0,0.0,0.0,0.0,0.0,5.79,5.79,0.0,0.0,0.0,0.0,0.0,5.79,5.79,5.79,5.79,5.79,5.79,5.79,5.79,5.79,5.79,5.79,5.79,5.79,5.79,5.79,5.79,5.79,5.79,5.79,5.79,5.79,5.79,5.79,5.79,5.79,5.79,0.0,0.0,6.5904,6.5904,6.5563,6.5134,6.4645,6.4119,6.3601,6.3056,6.2874,6.2793,6.2793,6.2793,6.2646,6.226,6.2224,6.2224,6.2224,6.2224,6.2224,6.2224,6.2224,6.2224,6.2224,6.2224,6.2224,6.2224,6.2426,6.2609,6.2793,6.2793,6.2793,6.2793,6.2793,6.2793,6.2793,6.2793,6.2793,6.278,6.2579,6.1677,6.0384,6.0164,5.9179,5.79,5.79,5.79,5.79,5.79,5.79,5.79,5.79,5.79,5.79,5.79,5.79,5.79,5.79,5.79,5.79,5.79,5.79,5.79,5.79,5.79,5.79,5.79,5.79,5.79,5.79,5.79,5.79,5.79,5.79,5.79,5.79,5.79,0.0,0.0,5.79,5.79,5.79,5.79,5.79,0.0,0.0,0.0,5.79,5.79,5.79,5.79,5.79,5.79,5.79,5.79,5.79,5.79,5.79,5.79,5.79,5.79,5.79,5.79,5.79,5.79,5.79,5.79,5.79,5.79,5.79,5.79,5.79,5.79,5.79,5.79,6.5904,6.5904,6.5814,6.5569,6.5291,6.485,6.4138,6.3787,6.3408,6.2861,6.2793,6.2793,6.2793,6.2793,6.2793,6.2793,6.2793,6.2793,6.2793,6.2793,6.2793,6.2793,6.2793,6.2793,6.2793,6.2793,6.2793,6.2793,6.2793,6.2793,6.2793,6.2793,6.2793,6.2793,6.2793,6.2793,6.2793,6.2793,6.2793,6.2768,6.2407,6.1506,6.0353,5.996,5.9011,5.79,5.79,5.79,5.79,5.79,5.79,5.79,5.79,5.79,5.79,5.79,5.79,5.79,5.79,5.79,5.79,5.79,5.79,5.79,5.79,5.79,5.79,5.79,5.79,5.79,5.79,5.79,5.79,5.79,5.79,5.79,5.79,5.79,0.0,5.79,5.79,5.79,5.79,5.79,5.79,5.79,5.79,0.0,5.79,5.79,5.79,5.79,5.79,5.79,5.79,5.79,5.79,5.79,5.79,5.79,5.79,5.79,5.79,5.79,5.79,5.79,5.79,5.79,5.79,5.79,5.79,5.79,5.79,5.79,5.79,5.79,6.5904,6.5821,6.563,6.5188,6.4976,6.458,6.3734,6.3524,6.3324,6.2867,6.2793,6.2793,6.2793,6.2793,6.2793,6.2793,6.2793,6.2793,6.2793,6.2793,6.2793,6.2793,6.2793,6.2793,6.2793,6.2793,6.2793,6.2793,6.2793,6.2793,6.2793,6.2793,6.2793,6.2793,6.2793,6.2793,6.2793,6.2793,6.2793,6.273,6.1924,6.1113,6.0289,5.9427,5.8599,5.79,5.79,5.79,5.79,5.79,5.79,5.79,5.79,5.79,5.79,5.79,5.79,5.79,5.79,5.79,5.79,5.79,5.79,5.79,5.79,5.79,5.79,5.79,5.79,5.79,5.79,5.79,5.79,5.79,5.79,5.79,5.79,0.0,5.79,5.79,5.79,5.79,5.79,5.79,5.79,5.79,5.79,5.79,5.79,5.79,5.79,5.79,5.79,5.79,5.79,5.79,5.79,5.79,5.79,5.79,5.79,5.79,5.79,5.79,5.79,5.79,5.79,5.79,5.79,5.79,5.79,5.79,5.79,5.79,5.79,5.79,6.5904,6.5542,6.5203,6.5115,6.4398,6.3787,6.3623,6.3215,6.2886,6.2805,6.2793,6.2793,6.2793,6.2793,6.2793,6.2793,6.2793,6.2793,6.2793,6.2793,6.2793,6.2793,6.2793,6.2793,6.2793,6.2793,6.2793,6.2793,6.2793,6.2793,6.2793,6.2793,6.2793,6.2793,6.2793,6.2793,6.2793,6.2793,6.2793,6.273,6.1924,6.1113,6.0289,5.9427,5.8599,5.79,5.79,5.79,5.79,5.79,5.79,5.79,5.79,5.79,5.79,5.79,5.79,5.79,5.79,5.79,5.79,5.79,5.79,5.79,5.79,5.79,5.79,5.79,5.79,5.79,5.79,5.79,5.79,5.79,5.79,5.79,5.79,0.0,5.79,5.79,5.79,5.79,5.79,5.79,5.79,5.79,5.79,5.79,5.79,5.79,5.79,5.79,5.79,5.79,5.79,5.79,5.79,5.79,5.79,5.79,5.79,5.79,5.79,5.79,5.79,5.79,5.79,5.79,5.79,5.79,5.79,5.79,5.79,5.79,5.79,5.79,6.5534,6.5276,6.4935,6.4388,6.3915,6.3491,6.3215,6.2953,6.2793,6.2793,6.2793,6.2793,6.2793,6.2793,6.2793,6.2793,6.2793,6.2793,6.2793,6.2793,6.2793,6.2793,6.2793,6.2793,6.2793,6.2793,6.2793,6.2793,6.2793,6.2793,6.2793,6.2793,6.2793,6.2793,6.2793,6.2793,6.2793,6.2793,6.2793,6.273,6.1924,6.1113,6.0289,5.9427,5.8599,5.79,5.79,5.79,5.79,5.79,5.79,5.79,5.79,5.79,5.79,5.79,5.79,5.79,5.79,5.79,5.79,5.79,5.79,5.79,5.79,5.79,5.79,5.79,5.79,5.79,5.79,5.79,5.79,5.79,5.79,0.0,0.0,5.79,5.79,5.79,5.79,5.79,5.79,5.79,5.79,5.79,5.79,5.79,5.79,5.79,5.79,5.79,5.79,5.79,5.79,5.79,5.79,5.79,5.79,5.79,5.79,5.79,5.79,5.79,5.79,5.79,5.79,5.79,5.79,5.79,5.79,5.79,5.79,5.79,5.79,5.79,6.5188,6.49,6.4508,6.3734,6.3509,6.3285,6.2867,6.2793,6.2793,6.2793,6.2793,6.2793,6.2793,6.2793,6.2793,6.2793,6.2793,6.2793,6.2793,6.2793,6.2793,6.2793,6.2793,6.2793,6.2793,6.2793,6.2793,6.2793,6.2793,6.2793,6.2793,6.2793,6.2793,6.2793,6.2793,6.2793,6.2793,6.2793,6.2686,6.2446,6.1646,6.0835,6.0007,5.9145,5.8441,5.79,5.79,5.79,5.79,5.79,5.79,5.79,5.79,5.79,5.79,5.79,5.79,5.79,5.79,5.79,5.79,5.79,5.79,5.79,5.79,5.79,5.79,5.79,5.79,5.79,5.79,5.79,5.79,5.79,0.0,0.0,0.0,5.79,5.79,5.79,5.79,5.79,5.79,5.79,5.79,5.79,5.79,5.79,5.79,5.79,5.79,5.79,5.79,5.79,5.79,5.79,5.79,5.79,5.79,5.79,5.79,5.79,5.79,5.79,5.79,5.79,5.79,5.79,5.79,5.79,5.79,5.79,5.79,5.79,5.79,5.7863,6.5115,6.4351,6.368,6.3612,6.3191,6.2842,6.2823,6.2793,6.2793,6.2793,6.2793,6.2793,6.2793,6.2793,6.2793,6.2793,6.2793,6.2793,6.2793,6.2793,6.2793,6.2793,6.2793,6.2793,6.2793,6.2793,6.2793,6.2793,6.2793,6.2793,6.2793,6.2793,6.2793,6.2793,6.2793,6.2793,6.2793,6.2793,6.2363,6.1618,6.0805,5.9975,5.9111,5.8299,5.7954,5.79,5.79,5.79,5.79,5.79,5.79,5.79,5.79,5.79,5.79,5.79,5.79,5.79,5.79,5.79,5.79,5.79,5.79,5.79,5.79,5.79,5.79,5.79,5.79,5.79,5.79,5.79,5.79,5.79,0.0,0.0,5.79,5.79,5.79,5.79,5.79,5.79,5.79,5.79,5.79,5.79,5.79,5.79,5.79,5.79,5.79,5.79,5.79,5.79,5.79,5.79,5.79,5.79,5.79,5.79,5.79,5.79,5.79,5.79,5.79,5.79,5.79,5.79,5.79,5.79,5.79,5.79,5.79,5.79,5.79,5.7755,6.4713,6.4089,6.3498,6.3156,6.2935,6.2793,6.2793,6.2793,6.2793,6.2793,6.2793,6.2793,6.2793,6.2793,6.2793,6.2793,6.2793,6.2793,6.2793,6.2793,6.2793,6.2793,6.2793,6.2793,6.2793,6.2793,6.2793,6.2793,6.2793,6.2793,6.2793,6.2793,6.2793,6.2793,6.2793,6.2793,6.2793,6.2793,6.2355,6.153,6.0715,5.988,5.901,5.8209,5.79,5.79,5.79,5.79,5.79,5.79,5.79,5.79,5.79,5.79,5.79,5.79,5.79,5.79,5.79,5.79,5.79,5.79,5.79,5.79,5.79,5.79,5.79,5.79,5.79,5.79,5.79,5.79,5.79,5.79,0.0,5.79,5.79,5.79,5.79,5.79,5.79,5.79,5.79,5.79,5.79,5.79,5.79,5.79,5.79,5.79,5.79,5.79,5.79,5.79,5.79,5.79,5.79,5.79,5.79,5.79,5.79,5.79,5.79,5.79,5.79,5.79,5.79,5.79,5.79,5.79,5.79,5.79,5.781,5.7112,5.6851,5.6682,6.4255,6.3713,6.3238,6.2867,6.2793,6.2793,6.2793,6.2793,6.2793,6.2793,6.2793,6.2793,6.2793,6.2793,6.2793,6.2793,6.2793,6.2793,6.2793,6.2793,6.2793,6.2793,6.2793,6.2793,6.2793,6.2793,6.2793,6.2793,6.2793,6.2793,6.2793,6.2793,6.2793,6.2793,6.2793,6.2793,6.2793,6.2793,6.2187,6.1157,6.061,5.972,5.8651,5.8101,5.79,5.79,5.79,5.79,5.79,5.79,5.79,5.79,5.79,5.79,5.79,5.79,5.79,5.79,5.79,5.79,5.79,5.79,5.79,5.79,5.79,5.79,5.79,5.79,5.79,5.79,5.79,5.79,5.79,5.79,5.79,5.79,5.79,5.79,5.79,5.79,5.79,5.79,5.79,5.79,5.79,5.79,5.79,5.79,5.79,5.79,5.79,5.79,5.79,5.79,5.79,5.79,5.79,5.79,5.79,5.79,5.79,5.79,5.79,5.79,5.79,5.79,5.79,5.79,5.79,5.7863,5.7517,5.7372,5.7224,5.6106,5.5694,5.5554,6.3702,6.3168,6.2793,6.2793,6.2793,6.2793,6.2793,6.2793,6.2793,6.2793,6.2793,6.2793,6.2793,6.2793,6.2793,6.2793,6.2793,6.2793,6.2793,6.2793,6.2793,6.2793,6.2793,6.2793,6.2793,6.2793,6.2793,6.2793,6.2793,6.2793,6.2793,6.2793,6.2793,6.2793,6.2793,6.2793,6.2793,6.2793,6.1874,6.0399,6.0399,5.9395,5.79,5.79,5.79,5.79,5.79,5.79,5.79,5.79,5.79,5.79,5.79,5.79,5.79,5.79,5.79,5.79,5.79,5.79,5.79,5.79,5.79,5.79,5.79,5.79,5.79,5.79,5.79,5.79,5.79,5.79,5.79,5.79,5.79,5.79,5.79,5.79,5.79,5.79,5.79,5.79,5.79,5.79,5.79,5.79,5.79,5.79,5.79,5.79,5.79,5.79,5.79,5.79,5.79,5.79,5.79,5.79,5.79,5.79,5.79,5.79,5.79,5.79,5.79,5.79,5.79,5.79,5.7881,5.7773,5.6644,5.6204,5.605,5.4986,5.4589,5.4421,6.3634,6.3168,6.2793,6.2793,6.2793,6.2793,6.2793,6.2793,6.2793,6.2793,6.2793,6.2793,6.2793,6.2793,6.2793,6.2793,6.2793,6.2793,6.2793,6.2793,6.2793,6.2793,6.2793,6.2793,6.2793,6.2793,6.2793,6.2793,6.2793,6.2793,6.2793,6.2793,6.2793,6.2793,6.2793,6.2793,6.2793,6.2793,6.1874,6.0399,6.0399,5.9395,5.79,5.79,5.79,5.79,5.79,5.79,5.79,5.79,5.79,5.79,5.79,5.79,5.79,5.79,5.79,5.79,5.79,5.79,5.79,5.79,5.79,5.79,5.79,5.79,5.79,5.79,5.79,5.79,5.79,5.79,5.79,5.79,5.79,5.79,5.79,5.79,5.79,5.79,5.79,5.79,5.79,5.79,5.79,5.79,5.79,5.79,5.79,5.79,5.79,5.79,5.79,5.79,5.79,5.79,5.79,5.79,5.79,5.79,5.79,5.79,5.79,5.79,5.79,5.79,5.79,5.79,5.7426,5.6682,5.6321,5.5734,5.4945,5.3828,5.3412,5.3237,6.3324,6.3026,6.2793,6.2793,6.2793,6.2793,6.2793,6.2793,6.2793,6.2793,6.2793,6.2793,6.2793,6.2793,6.2793,6.2793,6.2793,6.2793,6.2793,6.2793,6.2793,6.2793,6.2793,6.2793,6.2793,6.2793,6.2793,6.2793,6.2793,6.2793,6.2793,6.2793,6.2793,6.2793,6.2793,6.2793,6.2793,6.2793,6.1874,6.0399,6.0399,5.9395,5.79,5.79,5.79,5.79,5.79,5.79,5.79,5.79,5.79,5.79,5.79,5.79,5.79,5.79,5.79,5.79,5.79,5.79,5.79,5.79,5.79,5.79,5.79,5.79,5.79,5.79,5.79,5.79,5.79,5.79,5.79,5.79,5.79,5.79,5.79,5.79,5.79,5.79,5.79,5.79,5.79,5.79,5.79,5.79,5.79,5.79,5.79,5.79,5.79,5.79,5.79,5.79,5.79,5.79,5.79,5.79,5.79,5.79,5.79,5.79,5.79,5.79,5.79,5.79,5.7863,5.7426,5.6832,5.6109,5.5235,5.4494,5.3785,5.2649,5.223,5.2132,6.2898,6.2793,6.2793,6.2793,6.2793,6.2793,6.2793,6.2793,6.2793,6.2793,6.2793,6.2793,6.2793,6.2793,6.2793,6.2793,6.2793,6.2793,6.2793,6.2793,6.2793,6.2793,6.2793,6.2793,6.2793,6.2793,6.2793,6.2793,6.2793,6.2793,6.2793,6.2793,6.2793,6.2793,6.2793,6.2793,6.2811,6.273,6.186,6.0506,6.043,5.9445,5.801,5.801,5.7955,5.79,5.79,5.79,5.79,5.79,5.79,5.79,5.79,5.79,5.79,5.79,5.79,5.79,5.79,5.79,5.79,5.79,5.79,5.79,5.79,5.79,5.79,5.79,5.79,5.79,5.79,5.79,5.79,5.79,5.79,5.79,5.79,5.79,5.79,5.79,5.79,5.79,5.79,5.79,5.79,5.79,5.79,5.79,5.79,5.79,5.79,5.79,5.79,5.79,5.79,5.79,5.79,5.79,5.79,5.79,5.79,5.79,5.79,5.7881,5.7792,5.7755,5.7646,5.6512,5.5991,5.5698,5.3699,5.2849,5.2627,5.158,5.1191,5.1191,6.2818,6.2793,6.2793,6.2793,6.2793,6.2793,6.2793,6.2793,6.2793,6.2793,6.2793,6.2793,6.2793,6.2793,6.2793,6.2793,6.2793,6.2793,6.2793,6.2793,6.2793,6.2793,6.2793,6.2793,6.2793,6.2793,6.2793,6.2793,6.2793,6.2793,6.2793,6.2793,6.2793,6.2793,6.2793,6.2793,6.2755,6.2134,6.1659,6.1272,6.064,5.9768,5.884,5.884,5.8458,5.79,5.79,5.79,5.79,5.79,5.79,5.79,5.79,5.79,5.79,5.79,5.79,5.79,5.79,5.79,5.79,5.79,5.79,5.79,5.79,5.79,5.79,5.79,5.79,5.79,5.79,5.79,5.79,5.79,5.79,5.79,5.79,5.79,5.79,5.79,5.79,5.79,5.79,5.79,5.79,5.79,5.79,5.79,5.79,5.79,5.79,5.79,5.79,5.79,5.79,5.79,5.79,5.79,5.79,5.79,5.79,5.79,5.79,5.7845,5.6963,5.6569,5.6473,5.5393,5.4426,5.3569,5.3099,5.235,5.1534,5.1308,5.1191,5.1191,6.2793,6.2793,6.2793,6.2793,6.2793,6.2793,6.2793,6.2793,6.2793,6.2793,6.2793,6.2793,6.2793,6.2793,6.2793,6.2793,6.2793,6.2793,6.2793,6.2793,6.2793,6.2793,6.2793,6.2793,6.2793,6.2793,6.2793,6.2793,6.2793,6.2793,6.2793,6.2793,6.2793,6.2793,6.2793,6.2793,6.2768,6.235,6.1937,6.153,6.0715,5.988,5.9061,5.8668,5.8281,5.79,5.79,5.79,5.79,5.79,5.79,5.79,5.79,5.79,5.79,5.79,5.79,5.79,5.79,5.79,5.79,5.79,5.79,5.79,5.79,5.79,5.79,5.79,5.79,5.79,5.79,5.79,5.79,5.79,5.79,5.79,5.79,5.79,5.79,5.79,5.79,5.79,5.79,5.79,5.79,5.79,5.79,5.79,5.79,5.79,5.79,5.79,5.79,5.79,5.79,5.79,5.79,5.79,5.79,5.79,5.7881,5.7335,5.7076,5.702,5.5909,5.5434,5.5353,5.4237,5.3433,5.2849,5.2298,5.1727,5.1191,5.1191,5.1191,5.1191,6.2793,6.2793,6.2793,6.2793,6.2793,6.2793,6.2793,6.2793,6.2793,6.2793,6.2793,6.2793,6.2793,6.2793,6.2793,6.2793,6.2793,6.2793,6.2793,6.2793,6.2793,6.2793,6.2793,6.2793,6.2793,6.2793,6.2793,6.2793,6.2793,6.2793,6.2793,6.2793,6.2793,6.2793,6.2793,6.2793,6.278,6.2649,6.2284,6.1728,6.0923,6.0102,5.9245,5.8581,5.8137,5.79,5.79,5.79,5.79,5.79,5.79,5.79,5.79,5.79,5.79,5.79,5.79,5.79,5.79,5.79,5.79,5.79,5.79,5.79,5.79,5.79,5.79,5.79,5.79,5.79,5.79,5.79,5.79,5.79,5.79,5.79,5.79,5.79,5.79,5.79,5.79,5.79,5.79,5.79,5.79,5.79,5.79,5.79,5.79,5.79,5.79,5.79,5.79,5.79,5.79,5.79,5.79,5.79,5.79,5.79,5.7863,5.672,5.6204,5.6129,5.4863,5.4316,5.4232,5.3077,5.2604,5.253,5.158,5.1191,5.1191,5.1191,5.1191,5.1191,6.2793,6.2793,6.2793,6.2793,6.2793,6.2793,6.2793,6.2793,6.2793,6.2793,6.2793,6.2793,6.2793,6.2793,6.2793,6.2793,6.2793,6.2793,6.2793,6.2793,6.2793,6.2793,6.2793,6.2793,6.2793,6.2793,6.2793,6.2793,6.2793,6.2793,6.2793,6.2793,6.2793,6.2793,6.2793,6.2793,6.2755,6.2049,6.2089,6.2567,6.1756,6.0953,6.0196,6.0086,5.9145,5.79,5.79,5.79,5.79,5.79,5.79,5.79,5.79,5.79,5.79,5.79,5.79,5.79,5.79,5.79,5.79,5.79,5.79,5.79,5.79,5.79,5.79,5.79,5.79,5.79,5.79,5.79,5.79,5.79,5.79,5.79,5.79,5.79,5.79,5.79,5.79,5.79,5.79,5.79,5.79,5.79,5.79,5.79,5.79,5.79,5.79,5.79,5.79,5.79,5.79,5.79,5.79,5.79,5.79,5.79,5.7863,5.672,5.6204,5.6106,5.4009,5.3143,5.3055,5.1896,5.1433,5.1409,5.1261,5.1191,5.1191,5.1191,5.1191,5.1191,6.2793,6.2793,6.2793,6.2793,6.2793,6.2793,6.2793,6.2793,6.2793,6.2793,6.2793,6.2793,6.2793,6.2793,6.2793,6.2793,6.2793,6.2793,6.2793,6.2793,6.2793,6.2793,6.2793,6.2793,6.2793,6.2793,6.2793,6.2793,6.2793,6.2793,6.2793,6.2793,6.2793,6.2793,6.2793,6.2793,6.2768,6.242,6.249,6.273,6.1924,6.1113,6.0353,5.9864,5.8943,5.79,5.79,5.79,5.79,5.79,5.79,5.79,5.79,5.79,5.79,5.79,5.79,5.79,5.79,5.79,5.79,5.79,5.79,5.79,5.79,5.79,5.79,5.79,5.79,5.79,5.79,5.79,5.79,5.79,5.79,5.79,5.79,5.79,5.79,5.79,5.79,5.79,5.79,5.79,5.79,5.79,5.79,5.79,5.79,5.79,5.79,5.79,5.79,5.79,5.79,5.79,5.79,5.79,5.79,5.79,5.7863,5.672,5.5873,5.5211,5.3613,5.2553,5.1919,5.1409,5.1191,5.1191,5.1191,5.1191,5.1191,5.1191,5.1191,5.1191]}]]